<?xml version="1.0" encoding="UTF-8" standalone="no" ?>
<gpx xmlns="http://www.topografix.com/GPX/1/1" xmlns:xsi="http://www.w3.org/2001/XMLSchema-instance" xsi:schemaLocation="http://www.topografix.com/GPX/1/1 http://www.topografix.com/GPX/1/1/gpx.xsd" version="1.1" creator="VisuGPX - https://www.visugpx.com">
  <metadata>
    <name>lundi 2015 07</name>
    <desc><![CDATA[cumul de juillet 2015]]></desc>
  </metadata>
  <trk>
    <name><![CDATA[lundi 2015 07 27]]></name>
    <extensions>
      <line xmlns="http://www.topografix.com/GPX/gpx_style/0/2">
        <color>000000</color>
      </line>
    </extensions>
    <trkseg>
      <trkpt lat="48.85739" lon="2.34748">
        <ele>52.400001525879</ele>
        <time>2015-07-27T18:20:34Z</time>
      </trkpt>
      <trkpt lat="48.85739" lon="2.34749">
        <ele>52.400001525879</ele>
        <time>2015-07-27T18:20:36Z</time>
      </trkpt>
      <trkpt lat="48.85743" lon="2.34755">
        <ele>52.79999923706</ele>
        <time>2015-07-27T18:20:41Z</time>
      </trkpt>
      <trkpt lat="48.85751" lon="2.3476">
        <ele>52.599998474121</ele>
        <time>2015-07-27T18:20:46Z</time>
      </trkpt>
      <trkpt lat="48.85753" lon="2.3476">
        <ele>52.400001525879</ele>
        <time>2015-07-27T18:20:47Z</time>
      </trkpt>
      <trkpt lat="48.85762" lon="2.34764">
        <ele>51.20000076294</ele>
        <time>2015-07-27T18:20:54Z</time>
      </trkpt>
      <trkpt lat="48.85763" lon="2.34764">
        <ele>51</ele>
        <time>2015-07-27T18:20:55Z</time>
      </trkpt>
      <trkpt lat="48.85766" lon="2.34771">
        <ele>50</ele>
        <time>2015-07-27T18:21:01Z</time>
      </trkpt>
      <trkpt lat="48.8577" lon="2.34773">
        <ele>49.599998474121</ele>
        <time>2015-07-27T18:21:03Z</time>
      </trkpt>
      <trkpt lat="48.85787" lon="2.34784">
        <ele>48.20000076294</ele>
        <time>2015-07-27T18:21:10Z</time>
      </trkpt>
      <trkpt lat="48.85805" lon="2.34795">
        <ele>47.599998474121</ele>
        <time>2015-07-27T18:21:16Z</time>
      </trkpt>
      <trkpt lat="48.85824" lon="2.34808">
        <ele>47.20000076294</ele>
        <time>2015-07-27T18:21:22Z</time>
      </trkpt>
      <trkpt lat="48.85845" lon="2.34816">
        <ele>46.79999923706</ele>
        <time>2015-07-27T18:21:27Z</time>
      </trkpt>
      <trkpt lat="48.85854" lon="2.34819">
        <ele>46.400001525879</ele>
        <time>2015-07-27T18:21:29Z</time>
      </trkpt>
      <trkpt lat="48.85868" lon="2.34831">
        <ele>45.79999923706</ele>
        <time>2015-07-27T18:21:33Z</time>
      </trkpt>
      <trkpt lat="48.85893" lon="2.34848">
        <ele>45.400001525879</ele>
        <time>2015-07-27T18:21:40Z</time>
      </trkpt>
      <trkpt lat="48.85896" lon="2.34851">
        <ele>45.20000076294</ele>
        <time>2015-07-27T18:21:41Z</time>
      </trkpt>
      <trkpt lat="48.85899" lon="2.34854">
        <ele>45.20000076294</ele>
        <time>2015-07-27T18:21:42Z</time>
      </trkpt>
      <trkpt lat="48.85922" lon="2.34867">
        <ele>45</ele>
        <time>2015-07-27T18:21:48Z</time>
      </trkpt>
      <trkpt lat="48.8594" lon="2.34876">
        <ele>45.599998474121</ele>
        <time>2015-07-27T18:21:53Z</time>
      </trkpt>
      <trkpt lat="48.85958" lon="2.34882">
        <ele>46.20000076294</ele>
        <time>2015-07-27T18:21:58Z</time>
      </trkpt>
      <trkpt lat="48.85978" lon="2.34891">
        <ele>47</ele>
        <time>2015-07-27T18:22:03Z</time>
      </trkpt>
      <trkpt lat="48.85995" lon="2.34899">
        <ele>47.79999923706</ele>
        <time>2015-07-27T18:22:07Z</time>
      </trkpt>
      <trkpt lat="48.85999" lon="2.34901">
        <ele>48</ele>
        <time>2015-07-27T18:22:08Z</time>
      </trkpt>
      <trkpt lat="48.8601" lon="2.34907">
        <ele>48.20000076294</ele>
        <time>2015-07-27T18:22:11Z</time>
      </trkpt>
      <trkpt lat="48.86033" lon="2.34918">
        <ele>49.20000076294</ele>
        <time>2015-07-27T18:22:17Z</time>
      </trkpt>
      <trkpt lat="48.86045" lon="2.34926">
        <ele>50</ele>
        <time>2015-07-27T18:22:22Z</time>
      </trkpt>
      <trkpt lat="48.86061" lon="2.34933">
        <ele>50.79999923706</ele>
        <time>2015-07-27T18:22:28Z</time>
      </trkpt>
      <trkpt lat="48.86078" lon="2.34941">
        <ele>52</ele>
        <time>2015-07-27T18:22:33Z</time>
      </trkpt>
      <trkpt lat="48.86105" lon="2.34955">
        <ele>52.599998474121</ele>
        <time>2015-07-27T18:22:40Z</time>
      </trkpt>
      <trkpt lat="48.86122" lon="2.34964">
        <ele>53.599998474121</ele>
        <time>2015-07-27T18:22:44Z</time>
      </trkpt>
      <trkpt lat="48.86139" lon="2.34974">
        <ele>54.20000076294</ele>
        <time>2015-07-27T18:22:48Z</time>
      </trkpt>
      <trkpt lat="48.86156" lon="2.34983">
        <ele>54.599998474121</ele>
        <time>2015-07-27T18:22:52Z</time>
      </trkpt>
      <trkpt lat="48.86173" lon="2.34993">
        <ele>55</ele>
        <time>2015-07-27T18:22:56Z</time>
      </trkpt>
      <trkpt lat="48.86191" lon="2.35003">
        <ele>55.79999923706</ele>
        <time>2015-07-27T18:23:00Z</time>
      </trkpt>
      <trkpt lat="48.86205" lon="2.35011">
        <ele>56.400001525879</ele>
        <time>2015-07-27T18:23:04Z</time>
      </trkpt>
      <trkpt lat="48.86208" lon="2.35013">
        <ele>56.599998474121</ele>
        <time>2015-07-27T18:23:05Z</time>
      </trkpt>
      <trkpt lat="48.8622" lon="2.35021">
        <ele>56.79999923706</ele>
        <time>2015-07-27T18:23:08Z</time>
      </trkpt>
      <trkpt lat="48.86243" lon="2.35031">
        <ele>57.20000076294</ele>
        <time>2015-07-27T18:23:13Z</time>
      </trkpt>
      <trkpt lat="48.86256" lon="2.35038">
        <ele>57.20000076294</ele>
        <time>2015-07-27T18:23:16Z</time>
      </trkpt>
      <trkpt lat="48.86275" lon="2.35047">
        <ele>57.400001525879</ele>
        <time>2015-07-27T18:23:20Z</time>
      </trkpt>
      <trkpt lat="48.86294" lon="2.35058">
        <ele>57.400001525879</ele>
        <time>2015-07-27T18:23:24Z</time>
      </trkpt>
      <trkpt lat="48.86298" lon="2.3506">
        <ele>57.400001525879</ele>
        <time>2015-07-27T18:23:25Z</time>
      </trkpt>
      <trkpt lat="48.8632" lon="2.35074">
        <ele>57.400001525879</ele>
        <time>2015-07-27T18:23:29Z</time>
      </trkpt>
      <trkpt lat="48.86338" lon="2.35085">
        <ele>57.400001525879</ele>
        <time>2015-07-27T18:23:32Z</time>
      </trkpt>
      <trkpt lat="48.86344" lon="2.35088">
        <ele>57.400001525879</ele>
        <time>2015-07-27T18:23:33Z</time>
      </trkpt>
      <trkpt lat="48.8637" lon="2.35102">
        <ele>57.599998474121</ele>
        <time>2015-07-27T18:23:38Z</time>
      </trkpt>
      <trkpt lat="48.86391" lon="2.35113">
        <ele>57.599998474121</ele>
        <time>2015-07-27T18:23:42Z</time>
      </trkpt>
      <trkpt lat="48.86409" lon="2.35123">
        <ele>57.599998474121</ele>
        <time>2015-07-27T18:23:46Z</time>
      </trkpt>
      <trkpt lat="48.86427" lon="2.35131">
        <ele>57.599998474121</ele>
        <time>2015-07-27T18:23:49Z</time>
      </trkpt>
      <trkpt lat="48.86448" lon="2.35145">
        <ele>57.599998474121</ele>
        <time>2015-07-27T18:23:53Z</time>
      </trkpt>
      <trkpt lat="48.86467" lon="2.35157">
        <ele>57.599998474121</ele>
        <time>2015-07-27T18:23:57Z</time>
      </trkpt>
      <trkpt lat="48.86485" lon="2.35167">
        <ele>57.599998474121</ele>
        <time>2015-07-27T18:24:01Z</time>
      </trkpt>
      <trkpt lat="48.86505" lon="2.35177">
        <ele>57.599998474121</ele>
        <time>2015-07-27T18:24:05Z</time>
      </trkpt>
      <trkpt lat="48.86514" lon="2.35183">
        <ele>57.599998474121</ele>
        <time>2015-07-27T18:24:07Z</time>
      </trkpt>
      <trkpt lat="48.86525" lon="2.3519">
        <ele>57.599998474121</ele>
        <time>2015-07-27T18:24:09Z</time>
      </trkpt>
      <trkpt lat="48.86543" lon="2.35202">
        <ele>57.599998474121</ele>
        <time>2015-07-27T18:24:13Z</time>
      </trkpt>
      <trkpt lat="48.86561" lon="2.35211">
        <ele>57.599998474121</ele>
        <time>2015-07-27T18:24:17Z</time>
      </trkpt>
      <trkpt lat="48.86576" lon="2.3522">
        <ele>57.599998474121</ele>
        <time>2015-07-27T18:24:21Z</time>
      </trkpt>
      <trkpt lat="48.86584" lon="2.35222">
        <ele>57.599998474121</ele>
        <time>2015-07-27T18:24:23Z</time>
      </trkpt>
      <trkpt lat="48.86591" lon="2.35225">
        <ele>57.599998474121</ele>
        <time>2015-07-27T18:24:25Z</time>
      </trkpt>
      <trkpt lat="48.8661" lon="2.35239">
        <ele>57.599998474121</ele>
        <time>2015-07-27T18:24:32Z</time>
      </trkpt>
      <trkpt lat="48.86612" lon="2.35241">
        <ele>57.599998474121</ele>
        <time>2015-07-27T18:24:33Z</time>
      </trkpt>
      <trkpt lat="48.86617" lon="2.35252">
        <ele>57.599998474121</ele>
        <time>2015-07-27T18:24:37Z</time>
      </trkpt>
      <trkpt lat="48.86616" lon="2.35284">
        <ele>57.599998474121</ele>
        <time>2015-07-27T18:24:44Z</time>
      </trkpt>
      <trkpt lat="48.86611" lon="2.35313">
        <ele>57.599998474121</ele>
        <time>2015-07-27T18:24:49Z</time>
      </trkpt>
      <trkpt lat="48.86604" lon="2.35343">
        <ele>57.20000076294</ele>
        <time>2015-07-27T18:24:54Z</time>
      </trkpt>
      <trkpt lat="48.86604" lon="2.35355">
        <ele>56.599998474121</ele>
        <time>2015-07-27T18:24:58Z</time>
      </trkpt>
      <trkpt lat="48.86604" lon="2.35356">
        <ele>56.400001525879</ele>
        <time>2015-07-27T18:24:59Z</time>
      </trkpt>
      <trkpt lat="48.86604" lon="2.35361">
        <ele>55.400001525879</ele>
        <time>2015-07-27T18:25:04Z</time>
      </trkpt>
      <trkpt lat="48.86605" lon="2.35373">
        <ele>52</ele>
        <time>2015-07-27T18:25:26Z</time>
      </trkpt>
      <trkpt lat="48.86598" lon="2.35396">
        <ele>51.599998474121</ele>
        <time>2015-07-27T18:25:31Z</time>
      </trkpt>
      <trkpt lat="48.86592" lon="2.35428">
        <ele>51.400001525879</ele>
        <time>2015-07-27T18:25:37Z</time>
      </trkpt>
      <trkpt lat="48.86589" lon="2.35452">
        <ele>51.400001525879</ele>
        <time>2015-07-27T18:25:41Z</time>
      </trkpt>
      <trkpt lat="48.86583" lon="2.35489">
        <ele>51.400001525879</ele>
        <time>2015-07-27T18:25:47Z</time>
      </trkpt>
      <trkpt lat="48.86581" lon="2.35502">
        <ele>51.400001525879</ele>
        <time>2015-07-27T18:25:49Z</time>
      </trkpt>
      <trkpt lat="48.86579" lon="2.35514">
        <ele>51.400001525879</ele>
        <time>2015-07-27T18:25:51Z</time>
      </trkpt>
      <trkpt lat="48.86571" lon="2.35553">
        <ele>51.20000076294</ele>
        <time>2015-07-27T18:25:57Z</time>
      </trkpt>
      <trkpt lat="48.86569" lon="2.3556">
        <ele>51.20000076294</ele>
        <time>2015-07-27T18:25:58Z</time>
      </trkpt>
      <trkpt lat="48.86562" lon="2.35588">
        <ele>51.20000076294</ele>
        <time>2015-07-27T18:26:02Z</time>
      </trkpt>
      <trkpt lat="48.86555" lon="2.35616">
        <ele>51.20000076294</ele>
        <time>2015-07-27T18:26:06Z</time>
      </trkpt>
      <trkpt lat="48.8655" lon="2.35646">
        <ele>51.20000076294</ele>
        <time>2015-07-27T18:26:10Z</time>
      </trkpt>
      <trkpt lat="48.86542" lon="2.35673">
        <ele>51.20000076294</ele>
        <time>2015-07-27T18:26:14Z</time>
      </trkpt>
      <trkpt lat="48.86536" lon="2.35703">
        <ele>51.20000076294</ele>
        <time>2015-07-27T18:26:18Z</time>
      </trkpt>
      <trkpt lat="48.86532" lon="2.35734">
        <ele>51.20000076294</ele>
        <time>2015-07-27T18:26:22Z</time>
      </trkpt>
      <trkpt lat="48.86527" lon="2.35766">
        <ele>51.20000076294</ele>
        <time>2015-07-27T18:26:26Z</time>
      </trkpt>
      <trkpt lat="48.86519" lon="2.35799">
        <ele>51.20000076294</ele>
        <time>2015-07-27T18:26:30Z</time>
      </trkpt>
      <trkpt lat="48.86512" lon="2.35827">
        <ele>51.20000076294</ele>
        <time>2015-07-27T18:26:34Z</time>
      </trkpt>
      <trkpt lat="48.86509" lon="2.3584">
        <ele>51.20000076294</ele>
        <time>2015-07-27T18:26:36Z</time>
      </trkpt>
      <trkpt lat="48.865" lon="2.35873">
        <ele>51.20000076294</ele>
        <time>2015-07-27T18:26:41Z</time>
      </trkpt>
      <trkpt lat="48.86492" lon="2.35901">
        <ele>51.20000076294</ele>
        <time>2015-07-27T18:26:46Z</time>
      </trkpt>
      <trkpt lat="48.86491" lon="2.35906">
        <ele>51.20000076294</ele>
        <time>2015-07-27T18:26:47Z</time>
      </trkpt>
      <trkpt lat="48.86483" lon="2.35926">
        <ele>51.79999923706</ele>
        <time>2015-07-27T18:26:52Z</time>
      </trkpt>
      <trkpt lat="48.86481" lon="2.35936">
        <ele>52.20000076294</ele>
        <time>2015-07-27T18:26:55Z</time>
      </trkpt>
      <trkpt lat="48.86479" lon="2.3594">
        <ele>52.400001525879</ele>
        <time>2015-07-27T18:26:56Z</time>
      </trkpt>
      <trkpt lat="48.86477" lon="2.3595">
        <ele>52.400001525879</ele>
        <time>2015-07-27T18:26:58Z</time>
      </trkpt>
      <trkpt lat="48.86484" lon="2.35973">
        <ele>52.79999923706</ele>
        <time>2015-07-27T18:27:03Z</time>
      </trkpt>
      <trkpt lat="48.865" lon="2.35996">
        <ele>53</ele>
        <time>2015-07-27T18:27:07Z</time>
      </trkpt>
      <trkpt lat="48.86505" lon="2.36001">
        <ele>53</ele>
        <time>2015-07-27T18:27:08Z</time>
      </trkpt>
      <trkpt lat="48.86529" lon="2.36028">
        <ele>53.20000076294</ele>
        <time>2015-07-27T18:27:13Z</time>
      </trkpt>
      <trkpt lat="48.86548" lon="2.36048">
        <ele>53.20000076294</ele>
        <time>2015-07-27T18:27:17Z</time>
      </trkpt>
      <trkpt lat="48.86565" lon="2.36065">
        <ele>53.20000076294</ele>
        <time>2015-07-27T18:27:21Z</time>
      </trkpt>
      <trkpt lat="48.8657" lon="2.3607">
        <ele>53.20000076294</ele>
        <time>2015-07-27T18:27:22Z</time>
      </trkpt>
      <trkpt lat="48.8658" lon="2.36089">
        <ele>53.20000076294</ele>
        <time>2015-07-27T18:27:26Z</time>
      </trkpt>
      <trkpt lat="48.86573" lon="2.36105">
        <ele>53.20000076294</ele>
        <time>2015-07-27T18:27:29Z</time>
      </trkpt>
      <trkpt lat="48.86566" lon="2.36116">
        <ele>53.20000076294</ele>
        <time>2015-07-27T18:27:31Z</time>
      </trkpt>
      <trkpt lat="48.8656" lon="2.36128">
        <ele>53</ele>
        <time>2015-07-27T18:27:33Z</time>
      </trkpt>
      <trkpt lat="48.86548" lon="2.36148">
        <ele>52.400001525879</ele>
        <time>2015-07-27T18:27:37Z</time>
      </trkpt>
      <trkpt lat="48.86532" lon="2.3617">
        <ele>52</ele>
        <time>2015-07-27T18:27:42Z</time>
      </trkpt>
      <trkpt lat="48.8652" lon="2.36192">
        <ele>51.79999923706</ele>
        <time>2015-07-27T18:27:46Z</time>
      </trkpt>
      <trkpt lat="48.86517" lon="2.36198">
        <ele>51.79999923706</ele>
        <time>2015-07-27T18:27:47Z</time>
      </trkpt>
      <trkpt lat="48.86504" lon="2.36226">
        <ele>51.599998474121</ele>
        <time>2015-07-27T18:27:52Z</time>
      </trkpt>
      <trkpt lat="48.86502" lon="2.36232">
        <ele>51.400001525879</ele>
        <time>2015-07-27T18:27:53Z</time>
      </trkpt>
      <trkpt lat="48.86503" lon="2.36258">
        <ele>51.20000076294</ele>
        <time>2015-07-27T18:27:57Z</time>
      </trkpt>
      <trkpt lat="48.86508" lon="2.36278">
        <ele>50.599998474121</ele>
        <time>2015-07-27T18:28:00Z</time>
      </trkpt>
      <trkpt lat="48.8651" lon="2.36283">
        <ele>50.400001525879</ele>
        <time>2015-07-27T18:28:01Z</time>
      </trkpt>
      <trkpt lat="48.86511" lon="2.36288">
        <ele>50.400001525879</ele>
        <time>2015-07-27T18:28:02Z</time>
      </trkpt>
      <trkpt lat="48.86517" lon="2.36305">
        <ele>49.79999923706</ele>
        <time>2015-07-27T18:28:05Z</time>
      </trkpt>
      <trkpt lat="48.86525" lon="2.36339">
        <ele>48.400001525879</ele>
        <time>2015-07-27T18:28:12Z</time>
      </trkpt>
      <trkpt lat="48.86531" lon="2.36364">
        <ele>47.79999923706</ele>
        <time>2015-07-27T18:28:17Z</time>
      </trkpt>
      <trkpt lat="48.86537" lon="2.36384">
        <ele>47.400001525879</ele>
        <time>2015-07-27T18:28:21Z</time>
      </trkpt>
      <trkpt lat="48.86539" lon="2.36402">
        <ele>47.20000076294</ele>
        <time>2015-07-27T18:28:25Z</time>
      </trkpt>
      <trkpt lat="48.86539" lon="2.36405">
        <ele>47.20000076294</ele>
        <time>2015-07-27T18:28:26Z</time>
      </trkpt>
      <trkpt lat="48.86553" lon="2.36402">
        <ele>47.20000076294</ele>
        <time>2015-07-27T18:28:30Z</time>
      </trkpt>
      <trkpt lat="48.86557" lon="2.364">
        <ele>47.20000076294</ele>
        <time>2015-07-27T18:28:31Z</time>
      </trkpt>
      <trkpt lat="48.86575" lon="2.3639">
        <ele>47</ele>
        <time>2015-07-27T18:28:36Z</time>
      </trkpt>
      <trkpt lat="48.86594" lon="2.3638">
        <ele>47</ele>
        <time>2015-07-27T18:28:41Z</time>
      </trkpt>
      <trkpt lat="48.86614" lon="2.36368">
        <ele>47</ele>
        <time>2015-07-27T18:28:46Z</time>
      </trkpt>
      <trkpt lat="48.86631" lon="2.36356">
        <ele>47</ele>
        <time>2015-07-27T18:28:51Z</time>
      </trkpt>
      <trkpt lat="48.8665" lon="2.36341">
        <ele>47</ele>
        <time>2015-07-27T18:28:57Z</time>
      </trkpt>
      <trkpt lat="48.86666" lon="2.36328">
        <ele>47</ele>
        <time>2015-07-27T18:29:02Z</time>
      </trkpt>
      <trkpt lat="48.86684" lon="2.36316">
        <ele>47.599998474121</ele>
        <time>2015-07-27T18:29:08Z</time>
      </trkpt>
      <trkpt lat="48.86695" lon="2.3631">
        <ele>48.20000076294</ele>
        <time>2015-07-27T18:29:13Z</time>
      </trkpt>
      <trkpt lat="48.86697" lon="2.36309">
        <ele>48.400001525879</ele>
        <time>2015-07-27T18:29:14Z</time>
      </trkpt>
      <trkpt lat="48.86706" lon="2.36319">
        <ele>48.599998474121</ele>
        <time>2015-07-27T18:29:18Z</time>
      </trkpt>
      <trkpt lat="48.86708" lon="2.36322">
        <ele>48.599998474121</ele>
        <time>2015-07-27T18:29:19Z</time>
      </trkpt>
      <trkpt lat="48.86714" lon="2.36335">
        <ele>48.79999923706</ele>
        <time>2015-07-27T18:29:23Z</time>
      </trkpt>
      <trkpt lat="48.86721" lon="2.36339">
        <ele>49</ele>
        <time>2015-07-27T18:29:31Z</time>
      </trkpt>
      <trkpt lat="48.86731" lon="2.36355">
        <ele>49</ele>
        <time>2015-07-27T18:29:36Z</time>
      </trkpt>
      <trkpt lat="48.86738" lon="2.36369">
        <ele>49</ele>
        <time>2015-07-27T18:29:40Z</time>
      </trkpt>
      <trkpt lat="48.8674" lon="2.36386">
        <ele>49</ele>
        <time>2015-07-27T18:29:45Z</time>
      </trkpt>
      <trkpt lat="48.86741" lon="2.36393">
        <ele>49</ele>
        <time>2015-07-27T18:29:47Z</time>
      </trkpt>
      <trkpt lat="48.86735" lon="2.36403">
        <ele>49</ele>
        <time>2015-07-27T18:29:52Z</time>
      </trkpt>
      <trkpt lat="48.8673" lon="2.3641">
        <ele>49</ele>
        <time>2015-07-27T18:29:55Z</time>
      </trkpt>
      <trkpt lat="48.86724" lon="2.36426">
        <ele>49</ele>
        <time>2015-07-27T18:30:00Z</time>
      </trkpt>
      <trkpt lat="48.86721" lon="2.36438">
        <ele>48.599998474121</ele>
        <time>2015-07-27T18:30:03Z</time>
      </trkpt>
      <trkpt lat="48.86715" lon="2.36461">
        <ele>47.79999923706</ele>
        <time>2015-07-27T18:30:09Z</time>
      </trkpt>
      <trkpt lat="48.86714" lon="2.3648">
        <ele>47.599998474121</ele>
        <time>2015-07-27T18:30:13Z</time>
      </trkpt>
      <trkpt lat="48.86713" lon="2.36484">
        <ele>47.400001525879</ele>
        <time>2015-07-27T18:30:14Z</time>
      </trkpt>
      <trkpt lat="48.86703" lon="2.36507">
        <ele>46.400001525879</ele>
        <time>2015-07-27T18:30:20Z</time>
      </trkpt>
      <trkpt lat="48.867" lon="2.36514">
        <ele>46.20000076294</ele>
        <time>2015-07-27T18:30:22Z</time>
      </trkpt>
      <trkpt lat="48.86694" lon="2.36531">
        <ele>45.79999923706</ele>
        <time>2015-07-27T18:30:27Z</time>
      </trkpt>
      <trkpt lat="48.86693" lon="2.36543">
        <ele>45.400001525879</ele>
        <time>2015-07-27T18:30:31Z</time>
      </trkpt>
      <trkpt lat="48.86692" lon="2.36577">
        <ele>45.20000076294</ele>
        <time>2015-07-27T18:30:39Z</time>
      </trkpt>
      <trkpt lat="48.86687" lon="2.36614">
        <ele>45.20000076294</ele>
        <time>2015-07-27T18:30:45Z</time>
      </trkpt>
      <trkpt lat="48.86686" lon="2.3662">
        <ele>45.20000076294</ele>
        <time>2015-07-27T18:30:46Z</time>
      </trkpt>
      <trkpt lat="48.86681" lon="2.3664">
        <ele>45.20000076294</ele>
        <time>2015-07-27T18:30:49Z</time>
      </trkpt>
      <trkpt lat="48.86675" lon="2.36674">
        <ele>45</ele>
        <time>2015-07-27T18:30:54Z</time>
      </trkpt>
      <trkpt lat="48.86675" lon="2.36696">
        <ele>45</ele>
        <time>2015-07-27T18:30:57Z</time>
      </trkpt>
      <trkpt lat="48.86669" lon="2.36733">
        <ele>45</ele>
        <time>2015-07-27T18:31:02Z</time>
      </trkpt>
      <trkpt lat="48.86667" lon="2.36741">
        <ele>45</ele>
        <time>2015-07-27T18:31:03Z</time>
      </trkpt>
      <trkpt lat="48.86661" lon="2.36775">
        <ele>45</ele>
        <time>2015-07-27T18:31:07Z</time>
      </trkpt>
      <trkpt lat="48.86657" lon="2.36793">
        <ele>45</ele>
        <time>2015-07-27T18:31:09Z</time>
      </trkpt>
      <trkpt lat="48.86654" lon="2.3681">
        <ele>45</ele>
        <time>2015-07-27T18:31:11Z</time>
      </trkpt>
      <trkpt lat="48.86648" lon="2.36837">
        <ele>45</ele>
        <time>2015-07-27T18:31:14Z</time>
      </trkpt>
      <trkpt lat="48.86642" lon="2.36874">
        <ele>45.599998474121</ele>
        <time>2015-07-27T18:31:18Z</time>
      </trkpt>
      <trkpt lat="48.86634" lon="2.36905">
        <ele>46</ele>
        <time>2015-07-27T18:31:22Z</time>
      </trkpt>
      <trkpt lat="48.86629" lon="2.36934">
        <ele>46.400001525879</ele>
        <time>2015-07-27T18:31:26Z</time>
      </trkpt>
      <trkpt lat="48.86627" lon="2.36942">
        <ele>46.400001525879</ele>
        <time>2015-07-27T18:31:27Z</time>
      </trkpt>
      <trkpt lat="48.8662" lon="2.3698">
        <ele>46.79999923706</ele>
        <time>2015-07-27T18:31:32Z</time>
      </trkpt>
      <trkpt lat="48.86613" lon="2.37016">
        <ele>46.79999923706</ele>
        <time>2015-07-27T18:31:37Z</time>
      </trkpt>
      <trkpt lat="48.86607" lon="2.37045">
        <ele>46.79999923706</ele>
        <time>2015-07-27T18:31:41Z</time>
      </trkpt>
      <trkpt lat="48.86613" lon="2.371">
        <ele>47</ele>
        <time>2015-07-27T18:31:50Z</time>
      </trkpt>
      <trkpt lat="48.8662" lon="2.37123">
        <ele>47</ele>
        <time>2015-07-27T18:31:54Z</time>
      </trkpt>
      <trkpt lat="48.86622" lon="2.37133">
        <ele>47</ele>
        <time>2015-07-27T18:31:56Z</time>
      </trkpt>
      <trkpt lat="48.86626" lon="2.37147">
        <ele>47</ele>
        <time>2015-07-27T18:31:58Z</time>
      </trkpt>
      <trkpt lat="48.86631" lon="2.37164">
        <ele>47</ele>
        <time>2015-07-27T18:32:01Z</time>
      </trkpt>
      <trkpt lat="48.86641" lon="2.37183">
        <ele>47</ele>
        <time>2015-07-27T18:32:06Z</time>
      </trkpt>
      <trkpt lat="48.86646" lon="2.37203">
        <ele>47</ele>
        <time>2015-07-27T18:32:11Z</time>
      </trkpt>
      <trkpt lat="48.86647" lon="2.37207">
        <ele>47</ele>
        <time>2015-07-27T18:32:12Z</time>
      </trkpt>
      <trkpt lat="48.86654" lon="2.37233">
        <ele>47</ele>
        <time>2015-07-27T18:32:18Z</time>
      </trkpt>
      <trkpt lat="48.86655" lon="2.37238">
        <ele>47</ele>
        <time>2015-07-27T18:32:19Z</time>
      </trkpt>
      <trkpt lat="48.86661" lon="2.37256">
        <ele>47</ele>
        <time>2015-07-27T18:32:22Z</time>
      </trkpt>
      <trkpt lat="48.86666" lon="2.37275">
        <ele>47</ele>
        <time>2015-07-27T18:32:26Z</time>
      </trkpt>
      <trkpt lat="48.86673" lon="2.37299">
        <ele>47</ele>
        <time>2015-07-27T18:32:31Z</time>
      </trkpt>
      <trkpt lat="48.86679" lon="2.37315">
        <ele>47</ele>
        <time>2015-07-27T18:32:36Z</time>
      </trkpt>
      <trkpt lat="48.86686" lon="2.37331">
        <ele>47</ele>
        <time>2015-07-27T18:32:41Z</time>
      </trkpt>
      <trkpt lat="48.86686" lon="2.37335">
        <ele>47</ele>
        <time>2015-07-27T18:32:42Z</time>
      </trkpt>
      <trkpt lat="48.86674" lon="2.37351">
        <ele>47</ele>
        <time>2015-07-27T18:32:46Z</time>
      </trkpt>
      <trkpt lat="48.86669" lon="2.37371">
        <ele>47</ele>
        <time>2015-07-27T18:32:50Z</time>
      </trkpt>
      <trkpt lat="48.86672" lon="2.37385">
        <ele>47</ele>
        <time>2015-07-27T18:32:52Z</time>
      </trkpt>
      <trkpt lat="48.86676" lon="2.37397">
        <ele>47</ele>
        <time>2015-07-27T18:32:54Z</time>
      </trkpt>
      <trkpt lat="48.86683" lon="2.37421">
        <ele>47</ele>
        <time>2015-07-27T18:32:58Z</time>
      </trkpt>
      <trkpt lat="48.86692" lon="2.3746">
        <ele>47</ele>
        <time>2015-07-27T18:33:04Z</time>
      </trkpt>
      <trkpt lat="48.86697" lon="2.37479">
        <ele>47</ele>
        <time>2015-07-27T18:33:07Z</time>
      </trkpt>
      <trkpt lat="48.86701" lon="2.37491">
        <ele>47</ele>
        <time>2015-07-27T18:33:09Z</time>
      </trkpt>
      <trkpt lat="48.86707" lon="2.37517">
        <ele>47</ele>
        <time>2015-07-27T18:33:14Z</time>
      </trkpt>
      <trkpt lat="48.86711" lon="2.37541">
        <ele>47</ele>
        <time>2015-07-27T18:33:19Z</time>
      </trkpt>
      <trkpt lat="48.86715" lon="2.37563">
        <ele>47</ele>
        <time>2015-07-27T18:33:23Z</time>
      </trkpt>
      <trkpt lat="48.86719" lon="2.37578">
        <ele>47</ele>
        <time>2015-07-27T18:33:26Z</time>
      </trkpt>
      <trkpt lat="48.86728" lon="2.37599">
        <ele>47</ele>
        <time>2015-07-27T18:33:30Z</time>
      </trkpt>
      <trkpt lat="48.86737" lon="2.37631">
        <ele>47</ele>
        <time>2015-07-27T18:33:35Z</time>
      </trkpt>
      <trkpt lat="48.8674" lon="2.37645">
        <ele>47</ele>
        <time>2015-07-27T18:33:37Z</time>
      </trkpt>
      <trkpt lat="48.86748" lon="2.3768">
        <ele>47</ele>
        <time>2015-07-27T18:33:42Z</time>
      </trkpt>
      <trkpt lat="48.8675" lon="2.37687">
        <ele>47</ele>
        <time>2015-07-27T18:33:43Z</time>
      </trkpt>
      <trkpt lat="48.86752" lon="2.37702">
        <ele>47</ele>
        <time>2015-07-27T18:33:45Z</time>
      </trkpt>
      <trkpt lat="48.8676" lon="2.37727">
        <ele>47</ele>
        <time>2015-07-27T18:33:49Z</time>
      </trkpt>
      <trkpt lat="48.86773" lon="2.37746">
        <ele>47</ele>
        <time>2015-07-27T18:33:54Z</time>
      </trkpt>
      <trkpt lat="48.86774" lon="2.37751">
        <ele>47</ele>
        <time>2015-07-27T18:33:55Z</time>
      </trkpt>
      <trkpt lat="48.86784" lon="2.37778">
        <ele>47</ele>
        <time>2015-07-27T18:34:01Z</time>
      </trkpt>
      <trkpt lat="48.8679" lon="2.37805">
        <ele>47</ele>
        <time>2015-07-27T18:34:06Z</time>
      </trkpt>
      <trkpt lat="48.86794" lon="2.37828">
        <ele>47.79999923706</ele>
        <time>2015-07-27T18:34:11Z</time>
      </trkpt>
      <trkpt lat="48.86794" lon="2.37832">
        <ele>47.79999923706</ele>
        <time>2015-07-27T18:34:12Z</time>
      </trkpt>
      <trkpt lat="48.86804" lon="2.37853">
        <ele>48.400001525879</ele>
        <time>2015-07-27T18:34:17Z</time>
      </trkpt>
      <trkpt lat="48.86805" lon="2.37858">
        <ele>48.599998474121</ele>
        <time>2015-07-27T18:34:18Z</time>
      </trkpt>
      <trkpt lat="48.86811" lon="2.37884">
        <ele>49.79999923706</ele>
        <time>2015-07-27T18:34:23Z</time>
      </trkpt>
      <trkpt lat="48.86817" lon="2.37908">
        <ele>50.400001525879</ele>
        <time>2015-07-27T18:34:28Z</time>
      </trkpt>
      <trkpt lat="48.86828" lon="2.37936">
        <ele>51.79999923706</ele>
        <time>2015-07-27T18:34:34Z</time>
      </trkpt>
      <trkpt lat="48.86842" lon="2.37961">
        <ele>52.400001525879</ele>
        <time>2015-07-27T18:34:40Z</time>
      </trkpt>
      <trkpt lat="48.86844" lon="2.37966">
        <ele>52.599998474121</ele>
        <time>2015-07-27T18:34:41Z</time>
      </trkpt>
      <trkpt lat="48.8686" lon="2.37997">
        <ele>53.79999923706</ele>
        <time>2015-07-27T18:34:49Z</time>
      </trkpt>
      <trkpt lat="48.8687" lon="2.38016">
        <ele>54.599998474121</ele>
        <time>2015-07-27T18:34:54Z</time>
      </trkpt>
      <trkpt lat="48.86879" lon="2.38033">
        <ele>55</ele>
        <time>2015-07-27T18:34:59Z</time>
      </trkpt>
      <trkpt lat="48.86884" lon="2.38043">
        <ele>55.20000076294</ele>
        <time>2015-07-27T18:35:03Z</time>
      </trkpt>
      <trkpt lat="48.86885" lon="2.38044">
        <ele>55.400001525879</ele>
        <time>2015-07-27T18:35:04Z</time>
      </trkpt>
      <trkpt lat="48.86887" lon="2.38047">
        <ele>56.400001525879</ele>
        <time>2015-07-27T18:35:09Z</time>
      </trkpt>
      <trkpt lat="48.86889" lon="2.38055">
        <ele>57</ele>
        <time>2015-07-27T18:35:15Z</time>
      </trkpt>
      <trkpt lat="48.86895" lon="2.38068">
        <ele>57.20000076294</ele>
        <time>2015-07-27T18:35:19Z</time>
      </trkpt>
      <trkpt lat="48.86899" lon="2.38079">
        <ele>57.599998474121</ele>
        <time>2015-07-27T18:35:22Z</time>
      </trkpt>
      <trkpt lat="48.86913" lon="2.38094">
        <ele>58.79999923706</ele>
        <time>2015-07-27T18:35:29Z</time>
      </trkpt>
      <trkpt lat="48.86923" lon="2.38111">
        <ele>59</ele>
        <time>2015-07-27T18:35:34Z</time>
      </trkpt>
      <trkpt lat="48.86931" lon="2.38131">
        <ele>59.400001525879</ele>
        <time>2015-07-27T18:35:39Z</time>
      </trkpt>
      <trkpt lat="48.86939" lon="2.38147">
        <ele>59.400001525879</ele>
        <time>2015-07-27T18:35:43Z</time>
      </trkpt>
      <trkpt lat="48.86949" lon="2.38174">
        <ele>59.599998474121</ele>
        <time>2015-07-27T18:35:47Z</time>
      </trkpt>
      <trkpt lat="48.86958" lon="2.38196">
        <ele>59.599998474121</ele>
        <time>2015-07-27T18:35:51Z</time>
      </trkpt>
      <trkpt lat="48.86964" lon="2.38211">
        <ele>59.599998474121</ele>
        <time>2015-07-27T18:35:54Z</time>
      </trkpt>
      <trkpt lat="48.86973" lon="2.38241">
        <ele>60</ele>
        <time>2015-07-27T18:35:59Z</time>
      </trkpt>
      <trkpt lat="48.86982" lon="2.38264">
        <ele>60.599998474121</ele>
        <time>2015-07-27T18:36:03Z</time>
      </trkpt>
      <trkpt lat="48.86988" lon="2.38284">
        <ele>61</ele>
        <time>2015-07-27T18:36:07Z</time>
      </trkpt>
      <trkpt lat="48.86999" lon="2.38317">
        <ele>61.400001525879</ele>
        <time>2015-07-27T18:36:14Z</time>
      </trkpt>
      <trkpt lat="48.87003" lon="2.38348">
        <ele>62.20000076294</ele>
        <time>2015-07-27T18:36:20Z</time>
      </trkpt>
      <trkpt lat="48.87009" lon="2.38375">
        <ele>62.79999923706</ele>
        <time>2015-07-27T18:36:24Z</time>
      </trkpt>
      <trkpt lat="48.87012" lon="2.38388">
        <ele>63</ele>
        <time>2015-07-27T18:36:26Z</time>
      </trkpt>
      <trkpt lat="48.87014" lon="2.38401">
        <ele>63.20000076294</ele>
        <time>2015-07-27T18:36:28Z</time>
      </trkpt>
      <trkpt lat="48.87015" lon="2.38407">
        <ele>63.599998474121</ele>
        <time>2015-07-27T18:36:29Z</time>
      </trkpt>
      <trkpt lat="48.87017" lon="2.3842">
        <ele>64</ele>
        <time>2015-07-27T18:36:31Z</time>
      </trkpt>
      <trkpt lat="48.87018" lon="2.38442">
        <ele>64.599998474121</ele>
        <time>2015-07-27T18:36:35Z</time>
      </trkpt>
      <trkpt lat="48.87018" lon="2.38445">
        <ele>64.800003051758</ele>
        <time>2015-07-27T18:36:36Z</time>
      </trkpt>
      <trkpt lat="48.87017" lon="2.38456">
        <ele>65.800003051758</ele>
        <time>2015-07-27T18:36:40Z</time>
      </trkpt>
      <trkpt lat="48.87016" lon="2.38458">
        <ele>66.800003051758</ele>
        <time>2015-07-27T18:36:47Z</time>
      </trkpt>
      <trkpt lat="48.87018" lon="2.38456">
        <ele>68.199996948242</ele>
        <time>2015-07-27T18:36:54Z</time>
      </trkpt>
      <trkpt lat="48.87021" lon="2.38453">
        <ele>69</ele>
        <time>2015-07-27T18:36:59Z</time>
      </trkpt>
      <trkpt lat="48.87021" lon="2.3845">
        <ele>69.199996948242</ele>
        <time>2015-07-27T18:37:01Z</time>
      </trkpt>
      <trkpt lat="48.87024" lon="2.38435">
        <ele>69.400001525879</ele>
        <time>2015-07-27T18:37:05Z</time>
      </trkpt>
      <trkpt lat="48.87037" lon="2.38422">
        <ele>70.199996948242</ele>
        <time>2015-07-27T18:37:09Z</time>
      </trkpt>
      <trkpt lat="48.8704" lon="2.3842">
        <ele>70.400001525879</ele>
        <time>2015-07-27T18:37:10Z</time>
      </trkpt>
      <trkpt lat="48.87044" lon="2.38416">
        <ele>70.800003051758</ele>
        <time>2015-07-27T18:37:12Z</time>
      </trkpt>
      <trkpt lat="48.87051" lon="2.3841">
        <ele>71.199996948242</ele>
        <time>2015-07-27T18:37:16Z</time>
      </trkpt>
      <trkpt lat="48.87057" lon="2.38396">
        <ele>71.599998474121</ele>
        <time>2015-07-27T18:37:21Z</time>
      </trkpt>
      <trkpt lat="48.87062" lon="2.3839">
        <ele>71.800003051758</ele>
        <time>2015-07-27T18:37:25Z</time>
      </trkpt>
      <trkpt lat="48.87073" lon="2.38374">
        <ele>72</ele>
        <time>2015-07-27T18:37:31Z</time>
      </trkpt>
      <trkpt lat="48.87082" lon="2.38356">
        <ele>72</ele>
        <time>2015-07-27T18:37:37Z</time>
      </trkpt>
      <trkpt lat="48.87088" lon="2.38344">
        <ele>72</ele>
        <time>2015-07-27T18:37:42Z</time>
      </trkpt>
      <trkpt lat="48.87092" lon="2.38342">
        <ele>72</ele>
        <time>2015-07-27T18:37:46Z</time>
      </trkpt>
      <trkpt lat="48.87095" lon="2.38347">
        <ele>72</ele>
        <time>2015-07-27T18:37:53Z</time>
      </trkpt>
      <trkpt lat="48.87094" lon="2.38361">
        <ele>72.199996948242</ele>
        <time>2015-07-27T18:37:58Z</time>
      </trkpt>
      <trkpt lat="48.87095" lon="2.38364">
        <ele>72.199996948242</ele>
        <time>2015-07-27T18:37:59Z</time>
      </trkpt>
      <trkpt lat="48.87096" lon="2.38364">
        <ele>72.199996948242</ele>
        <time>2015-07-27T18:38:00Z</time>
      </trkpt>
      <trkpt lat="48.87102" lon="2.38362">
        <ele>72.199996948242</ele>
        <time>2015-07-27T18:38:07Z</time>
      </trkpt>
      <trkpt lat="48.87106" lon="2.3836">
        <ele>72.199996948242</ele>
        <time>2015-07-27T18:38:11Z</time>
      </trkpt>
      <trkpt lat="48.87111" lon="2.38366">
        <ele>72.199996948242</ele>
        <time>2015-07-27T18:38:16Z</time>
      </trkpt>
      <trkpt lat="48.87111" lon="2.38368">
        <ele>72.199996948242</ele>
        <time>2015-07-27T18:38:17Z</time>
      </trkpt>
      <trkpt lat="48.87116" lon="2.38378">
        <ele>72.199996948242</ele>
        <time>2015-07-27T18:38:24Z</time>
      </trkpt>
      <trkpt lat="48.87117" lon="2.38378">
        <ele>72.199996948242</ele>
        <time>2015-07-27T18:38:25Z</time>
      </trkpt>
      <trkpt lat="48.87118" lon="2.38381">
        <ele>72.199996948242</ele>
        <time>2015-07-27T18:38:30Z</time>
      </trkpt>
      <trkpt lat="48.8712" lon="2.3839">
        <ele>72.199996948242</ele>
        <time>2015-07-27T18:38:38Z</time>
      </trkpt>
      <trkpt lat="48.87122" lon="2.38394">
        <ele>72.199996948242</ele>
        <time>2015-07-27T18:38:41Z</time>
      </trkpt>
      <trkpt lat="48.87124" lon="2.38396">
        <ele>72.199996948242</ele>
        <time>2015-07-27T18:38:44Z</time>
      </trkpt>
      <trkpt lat="48.87126" lon="2.38403">
        <ele>72.199996948242</ele>
        <time>2015-07-27T18:38:49Z</time>
      </trkpt>
      <trkpt lat="48.87126" lon="2.38404">
        <ele>72.199996948242</ele>
        <time>2015-07-27T18:38:50Z</time>
      </trkpt>
      <trkpt lat="48.87129" lon="2.38407">
        <ele>72.199996948242</ele>
        <time>2015-07-27T18:38:56Z</time>
      </trkpt>
      <trkpt lat="48.87131" lon="2.38411">
        <ele>72.199996948242</ele>
        <time>2015-07-27T18:39:00Z</time>
      </trkpt>
      <trkpt lat="48.87134" lon="2.38416">
        <ele>72.199996948242</ele>
        <time>2015-07-27T18:39:07Z</time>
      </trkpt>
      <trkpt lat="48.87137" lon="2.3842">
        <ele>72.199996948242</ele>
        <time>2015-07-27T18:39:13Z</time>
      </trkpt>
      <trkpt lat="48.87137" lon="2.38428">
        <ele>72.599998474121</ele>
        <time>2015-07-27T18:39:18Z</time>
      </trkpt>
      <trkpt lat="48.87138" lon="2.38441">
        <ele>73.199996948242</ele>
        <time>2015-07-27T18:39:24Z</time>
      </trkpt>
      <trkpt lat="48.8714" lon="2.38446">
        <ele>73.800003051758</ele>
        <time>2015-07-27T18:39:28Z</time>
      </trkpt>
      <trkpt lat="48.87139" lon="2.38472">
        <ele>77</ele>
        <time>2015-07-27T18:39:46Z</time>
      </trkpt>
      <trkpt lat="48.87134" lon="2.38492">
        <ele>77.800003051758</ele>
        <time>2015-07-27T18:39:53Z</time>
      </trkpt>
      <trkpt lat="48.87131" lon="2.385">
        <ele>78.599998474121</ele>
        <time>2015-07-27T18:39:56Z</time>
      </trkpt>
      <trkpt lat="48.8713" lon="2.38524">
        <ele>79.400001525879</ele>
        <time>2015-07-27T18:40:02Z</time>
      </trkpt>
      <trkpt lat="48.87125" lon="2.38547">
        <ele>80.400001525879</ele>
        <time>2015-07-27T18:40:08Z</time>
      </trkpt>
      <trkpt lat="48.87124" lon="2.3855">
        <ele>80.599998474121</ele>
        <time>2015-07-27T18:40:09Z</time>
      </trkpt>
      <trkpt lat="48.87125" lon="2.38555">
        <ele>81.400001525879</ele>
        <time>2015-07-27T18:40:14Z</time>
      </trkpt>
      <trkpt lat="48.87127" lon="2.38556">
        <ele>82.800003051758</ele>
        <time>2015-07-27T18:40:22Z</time>
      </trkpt>
      <trkpt lat="48.87129" lon="2.38558">
        <ele>83.599998474121</ele>
        <time>2015-07-27T18:40:28Z</time>
      </trkpt>
      <trkpt lat="48.87134" lon="2.38563">
        <ele>84.199996948242</ele>
        <time>2015-07-27T18:40:33Z</time>
      </trkpt>
      <trkpt lat="48.87135" lon="2.38563">
        <ele>84.199996948242</ele>
        <time>2015-07-27T18:40:34Z</time>
      </trkpt>
      <trkpt lat="48.87142" lon="2.38559">
        <ele>86</ele>
        <time>2015-07-27T18:40:47Z</time>
      </trkpt>
      <trkpt lat="48.87144" lon="2.38558">
        <ele>86.199996948242</ele>
        <time>2015-07-27T18:40:49Z</time>
      </trkpt>
      <trkpt lat="48.87148" lon="2.38552">
        <ele>87</ele>
        <time>2015-07-27T18:40:54Z</time>
      </trkpt>
      <trkpt lat="48.87152" lon="2.38544">
        <ele>87.800003051758</ele>
        <time>2015-07-27T18:40:59Z</time>
      </trkpt>
      <trkpt lat="48.87154" lon="2.38525">
        <ele>88.199996948242</ele>
        <time>2015-07-27T18:41:05Z</time>
      </trkpt>
      <trkpt lat="48.87154" lon="2.38522">
        <ele>88.400001525879</ele>
        <time>2015-07-27T18:41:06Z</time>
      </trkpt>
      <trkpt lat="48.87157" lon="2.38506">
        <ele>88.599998474121</ele>
        <time>2015-07-27T18:41:11Z</time>
      </trkpt>
      <trkpt lat="48.87158" lon="2.385">
        <ele>88.800003051758</ele>
        <time>2015-07-27T18:41:13Z</time>
      </trkpt>
      <trkpt lat="48.87159" lon="2.38497">
        <ele>89.599998474121</ele>
        <time>2015-07-27T18:41:18Z</time>
      </trkpt>
      <trkpt lat="48.8716" lon="2.38498">
        <ele>91.400001525879</ele>
        <time>2015-07-27T18:41:48Z</time>
      </trkpt>
      <trkpt lat="48.87162" lon="2.38497">
        <ele>92.199996948242</ele>
        <time>2015-07-27T18:41:55Z</time>
      </trkpt>
      <trkpt lat="48.87162" lon="2.38497">
        <ele>92.599998474121</ele>
        <time>2015-07-27T18:42:02Z</time>
      </trkpt>
      <trkpt lat="48.8716" lon="2.38503">
        <ele>93.800003051758</ele>
        <time>2015-07-27T18:42:15Z</time>
      </trkpt>
      <trkpt lat="48.87159" lon="2.38506">
        <ele>94.199996948242</ele>
        <time>2015-07-27T18:42:20Z</time>
      </trkpt>
      <trkpt lat="48.8716" lon="2.38506">
        <ele>94.599998474121</ele>
        <time>2015-07-27T18:42:26Z</time>
      </trkpt>
      <trkpt lat="48.8716" lon="2.38505">
        <ele>94.800003051758</ele>
        <time>2015-07-27T18:42:37Z</time>
      </trkpt>
      <trkpt lat="48.87161" lon="2.38507">
        <ele>94.800003051758</ele>
        <time>2015-07-27T18:42:45Z</time>
      </trkpt>
      <trkpt lat="48.8716" lon="2.38502">
        <ele>94.800003051758</ele>
        <time>2015-07-27T18:42:52Z</time>
      </trkpt>
      <trkpt lat="48.87159" lon="2.38501">
        <ele>94.800003051758</ele>
        <time>2015-07-27T18:43:03Z</time>
      </trkpt>
      <trkpt lat="48.8716" lon="2.38499">
        <ele>94.800003051758</ele>
        <time>2015-07-27T18:44:42Z</time>
      </trkpt>
      <trkpt lat="48.8716" lon="2.38502">
        <ele>94.800003051758</ele>
        <time>2015-07-27T18:44:46Z</time>
      </trkpt>
      <trkpt lat="48.87161" lon="2.38506">
        <ele>94.800003051758</ele>
        <time>2015-07-27T18:44:48Z</time>
      </trkpt>
      <trkpt lat="48.87164" lon="2.38522">
        <ele>94.800003051758</ele>
        <time>2015-07-27T18:44:54Z</time>
      </trkpt>
      <trkpt lat="48.87164" lon="2.38525">
        <ele>94.800003051758</ele>
        <time>2015-07-27T18:44:55Z</time>
      </trkpt>
      <trkpt lat="48.87164" lon="2.38533">
        <ele>94.800003051758</ele>
        <time>2015-07-27T18:44:58Z</time>
      </trkpt>
      <trkpt lat="48.8716" lon="2.38544">
        <ele>94.800003051758</ele>
        <time>2015-07-27T18:45:02Z</time>
      </trkpt>
      <trkpt lat="48.87148" lon="2.38569">
        <ele>94.800003051758</ele>
        <time>2015-07-27T18:45:09Z</time>
      </trkpt>
      <trkpt lat="48.87147" lon="2.38594">
        <ele>94.800003051758</ele>
        <time>2015-07-27T18:45:14Z</time>
      </trkpt>
      <trkpt lat="48.87149" lon="2.38597">
        <ele>94.800003051758</ele>
        <time>2015-07-27T18:45:15Z</time>
      </trkpt>
      <trkpt lat="48.87157" lon="2.38603">
        <ele>94.800003051758</ele>
        <time>2015-07-27T18:45:18Z</time>
      </trkpt>
      <trkpt lat="48.87161" lon="2.38612">
        <ele>94.800003051758</ele>
        <time>2015-07-27T18:45:20Z</time>
      </trkpt>
      <trkpt lat="48.87174" lon="2.38639">
        <ele>94.800003051758</ele>
        <time>2015-07-27T18:45:26Z</time>
      </trkpt>
      <trkpt lat="48.87186" lon="2.38661">
        <ele>94.800003051758</ele>
        <time>2015-07-27T18:45:31Z</time>
      </trkpt>
      <trkpt lat="48.87196" lon="2.38689">
        <ele>94.800003051758</ele>
        <time>2015-07-27T18:45:36Z</time>
      </trkpt>
      <trkpt lat="48.87207" lon="2.38711">
        <ele>94.199996948242</ele>
        <time>2015-07-27T18:45:40Z</time>
      </trkpt>
      <trkpt lat="48.87209" lon="2.38716">
        <ele>94</ele>
        <time>2015-07-27T18:45:41Z</time>
      </trkpt>
      <trkpt lat="48.87227" lon="2.38764">
        <ele>93.199996948242</ele>
        <time>2015-07-27T18:45:50Z</time>
      </trkpt>
      <trkpt lat="48.87232" lon="2.38791">
        <ele>93</ele>
        <time>2015-07-27T18:45:54Z</time>
      </trkpt>
      <trkpt lat="48.87234" lon="2.38798">
        <ele>93</ele>
        <time>2015-07-27T18:45:55Z</time>
      </trkpt>
      <trkpt lat="48.87242" lon="2.38838">
        <ele>93</ele>
        <time>2015-07-27T18:46:00Z</time>
      </trkpt>
      <trkpt lat="48.87251" lon="2.38863">
        <ele>93</ele>
        <time>2015-07-27T18:46:03Z</time>
      </trkpt>
      <trkpt lat="48.87254" lon="2.3887">
        <ele>92.800003051758</ele>
        <time>2015-07-27T18:46:04Z</time>
      </trkpt>
      <trkpt lat="48.87271" lon="2.38902">
        <ele>92.400001525879</ele>
        <time>2015-07-27T18:46:09Z</time>
      </trkpt>
      <trkpt lat="48.87281" lon="2.38928">
        <ele>91.800003051758</ele>
        <time>2015-07-27T18:46:13Z</time>
      </trkpt>
      <trkpt lat="48.87288" lon="2.38946">
        <ele>91.400001525879</ele>
        <time>2015-07-27T18:46:18Z</time>
      </trkpt>
      <trkpt lat="48.87289" lon="2.38949">
        <ele>91.199996948242</ele>
        <time>2015-07-27T18:46:20Z</time>
      </trkpt>
      <trkpt lat="48.8729" lon="2.38949">
        <ele>91</ele>
        <time>2015-07-27T18:46:25Z</time>
      </trkpt>
      <trkpt lat="48.8729" lon="2.38955">
        <ele>91</ele>
        <time>2015-07-27T18:46:28Z</time>
      </trkpt>
      <trkpt lat="48.87299" lon="2.38966">
        <ele>90.400001525879</ele>
        <time>2015-07-27T18:46:33Z</time>
      </trkpt>
      <trkpt lat="48.87304" lon="2.38982">
        <ele>89.599998474121</ele>
        <time>2015-07-27T18:46:38Z</time>
      </trkpt>
      <trkpt lat="48.87307" lon="2.38988">
        <ele>89.400001525879</ele>
        <time>2015-07-27T18:46:40Z</time>
      </trkpt>
      <trkpt lat="48.87309" lon="2.38992">
        <ele>89.199996948242</ele>
        <time>2015-07-27T18:46:45Z</time>
      </trkpt>
      <trkpt lat="48.8731" lon="2.38993">
        <ele>88.800003051758</ele>
        <time>2015-07-27T18:46:52Z</time>
      </trkpt>
      <trkpt lat="48.87315" lon="2.3899">
        <ele>88.599998474121</ele>
        <time>2015-07-27T18:47:03Z</time>
      </trkpt>
      <trkpt lat="48.87318" lon="2.38992">
        <ele>88.599998474121</ele>
        <time>2015-07-27T18:47:09Z</time>
      </trkpt>
      <trkpt lat="48.87322" lon="2.38995">
        <ele>88.800003051758</ele>
        <time>2015-07-27T18:47:14Z</time>
      </trkpt>
      <trkpt lat="48.87323" lon="2.38997">
        <ele>89</ele>
        <time>2015-07-27T18:47:15Z</time>
      </trkpt>
      <trkpt lat="48.87325" lon="2.39006">
        <ele>89.599998474121</ele>
        <time>2015-07-27T18:47:18Z</time>
      </trkpt>
      <trkpt lat="48.87337" lon="2.39011">
        <ele>90</ele>
        <time>2015-07-27T18:47:22Z</time>
      </trkpt>
      <trkpt lat="48.87347" lon="2.39022">
        <ele>90.800003051758</ele>
        <time>2015-07-27T18:47:26Z</time>
      </trkpt>
      <trkpt lat="48.87351" lon="2.39026">
        <ele>91</ele>
        <time>2015-07-27T18:47:27Z</time>
      </trkpt>
      <trkpt lat="48.87373" lon="2.3905">
        <ele>92.199996948242</ele>
        <time>2015-07-27T18:47:33Z</time>
      </trkpt>
      <trkpt lat="48.87378" lon="2.39057">
        <ele>92.599998474121</ele>
        <time>2015-07-27T18:47:35Z</time>
      </trkpt>
      <trkpt lat="48.87384" lon="2.39065">
        <ele>93.199996948242</ele>
        <time>2015-07-27T18:47:37Z</time>
      </trkpt>
      <trkpt lat="48.87386" lon="2.39068">
        <ele>93.400001525879</ele>
        <time>2015-07-27T18:47:38Z</time>
      </trkpt>
      <trkpt lat="48.87408" lon="2.39095">
        <ele>94.599998474121</ele>
        <time>2015-07-27T18:47:47Z</time>
      </trkpt>
      <trkpt lat="48.87418" lon="2.39109">
        <ele>95.599998474121</ele>
        <time>2015-07-27T18:47:52Z</time>
      </trkpt>
      <trkpt lat="48.87431" lon="2.39125">
        <ele>96.199996948242</ele>
        <time>2015-07-27T18:47:58Z</time>
      </trkpt>
      <trkpt lat="48.87445" lon="2.39144">
        <ele>96.800003051758</ele>
        <time>2015-07-27T18:48:04Z</time>
      </trkpt>
      <trkpt lat="48.87457" lon="2.39162">
        <ele>98</ele>
        <time>2015-07-27T18:48:10Z</time>
      </trkpt>
      <trkpt lat="48.87471" lon="2.39178">
        <ele>98.599998474121</ele>
        <time>2015-07-27T18:48:16Z</time>
      </trkpt>
      <trkpt lat="48.8748" lon="2.3919">
        <ele>99.599998474121</ele>
        <time>2015-07-27T18:48:20Z</time>
      </trkpt>
      <trkpt lat="48.87492" lon="2.39206">
        <ele>100.40000152588</ele>
        <time>2015-07-27T18:48:26Z</time>
      </trkpt>
      <trkpt lat="48.87501" lon="2.39217">
        <ele>101.19999694824</ele>
        <time>2015-07-27T18:48:30Z</time>
      </trkpt>
      <trkpt lat="48.8751" lon="2.39235">
        <ele>103.59999847412</ele>
        <time>2015-07-27T18:48:43Z</time>
      </trkpt>
      <trkpt lat="48.87509" lon="2.39238">
        <ele>107.80000305176</ele>
        <time>2015-07-27T18:49:01Z</time>
      </trkpt>
      <trkpt lat="48.87518" lon="2.39239">
        <ele>109.59999847412</ele>
        <time>2015-07-27T18:49:07Z</time>
      </trkpt>
      <trkpt lat="48.87527" lon="2.39234">
        <ele>111</ele>
        <time>2015-07-27T18:49:12Z</time>
      </trkpt>
      <trkpt lat="48.87528" lon="2.39233">
        <ele>111.40000152588</ele>
        <time>2015-07-27T18:49:13Z</time>
      </trkpt>
      <trkpt lat="48.8753" lon="2.39233">
        <ele>112.40000152588</ele>
        <time>2015-07-27T18:49:18Z</time>
      </trkpt>
      <trkpt lat="48.87535" lon="2.39236">
        <ele>113.80000305176</ele>
        <time>2015-07-27T18:49:46Z</time>
      </trkpt>
      <trkpt lat="48.87543" lon="2.39234">
        <ele>113.80000305176</ele>
        <time>2015-07-27T18:49:50Z</time>
      </trkpt>
      <trkpt lat="48.87557" lon="2.39234">
        <ele>113.80000305176</ele>
        <time>2015-07-27T18:49:55Z</time>
      </trkpt>
      <trkpt lat="48.87559" lon="2.39234">
        <ele>113.80000305176</ele>
        <time>2015-07-27T18:49:56Z</time>
      </trkpt>
      <trkpt lat="48.87568" lon="2.39244">
        <ele>113.80000305176</ele>
        <time>2015-07-27T18:50:01Z</time>
      </trkpt>
      <trkpt lat="48.87578" lon="2.39255">
        <ele>113.80000305176</ele>
        <time>2015-07-27T18:50:06Z</time>
      </trkpt>
      <trkpt lat="48.87589" lon="2.39262">
        <ele>113.80000305176</ele>
        <time>2015-07-27T18:50:11Z</time>
      </trkpt>
      <trkpt lat="48.87599" lon="2.39268">
        <ele>113.80000305176</ele>
        <time>2015-07-27T18:50:15Z</time>
      </trkpt>
      <trkpt lat="48.87614" lon="2.39289">
        <ele>115</ele>
        <time>2015-07-27T18:50:22Z</time>
      </trkpt>
      <trkpt lat="48.87625" lon="2.39304">
        <ele>115.40000152588</ele>
        <time>2015-07-27T18:50:27Z</time>
      </trkpt>
      <trkpt lat="48.87632" lon="2.39307">
        <ele>115.80000305176</ele>
        <time>2015-07-27T18:50:30Z</time>
      </trkpt>
      <trkpt lat="48.87639" lon="2.3931">
        <ele>116.59999847412</ele>
        <time>2015-07-27T18:50:34Z</time>
      </trkpt>
      <trkpt lat="48.8765" lon="2.3932">
        <ele>117.19999694824</ele>
        <time>2015-07-27T18:50:39Z</time>
      </trkpt>
      <trkpt lat="48.87656" lon="2.39328">
        <ele>117.40000152588</ele>
        <time>2015-07-27T18:50:42Z</time>
      </trkpt>
      <trkpt lat="48.87669" lon="2.39343">
        <ele>117.59999847412</ele>
        <time>2015-07-27T18:50:47Z</time>
      </trkpt>
      <trkpt lat="48.87681" lon="2.39362">
        <ele>117.80000305176</ele>
        <time>2015-07-27T18:50:53Z</time>
      </trkpt>
      <trkpt lat="48.87686" lon="2.3937">
        <ele>117.80000305176</ele>
        <time>2015-07-27T18:50:56Z</time>
      </trkpt>
      <trkpt lat="48.87702" lon="2.39388">
        <ele>117</ele>
        <time>2015-07-27T18:51:01Z</time>
      </trkpt>
      <trkpt lat="48.8772" lon="2.39408">
        <ele>116.40000152588</ele>
        <time>2015-07-27T18:51:07Z</time>
      </trkpt>
      <trkpt lat="48.87721" lon="2.39411">
        <ele>116.40000152588</ele>
        <time>2015-07-27T18:51:08Z</time>
      </trkpt>
      <trkpt lat="48.87726" lon="2.3943">
        <ele>116.19999694824</ele>
        <time>2015-07-27T18:51:12Z</time>
      </trkpt>
      <trkpt lat="48.87731" lon="2.3946">
        <ele>116</ele>
        <time>2015-07-27T18:51:18Z</time>
      </trkpt>
      <trkpt lat="48.87733" lon="2.39482">
        <ele>116</ele>
        <time>2015-07-27T18:51:23Z</time>
      </trkpt>
      <trkpt lat="48.87736" lon="2.39486">
        <ele>116</ele>
        <time>2015-07-27T18:51:25Z</time>
      </trkpt>
      <trkpt lat="48.87749" lon="2.39499">
        <ele>116</ele>
        <time>2015-07-27T18:51:31Z</time>
      </trkpt>
      <trkpt lat="48.87756" lon="2.39518">
        <ele>115.80000305176</ele>
        <time>2015-07-27T18:51:37Z</time>
      </trkpt>
      <trkpt lat="48.87756" lon="2.39528">
        <ele>115.80000305176</ele>
        <time>2015-07-27T18:51:40Z</time>
      </trkpt>
      <trkpt lat="48.87765" lon="2.39537">
        <ele>115.80000305176</ele>
        <time>2015-07-27T18:51:45Z</time>
      </trkpt>
      <trkpt lat="48.87769" lon="2.39538">
        <ele>116</ele>
        <time>2015-07-27T18:51:47Z</time>
      </trkpt>
      <trkpt lat="48.87781" lon="2.39557">
        <ele>117</ele>
        <time>2015-07-27T18:51:54Z</time>
      </trkpt>
      <trkpt lat="48.87786" lon="2.39561">
        <ele>117.19999694824</ele>
        <time>2015-07-27T18:51:56Z</time>
      </trkpt>
      <trkpt lat="48.87805" lon="2.39561">
        <ele>117.40000152588</ele>
        <time>2015-07-27T18:52:01Z</time>
      </trkpt>
      <trkpt lat="48.87808" lon="2.39562">
        <ele>117.59999847412</ele>
        <time>2015-07-27T18:52:02Z</time>
      </trkpt>
      <trkpt lat="48.87822" lon="2.39567">
        <ele>117.59999847412</ele>
        <time>2015-07-27T18:52:07Z</time>
      </trkpt>
      <trkpt lat="48.87841" lon="2.39573">
        <ele>118.19999694824</ele>
        <time>2015-07-27T18:52:13Z</time>
      </trkpt>
      <trkpt lat="48.87855" lon="2.39581">
        <ele>119</ele>
        <time>2015-07-27T18:52:18Z</time>
      </trkpt>
      <trkpt lat="48.87873" lon="2.39592">
        <ele>120</ele>
        <time>2015-07-27T18:52:23Z</time>
      </trkpt>
      <trkpt lat="48.87889" lon="2.39604">
        <ele>120.80000305176</ele>
        <time>2015-07-27T18:52:28Z</time>
      </trkpt>
      <trkpt lat="48.87914" lon="2.39615">
        <ele>122.40000152588</ele>
        <time>2015-07-27T18:52:36Z</time>
      </trkpt>
      <trkpt lat="48.8793" lon="2.39629">
        <ele>123.19999694824</ele>
        <time>2015-07-27T18:52:40Z</time>
      </trkpt>
      <trkpt lat="48.87934" lon="2.39632">
        <ele>123.19999694824</ele>
        <time>2015-07-27T18:52:41Z</time>
      </trkpt>
      <trkpt lat="48.87949" lon="2.39637">
        <ele>123.59999847412</ele>
        <time>2015-07-27T18:52:44Z</time>
      </trkpt>
      <trkpt lat="48.87974" lon="2.39641">
        <ele>124.59999847412</ele>
        <time>2015-07-27T18:52:49Z</time>
      </trkpt>
      <trkpt lat="48.87979" lon="2.39644">
        <ele>124.80000305176</ele>
        <time>2015-07-27T18:52:50Z</time>
      </trkpt>
      <trkpt lat="48.87988" lon="2.39651">
        <ele>125.19999694824</ele>
        <time>2015-07-27T18:52:53Z</time>
      </trkpt>
      <trkpt lat="48.87991" lon="2.39653">
        <ele>125.40000152588</ele>
        <time>2015-07-27T18:52:54Z</time>
      </trkpt>
      <trkpt lat="48.87998" lon="2.39655">
        <ele>125.59999847412</ele>
        <time>2015-07-27T18:52:56Z</time>
      </trkpt>
      <trkpt lat="48.88009" lon="2.39657">
        <ele>125.80000305176</ele>
        <time>2015-07-27T18:52:59Z</time>
      </trkpt>
      <trkpt lat="48.88033" lon="2.3967">
        <ele>126.80000305176</ele>
        <time>2015-07-27T18:53:05Z</time>
      </trkpt>
      <trkpt lat="48.88037" lon="2.39674">
        <ele>127</ele>
        <time>2015-07-27T18:53:06Z</time>
      </trkpt>
      <trkpt lat="48.88042" lon="2.39694">
        <ele>127.40000152588</ele>
        <time>2015-07-27T18:53:09Z</time>
      </trkpt>
      <trkpt lat="48.88041" lon="2.39732">
        <ele>127.80000305176</ele>
        <time>2015-07-27T18:53:14Z</time>
      </trkpt>
      <trkpt lat="48.88041" lon="2.39744">
        <ele>128</ele>
        <time>2015-07-27T18:53:16Z</time>
      </trkpt>
      <trkpt lat="48.88041" lon="2.39762">
        <ele>127.59999847412</ele>
        <time>2015-07-27T18:53:19Z</time>
      </trkpt>
      <trkpt lat="48.8803" lon="2.39801">
        <ele>127.19999694824</ele>
        <time>2015-07-27T18:53:24Z</time>
      </trkpt>
      <trkpt lat="48.88029" lon="2.39807">
        <ele>127</ele>
        <time>2015-07-27T18:53:25Z</time>
      </trkpt>
      <trkpt lat="48.88025" lon="2.39818">
        <ele>127</ele>
        <time>2015-07-27T18:53:27Z</time>
      </trkpt>
      <trkpt lat="48.88021" lon="2.39832">
        <ele>126.59999847412</ele>
        <time>2015-07-27T18:53:31Z</time>
      </trkpt>
      <trkpt lat="48.8802" lon="2.3984">
        <ele>125.40000152588</ele>
        <time>2015-07-27T18:53:37Z</time>
      </trkpt>
      <trkpt lat="48.8802" lon="2.39842">
        <ele>125.19999694824</ele>
        <time>2015-07-27T18:53:38Z</time>
      </trkpt>
      <trkpt lat="48.88018" lon="2.39857">
        <ele>125</ele>
        <time>2015-07-27T18:53:42Z</time>
      </trkpt>
      <trkpt lat="48.8801" lon="2.39882">
        <ele>124.59999847412</ele>
        <time>2015-07-27T18:53:47Z</time>
      </trkpt>
      <trkpt lat="48.88" lon="2.3991">
        <ele>124.40000152588</ele>
        <time>2015-07-27T18:53:52Z</time>
      </trkpt>
      <trkpt lat="48.87989" lon="2.39941">
        <ele>124.40000152588</ele>
        <time>2015-07-27T18:53:57Z</time>
      </trkpt>
      <trkpt lat="48.87978" lon="2.39963">
        <ele>124.19999694824</ele>
        <time>2015-07-27T18:54:01Z</time>
      </trkpt>
      <trkpt lat="48.87965" lon="2.39986">
        <ele>124.19999694824</ele>
        <time>2015-07-27T18:54:05Z</time>
      </trkpt>
      <trkpt lat="48.87962" lon="2.3999">
        <ele>124.19999694824</ele>
        <time>2015-07-27T18:54:06Z</time>
      </trkpt>
      <trkpt lat="48.8795" lon="2.40012">
        <ele>124.19999694824</ele>
        <time>2015-07-27T18:54:10Z</time>
      </trkpt>
      <trkpt lat="48.87939" lon="2.40038">
        <ele>124.19999694824</ele>
        <time>2015-07-27T18:54:14Z</time>
      </trkpt>
      <trkpt lat="48.87927" lon="2.40066">
        <ele>123.59999847412</ele>
        <time>2015-07-27T18:54:18Z</time>
      </trkpt>
      <trkpt lat="48.87914" lon="2.40092">
        <ele>123.19999694824</ele>
        <time>2015-07-27T18:54:22Z</time>
      </trkpt>
      <trkpt lat="48.87903" lon="2.40116">
        <ele>122.59999847412</ele>
        <time>2015-07-27T18:54:27Z</time>
      </trkpt>
      <trkpt lat="48.879" lon="2.4012">
        <ele>122.59999847412</ele>
        <time>2015-07-27T18:54:28Z</time>
      </trkpt>
      <trkpt lat="48.87896" lon="2.40126">
        <ele>122.40000152588</ele>
        <time>2015-07-27T18:54:30Z</time>
      </trkpt>
      <trkpt lat="48.87889" lon="2.40137">
        <ele>121.40000152588</ele>
        <time>2015-07-27T18:54:35Z</time>
      </trkpt>
      <trkpt lat="48.87882" lon="2.40142">
        <ele>114</ele>
        <time>2015-07-27T18:55:21Z</time>
      </trkpt>
      <trkpt lat="48.87877" lon="2.40154">
        <ele>113.59999847412</ele>
        <time>2015-07-27T18:55:25Z</time>
      </trkpt>
      <trkpt lat="48.87867" lon="2.40184">
        <ele>112.80000305176</ele>
        <time>2015-07-27T18:55:31Z</time>
      </trkpt>
      <trkpt lat="48.87858" lon="2.40203">
        <ele>112.40000152588</ele>
        <time>2015-07-27T18:55:35Z</time>
      </trkpt>
      <trkpt lat="48.87848" lon="2.40228">
        <ele>112.19999694824</ele>
        <time>2015-07-27T18:55:39Z</time>
      </trkpt>
      <trkpt lat="48.87844" lon="2.40239">
        <ele>112</ele>
        <time>2015-07-27T18:55:41Z</time>
      </trkpt>
      <trkpt lat="48.87837" lon="2.40266">
        <ele>112</ele>
        <time>2015-07-27T18:55:46Z</time>
      </trkpt>
      <trkpt lat="48.87833" lon="2.4029">
        <ele>111.19999694824</ele>
        <time>2015-07-27T18:55:50Z</time>
      </trkpt>
      <trkpt lat="48.87829" lon="2.40314">
        <ele>110.59999847412</ele>
        <time>2015-07-27T18:55:54Z</time>
      </trkpt>
      <trkpt lat="48.87823" lon="2.40343">
        <ele>110.19999694824</ele>
        <time>2015-07-27T18:55:59Z</time>
      </trkpt>
      <trkpt lat="48.87821" lon="2.4036">
        <ele>110</ele>
        <time>2015-07-27T18:56:03Z</time>
      </trkpt>
      <trkpt lat="48.87818" lon="2.40382">
        <ele>109.80000305176</ele>
        <time>2015-07-27T18:56:07Z</time>
      </trkpt>
      <trkpt lat="48.87815" lon="2.40403">
        <ele>109.80000305176</ele>
        <time>2015-07-27T18:56:12Z</time>
      </trkpt>
      <trkpt lat="48.87812" lon="2.40419">
        <ele>109.80000305176</ele>
        <time>2015-07-27T18:56:16Z</time>
      </trkpt>
      <trkpt lat="48.8781" lon="2.4044">
        <ele>110.40000152588</ele>
        <time>2015-07-27T18:56:21Z</time>
      </trkpt>
      <trkpt lat="48.87808" lon="2.40455">
        <ele>110.80000305176</ele>
        <time>2015-07-27T18:56:24Z</time>
      </trkpt>
      <trkpt lat="48.87806" lon="2.40473">
        <ele>111.59999847412</ele>
        <time>2015-07-27T18:56:28Z</time>
      </trkpt>
      <trkpt lat="48.87802" lon="2.40507">
        <ele>113.19999694824</ele>
        <time>2015-07-27T18:56:35Z</time>
      </trkpt>
      <trkpt lat="48.87795" lon="2.40532">
        <ele>114.40000152588</ele>
        <time>2015-07-27T18:56:40Z</time>
      </trkpt>
      <trkpt lat="48.87789" lon="2.4056">
        <ele>116</ele>
        <time>2015-07-27T18:56:46Z</time>
      </trkpt>
      <trkpt lat="48.87783" lon="2.40584">
        <ele>117.19999694824</ele>
        <time>2015-07-27T18:56:52Z</time>
      </trkpt>
      <trkpt lat="48.8778" lon="2.406">
        <ele>118</ele>
        <time>2015-07-27T18:56:56Z</time>
      </trkpt>
      <trkpt lat="48.87769" lon="2.40622">
        <ele>119</ele>
        <time>2015-07-27T18:57:01Z</time>
      </trkpt>
      <trkpt lat="48.87755" lon="2.40637">
        <ele>119.59999847412</ele>
        <time>2015-07-27T18:57:06Z</time>
      </trkpt>
      <trkpt lat="48.87743" lon="2.40646">
        <ele>119.80000305176</ele>
        <time>2015-07-27T18:57:11Z</time>
      </trkpt>
      <trkpt lat="48.87731" lon="2.40654">
        <ele>120</ele>
        <time>2015-07-27T18:57:17Z</time>
      </trkpt>
      <trkpt lat="48.87728" lon="2.40656">
        <ele>120.19999694824</ele>
        <time>2015-07-27T18:57:19Z</time>
      </trkpt>
      <trkpt lat="48.87723" lon="2.40655">
        <ele>121</ele>
        <time>2015-07-27T18:57:23Z</time>
      </trkpt>
      <trkpt lat="48.87722" lon="2.40658">
        <ele>121.59999847412</ele>
        <time>2015-07-27T18:57:28Z</time>
      </trkpt>
      <trkpt lat="48.87725" lon="2.40672">
        <ele>122.40000152588</ele>
        <time>2015-07-27T18:57:34Z</time>
      </trkpt>
      <trkpt lat="48.87732" lon="2.40686">
        <ele>123.40000152588</ele>
        <time>2015-07-27T18:57:42Z</time>
      </trkpt>
      <trkpt lat="48.87735" lon="2.40681">
        <ele>124</ele>
        <time>2015-07-27T18:57:51Z</time>
      </trkpt>
      <trkpt lat="48.87736" lon="2.40679">
        <ele>124</ele>
        <time>2015-07-27T18:57:56Z</time>
      </trkpt>
      <trkpt lat="48.87742" lon="2.4067">
        <ele>124.19999694824</ele>
        <time>2015-07-27T18:58:01Z</time>
      </trkpt>
      <trkpt lat="48.87756" lon="2.40653">
        <ele>124.19999694824</ele>
        <time>2015-07-27T18:58:07Z</time>
      </trkpt>
      <trkpt lat="48.8777" lon="2.40632">
        <ele>124.19999694824</ele>
        <time>2015-07-27T18:58:12Z</time>
      </trkpt>
      <trkpt lat="48.87779" lon="2.40608">
        <ele>124.19999694824</ele>
        <time>2015-07-27T18:58:16Z</time>
      </trkpt>
      <trkpt lat="48.87782" lon="2.40601">
        <ele>124.19999694824</ele>
        <time>2015-07-27T18:58:17Z</time>
      </trkpt>
      <trkpt lat="48.87789" lon="2.40563">
        <ele>124.19999694824</ele>
        <time>2015-07-27T18:58:22Z</time>
      </trkpt>
      <trkpt lat="48.87796" lon="2.40531">
        <ele>124.19999694824</ele>
        <time>2015-07-27T18:58:26Z</time>
      </trkpt>
      <trkpt lat="48.87801" lon="2.40505">
        <ele>124.40000152588</ele>
        <time>2015-07-27T18:58:29Z</time>
      </trkpt>
      <trkpt lat="48.87806" lon="2.40478">
        <ele>124.40000152588</ele>
        <time>2015-07-27T18:58:32Z</time>
      </trkpt>
      <trkpt lat="48.87811" lon="2.40451">
        <ele>123.80000305176</ele>
        <time>2015-07-27T18:58:35Z</time>
      </trkpt>
      <trkpt lat="48.87817" lon="2.40422">
        <ele>123.19999694824</ele>
        <time>2015-07-27T18:58:38Z</time>
      </trkpt>
      <trkpt lat="48.87822" lon="2.404">
        <ele>122.59999847412</ele>
        <time>2015-07-27T18:58:40Z</time>
      </trkpt>
      <trkpt lat="48.87824" lon="2.40391">
        <ele>122.40000152588</ele>
        <time>2015-07-27T18:58:41Z</time>
      </trkpt>
      <trkpt lat="48.87825" lon="2.40381">
        <ele>122.19999694824</ele>
        <time>2015-07-27T18:58:42Z</time>
      </trkpt>
      <trkpt lat="48.8783" lon="2.4035">
        <ele>121.40000152588</ele>
        <time>2015-07-27T18:58:45Z</time>
      </trkpt>
      <trkpt lat="48.87837" lon="2.40324">
        <ele>120.80000305176</ele>
        <time>2015-07-27T18:58:47Z</time>
      </trkpt>
      <trkpt lat="48.87845" lon="2.40292">
        <ele>119.80000305176</ele>
        <time>2015-07-27T18:58:50Z</time>
      </trkpt>
      <trkpt lat="48.8785" lon="2.40263">
        <ele>118.80000305176</ele>
        <time>2015-07-27T18:58:53Z</time>
      </trkpt>
      <trkpt lat="48.87857" lon="2.40234">
        <ele>117.40000152588</ele>
        <time>2015-07-27T18:58:56Z</time>
      </trkpt>
      <trkpt lat="48.87866" lon="2.40205">
        <ele>116.40000152588</ele>
        <time>2015-07-27T18:58:59Z</time>
      </trkpt>
      <trkpt lat="48.8787" lon="2.40197">
        <ele>116.19999694824</ele>
        <time>2015-07-27T18:59:00Z</time>
      </trkpt>
      <trkpt lat="48.87883" lon="2.40176">
        <ele>114.80000305176</ele>
        <time>2015-07-27T18:59:03Z</time>
      </trkpt>
      <trkpt lat="48.87887" lon="2.4017">
        <ele>114.59999847412</ele>
        <time>2015-07-27T18:59:04Z</time>
      </trkpt>
      <trkpt lat="48.87897" lon="2.40148">
        <ele>113.59999847412</ele>
        <time>2015-07-27T18:59:07Z</time>
      </trkpt>
      <trkpt lat="48.87904" lon="2.40133">
        <ele>113</ele>
        <time>2015-07-27T18:59:09Z</time>
      </trkpt>
      <trkpt lat="48.87926" lon="2.40111">
        <ele>111.80000305176</ele>
        <time>2015-07-27T18:59:13Z</time>
      </trkpt>
      <trkpt lat="48.87945" lon="2.40097">
        <ele>110.80000305176</ele>
        <time>2015-07-27T18:59:16Z</time>
      </trkpt>
      <trkpt lat="48.87963" lon="2.40084">
        <ele>109.80000305176</ele>
        <time>2015-07-27T18:59:19Z</time>
      </trkpt>
      <trkpt lat="48.8798" lon="2.40071">
        <ele>109</ele>
        <time>2015-07-27T18:59:22Z</time>
      </trkpt>
      <trkpt lat="48.88" lon="2.40057">
        <ele>108.19999694824</ele>
        <time>2015-07-27T18:59:26Z</time>
      </trkpt>
      <trkpt lat="48.88019" lon="2.40044">
        <ele>107</ele>
        <time>2015-07-27T18:59:30Z</time>
      </trkpt>
      <trkpt lat="48.8803" lon="2.4004">
        <ele>105.40000152588</ele>
        <time>2015-07-27T18:59:38Z</time>
      </trkpt>
      <trkpt lat="48.88027" lon="2.4004">
        <ele>103.59999847412</ele>
        <time>2015-07-27T18:59:49Z</time>
      </trkpt>
      <trkpt lat="48.88036" lon="2.40031">
        <ele>103.40000152588</ele>
        <time>2015-07-27T18:59:54Z</time>
      </trkpt>
      <trkpt lat="48.88055" lon="2.40015">
        <ele>103.19999694824</ele>
        <time>2015-07-27T19:00:00Z</time>
      </trkpt>
      <trkpt lat="48.88075" lon="2.40002">
        <ele>103</ele>
        <time>2015-07-27T19:00:05Z</time>
      </trkpt>
      <trkpt lat="48.88079" lon="2.40001">
        <ele>103</ele>
        <time>2015-07-27T19:00:06Z</time>
      </trkpt>
      <trkpt lat="48.88086" lon="2.4">
        <ele>103</ele>
        <time>2015-07-27T19:00:07Z</time>
      </trkpt>
      <trkpt lat="48.88111" lon="2.40006">
        <ele>103</ele>
        <time>2015-07-27T19:00:11Z</time>
      </trkpt>
      <trkpt lat="48.88131" lon="2.40023">
        <ele>103</ele>
        <time>2015-07-27T19:00:14Z</time>
      </trkpt>
      <trkpt lat="48.88138" lon="2.40031">
        <ele>103</ele>
        <time>2015-07-27T19:00:15Z</time>
      </trkpt>
      <trkpt lat="48.8816" lon="2.40052">
        <ele>102.59999847412</ele>
        <time>2015-07-27T19:00:18Z</time>
      </trkpt>
      <trkpt lat="48.88169" lon="2.40057">
        <ele>102.40000152588</ele>
        <time>2015-07-27T19:00:19Z</time>
      </trkpt>
      <trkpt lat="48.88195" lon="2.40062">
        <ele>101.80000305176</ele>
        <time>2015-07-27T19:00:22Z</time>
      </trkpt>
      <trkpt lat="48.88213" lon="2.40055">
        <ele>101.19999694824</ele>
        <time>2015-07-27T19:00:24Z</time>
      </trkpt>
      <trkpt lat="48.88235" lon="2.40035">
        <ele>100.19999694824</ele>
        <time>2015-07-27T19:00:27Z</time>
      </trkpt>
      <trkpt lat="48.88246" lon="2.40016">
        <ele>99.599998474121</ele>
        <time>2015-07-27T19:00:29Z</time>
      </trkpt>
      <trkpt lat="48.88268" lon="2.39954">
        <ele>97.400001525879</ele>
        <time>2015-07-27T19:00:35Z</time>
      </trkpt>
      <trkpt lat="48.88273" lon="2.3992">
        <ele>96.199996948242</ele>
        <time>2015-07-27T19:00:38Z</time>
      </trkpt>
      <trkpt lat="48.88277" lon="2.39886">
        <ele>95</ele>
        <time>2015-07-27T19:00:41Z</time>
      </trkpt>
      <trkpt lat="48.88281" lon="2.39853">
        <ele>93.800003051758</ele>
        <time>2015-07-27T19:00:44Z</time>
      </trkpt>
      <trkpt lat="48.88284" lon="2.39841">
        <ele>93.400001525879</ele>
        <time>2015-07-27T19:00:45Z</time>
      </trkpt>
      <trkpt lat="48.88292" lon="2.39806">
        <ele>91.800003051758</ele>
        <time>2015-07-27T19:00:48Z</time>
      </trkpt>
      <trkpt lat="48.88295" lon="2.39796">
        <ele>91.400001525879</ele>
        <time>2015-07-27T19:00:49Z</time>
      </trkpt>
      <trkpt lat="48.88302" lon="2.39776">
        <ele>90.599998474121</ele>
        <time>2015-07-27T19:00:51Z</time>
      </trkpt>
      <trkpt lat="48.88322" lon="2.39743">
        <ele>88.800003051758</ele>
        <time>2015-07-27T19:00:55Z</time>
      </trkpt>
      <trkpt lat="48.88336" lon="2.3973">
        <ele>88.199996948242</ele>
        <time>2015-07-27T19:00:57Z</time>
      </trkpt>
      <trkpt lat="48.88361" lon="2.39713">
        <ele>86.599998474121</ele>
        <time>2015-07-27T19:01:01Z</time>
      </trkpt>
      <trkpt lat="48.8838" lon="2.39706">
        <ele>85.800003051758</ele>
        <time>2015-07-27T19:01:04Z</time>
      </trkpt>
      <trkpt lat="48.88402" lon="2.39697">
        <ele>85</ele>
        <time>2015-07-27T19:01:08Z</time>
      </trkpt>
      <trkpt lat="48.88415" lon="2.39691">
        <ele>84.800003051758</ele>
        <time>2015-07-27T19:01:10Z</time>
      </trkpt>
      <trkpt lat="48.88425" lon="2.39684">
        <ele>84.599998474121</ele>
        <time>2015-07-27T19:01:13Z</time>
      </trkpt>
      <trkpt lat="48.88434" lon="2.3968">
        <ele>84.400001525879</ele>
        <time>2015-07-27T19:01:14Z</time>
      </trkpt>
      <trkpt lat="48.88454" lon="2.39659">
        <ele>84</ele>
        <time>2015-07-27T19:01:20Z</time>
      </trkpt>
      <trkpt lat="48.88462" lon="2.39658">
        <ele>84</ele>
        <time>2015-07-27T19:01:21Z</time>
      </trkpt>
      <trkpt lat="48.88482" lon="2.39655">
        <ele>83.800003051758</ele>
        <time>2015-07-27T19:01:24Z</time>
      </trkpt>
      <trkpt lat="48.88508" lon="2.39653">
        <ele>83.800003051758</ele>
        <time>2015-07-27T19:01:26Z</time>
      </trkpt>
      <trkpt lat="48.8853" lon="2.39651">
        <ele>84</ele>
        <time>2015-07-27T19:01:28Z</time>
      </trkpt>
      <trkpt lat="48.88549" lon="2.3965">
        <ele>84.400001525879</ele>
        <time>2015-07-27T19:01:31Z</time>
      </trkpt>
      <trkpt lat="48.8856" lon="2.39649">
        <ele>84.599998474121</ele>
        <time>2015-07-27T19:01:33Z</time>
      </trkpt>
      <trkpt lat="48.88584" lon="2.39655">
        <ele>85</ele>
        <time>2015-07-27T19:01:37Z</time>
      </trkpt>
      <trkpt lat="48.88587" lon="2.39655">
        <ele>85</ele>
        <time>2015-07-27T19:01:38Z</time>
      </trkpt>
      <trkpt lat="48.88598" lon="2.39663">
        <ele>84.800003051758</ele>
        <time>2015-07-27T19:01:54Z</time>
      </trkpt>
      <trkpt lat="48.88598" lon="2.39664">
        <ele>84</ele>
        <time>2015-07-27T19:02:01Z</time>
      </trkpt>
      <trkpt lat="48.88598" lon="2.39665">
        <ele>83.400001525879</ele>
        <time>2015-07-27T19:02:12Z</time>
      </trkpt>
      <trkpt lat="48.88598" lon="2.39655">
        <ele>82.400001525879</ele>
        <time>2015-07-27T19:02:17Z</time>
      </trkpt>
      <trkpt lat="48.88599" lon="2.39651">
        <ele>82.199996948242</ele>
        <time>2015-07-27T19:02:19Z</time>
      </trkpt>
      <trkpt lat="48.8861" lon="2.39638">
        <ele>81.800003051758</ele>
        <time>2015-07-27T19:02:25Z</time>
      </trkpt>
      <trkpt lat="48.88623" lon="2.39632">
        <ele>81.599998474121</ele>
        <time>2015-07-27T19:02:30Z</time>
      </trkpt>
      <trkpt lat="48.88627" lon="2.39632">
        <ele>81.400001525879</ele>
        <time>2015-07-27T19:02:32Z</time>
      </trkpt>
      <trkpt lat="48.88676" lon="2.39628">
        <ele>79.599998474121</ele>
        <time>2015-07-27T19:02:48Z</time>
      </trkpt>
      <trkpt lat="48.88695" lon="2.39624">
        <ele>79.400001525879</ele>
        <time>2015-07-27T19:02:53Z</time>
      </trkpt>
      <trkpt lat="48.88715" lon="2.39618">
        <ele>78.800003051758</ele>
        <time>2015-07-27T19:02:58Z</time>
      </trkpt>
      <trkpt lat="48.88734" lon="2.39613">
        <ele>78</ele>
        <time>2015-07-27T19:03:03Z</time>
      </trkpt>
      <trkpt lat="48.88755" lon="2.39607">
        <ele>77.599998474121</ele>
        <time>2015-07-27T19:03:08Z</time>
      </trkpt>
      <trkpt lat="48.88759" lon="2.39607">
        <ele>77.599998474121</ele>
        <time>2015-07-27T19:03:09Z</time>
      </trkpt>
      <trkpt lat="48.88779" lon="2.39602">
        <ele>77.400001525879</ele>
        <time>2015-07-27T19:03:14Z</time>
      </trkpt>
      <trkpt lat="48.88799" lon="2.39596">
        <ele>76.800003051758</ele>
        <time>2015-07-27T19:03:19Z</time>
      </trkpt>
      <trkpt lat="48.88803" lon="2.39594">
        <ele>76.599998474121</ele>
        <time>2015-07-27T19:03:20Z</time>
      </trkpt>
      <trkpt lat="48.88813" lon="2.39588">
        <ele>76.199996948242</ele>
        <time>2015-07-27T19:03:23Z</time>
      </trkpt>
      <trkpt lat="48.88827" lon="2.39588">
        <ele>75.800003051758</ele>
        <time>2015-07-27T19:03:28Z</time>
      </trkpt>
      <trkpt lat="48.88838" lon="2.39591">
        <ele>75.599998474121</ele>
        <time>2015-07-27T19:03:31Z</time>
      </trkpt>
      <trkpt lat="48.88858" lon="2.39579">
        <ele>74.599998474121</ele>
        <time>2015-07-27T19:03:36Z</time>
      </trkpt>
      <trkpt lat="48.88871" lon="2.39574">
        <ele>74.199996948242</ele>
        <time>2015-07-27T19:03:39Z</time>
      </trkpt>
      <trkpt lat="48.88885" lon="2.39567">
        <ele>73.400001525879</ele>
        <time>2015-07-27T19:03:43Z</time>
      </trkpt>
      <trkpt lat="48.88898" lon="2.39558">
        <ele>72.599998474121</ele>
        <time>2015-07-27T19:03:47Z</time>
      </trkpt>
      <trkpt lat="48.8892" lon="2.39549">
        <ele>70.800003051758</ele>
        <time>2015-07-27T19:03:54Z</time>
      </trkpt>
      <trkpt lat="48.88933" lon="2.39545">
        <ele>70</ele>
        <time>2015-07-27T19:03:59Z</time>
      </trkpt>
      <trkpt lat="48.88946" lon="2.39539">
        <ele>68.599998474121</ele>
        <time>2015-07-27T19:04:05Z</time>
      </trkpt>
      <trkpt lat="48.88953" lon="2.39538">
        <ele>68</ele>
        <time>2015-07-27T19:04:08Z</time>
      </trkpt>
      <trkpt lat="48.88964" lon="2.39537">
        <ele>67.599998474121</ele>
        <time>2015-07-27T19:04:13Z</time>
      </trkpt>
      <trkpt lat="48.88967" lon="2.39536">
        <ele>67.400001525879</ele>
        <time>2015-07-27T19:04:14Z</time>
      </trkpt>
      <trkpt lat="48.88981" lon="2.39529">
        <ele>66.400001525879</ele>
        <time>2015-07-27T19:04:19Z</time>
      </trkpt>
      <trkpt lat="48.88984" lon="2.39528">
        <ele>66.199996948242</ele>
        <time>2015-07-27T19:04:20Z</time>
      </trkpt>
      <trkpt lat="48.88994" lon="2.39536">
        <ele>65.599998474121</ele>
        <time>2015-07-27T19:04:25Z</time>
      </trkpt>
      <trkpt lat="48.89001" lon="2.39542">
        <ele>65.199996948242</ele>
        <time>2015-07-27T19:04:29Z</time>
      </trkpt>
      <trkpt lat="48.89002" lon="2.39541">
        <ele>63.400001525879</ele>
        <time>2015-07-27T19:04:49Z</time>
      </trkpt>
      <trkpt lat="48.89002" lon="2.39539">
        <ele>63</ele>
        <time>2015-07-27T19:04:57Z</time>
      </trkpt>
      <trkpt lat="48.89019" lon="2.39527">
        <ele>63</ele>
        <time>2015-07-27T19:05:02Z</time>
      </trkpt>
      <trkpt lat="48.89038" lon="2.3952">
        <ele>62.79999923706</ele>
        <time>2015-07-27T19:05:05Z</time>
      </trkpt>
      <trkpt lat="48.89057" lon="2.39514">
        <ele>62.79999923706</ele>
        <time>2015-07-27T19:05:08Z</time>
      </trkpt>
      <trkpt lat="48.89077" lon="2.3951">
        <ele>62.79999923706</ele>
        <time>2015-07-27T19:05:11Z</time>
      </trkpt>
      <trkpt lat="48.89096" lon="2.39506">
        <ele>62.79999923706</ele>
        <time>2015-07-27T19:05:14Z</time>
      </trkpt>
      <trkpt lat="48.89115" lon="2.39502">
        <ele>62.79999923706</ele>
        <time>2015-07-27T19:05:17Z</time>
      </trkpt>
      <trkpt lat="48.89132" lon="2.39498">
        <ele>62.79999923706</ele>
        <time>2015-07-27T19:05:20Z</time>
      </trkpt>
      <trkpt lat="48.89154" lon="2.39493">
        <ele>62.79999923706</ele>
        <time>2015-07-27T19:05:24Z</time>
      </trkpt>
      <trkpt lat="48.89165" lon="2.39492">
        <ele>62.79999923706</ele>
        <time>2015-07-27T19:05:28Z</time>
      </trkpt>
      <trkpt lat="48.89168" lon="2.39492">
        <ele>62.79999923706</ele>
        <time>2015-07-27T19:05:29Z</time>
      </trkpt>
      <trkpt lat="48.89171" lon="2.39491">
        <ele>62.79999923706</ele>
        <time>2015-07-27T19:05:30Z</time>
      </trkpt>
      <trkpt lat="48.8918" lon="2.39491">
        <ele>62.79999923706</ele>
        <time>2015-07-27T19:05:34Z</time>
      </trkpt>
      <trkpt lat="48.89188" lon="2.395">
        <ele>62.79999923706</ele>
        <time>2015-07-27T19:05:40Z</time>
      </trkpt>
      <trkpt lat="48.89198" lon="2.39498">
        <ele>62.79999923706</ele>
        <time>2015-07-27T19:05:43Z</time>
      </trkpt>
      <trkpt lat="48.89218" lon="2.3949">
        <ele>62.79999923706</ele>
        <time>2015-07-27T19:05:48Z</time>
      </trkpt>
      <trkpt lat="48.89227" lon="2.39484">
        <ele>62.79999923706</ele>
        <time>2015-07-27T19:05:49Z</time>
      </trkpt>
      <trkpt lat="48.89251" lon="2.39474">
        <ele>62.79999923706</ele>
        <time>2015-07-27T19:05:52Z</time>
      </trkpt>
      <trkpt lat="48.89266" lon="2.39467">
        <ele>62.400001525879</ele>
        <time>2015-07-27T19:05:54Z</time>
      </trkpt>
      <trkpt lat="48.89277" lon="2.39464">
        <ele>62.20000076294</ele>
        <time>2015-07-27T19:05:56Z</time>
      </trkpt>
      <trkpt lat="48.89293" lon="2.3946">
        <ele>61.599998474121</ele>
        <time>2015-07-27T19:05:59Z</time>
      </trkpt>
      <trkpt lat="48.89311" lon="2.39454">
        <ele>61.20000076294</ele>
        <time>2015-07-27T19:06:03Z</time>
      </trkpt>
      <trkpt lat="48.8933" lon="2.3945">
        <ele>61</ele>
        <time>2015-07-27T19:06:07Z</time>
      </trkpt>
      <trkpt lat="48.89349" lon="2.39445">
        <ele>60.599998474121</ele>
        <time>2015-07-27T19:06:11Z</time>
      </trkpt>
      <trkpt lat="48.89368" lon="2.39441">
        <ele>59.79999923706</ele>
        <time>2015-07-27T19:06:15Z</time>
      </trkpt>
      <trkpt lat="48.89387" lon="2.39437">
        <ele>59.400001525879</ele>
        <time>2015-07-27T19:06:19Z</time>
      </trkpt>
      <trkpt lat="48.89391" lon="2.39435">
        <ele>59.400001525879</ele>
        <time>2015-07-27T19:06:20Z</time>
      </trkpt>
      <trkpt lat="48.89404" lon="2.39434">
        <ele>59</ele>
        <time>2015-07-27T19:06:23Z</time>
      </trkpt>
      <trkpt lat="48.8943" lon="2.39427">
        <ele>58.79999923706</ele>
        <time>2015-07-27T19:06:29Z</time>
      </trkpt>
      <trkpt lat="48.8945" lon="2.39422">
        <ele>58.599998474121</ele>
        <time>2015-07-27T19:06:34Z</time>
      </trkpt>
      <trkpt lat="48.8947" lon="2.39417">
        <ele>58.599998474121</ele>
        <time>2015-07-27T19:06:39Z</time>
      </trkpt>
      <trkpt lat="48.89505" lon="2.39406">
        <ele>58.599998474121</ele>
        <time>2015-07-27T19:06:48Z</time>
      </trkpt>
      <trkpt lat="48.89537" lon="2.39392">
        <ele>58.400001525879</ele>
        <time>2015-07-27T19:06:57Z</time>
      </trkpt>
      <trkpt lat="48.89555" lon="2.39381">
        <ele>58.400001525879</ele>
        <time>2015-07-27T19:07:03Z</time>
      </trkpt>
      <trkpt lat="48.89568" lon="2.39378">
        <ele>58.400001525879</ele>
        <time>2015-07-27T19:07:07Z</time>
      </trkpt>
      <trkpt lat="48.89581" lon="2.39373">
        <ele>59</ele>
        <time>2015-07-27T19:07:11Z</time>
      </trkpt>
      <trkpt lat="48.89585" lon="2.39371">
        <ele>59.20000076294</ele>
        <time>2015-07-27T19:07:12Z</time>
      </trkpt>
      <trkpt lat="48.89603" lon="2.39358">
        <ele>59.79999923706</ele>
        <time>2015-07-27T19:07:17Z</time>
      </trkpt>
      <trkpt lat="48.89622" lon="2.39341">
        <ele>60</ele>
        <time>2015-07-27T19:07:22Z</time>
      </trkpt>
      <trkpt lat="48.89625" lon="2.39337">
        <ele>60</ele>
        <time>2015-07-27T19:07:23Z</time>
      </trkpt>
      <trkpt lat="48.89643" lon="2.39317">
        <ele>60.20000076294</ele>
        <time>2015-07-27T19:07:28Z</time>
      </trkpt>
      <trkpt lat="48.89645" lon="2.39312">
        <ele>60.20000076294</ele>
        <time>2015-07-27T19:07:29Z</time>
      </trkpt>
      <trkpt lat="48.8965" lon="2.39298">
        <ele>60.400001525879</ele>
        <time>2015-07-27T19:07:32Z</time>
      </trkpt>
      <trkpt lat="48.89663" lon="2.39274">
        <ele>60.400001525879</ele>
        <time>2015-07-27T19:07:37Z</time>
      </trkpt>
      <trkpt lat="48.89673" lon="2.39257">
        <ele>60.400001525879</ele>
        <time>2015-07-27T19:07:41Z</time>
      </trkpt>
      <trkpt lat="48.8968" lon="2.39243">
        <ele>60.20000076294</ele>
        <time>2015-07-27T19:07:44Z</time>
      </trkpt>
      <trkpt lat="48.8969" lon="2.39215">
        <ele>59.400001525879</ele>
        <time>2015-07-27T19:07:50Z</time>
      </trkpt>
      <trkpt lat="48.89693" lon="2.39205">
        <ele>59</ele>
        <time>2015-07-27T19:07:55Z</time>
      </trkpt>
      <trkpt lat="48.89693" lon="2.39204">
        <ele>59</ele>
        <time>2015-07-27T19:07:56Z</time>
      </trkpt>
      <trkpt lat="48.89697" lon="2.39193">
        <ele>58.79999923706</ele>
        <time>2015-07-27T19:08:00Z</time>
      </trkpt>
      <trkpt lat="48.89698" lon="2.39189">
        <ele>58.79999923706</ele>
        <time>2015-07-27T19:08:01Z</time>
      </trkpt>
      <trkpt lat="48.89706" lon="2.3916">
        <ele>57.79999923706</ele>
        <time>2015-07-27T19:08:06Z</time>
      </trkpt>
      <trkpt lat="48.89713" lon="2.39129">
        <ele>57.400001525879</ele>
        <time>2015-07-27T19:08:10Z</time>
      </trkpt>
      <trkpt lat="48.89719" lon="2.39098">
        <ele>57</ele>
        <time>2015-07-27T19:08:14Z</time>
      </trkpt>
      <trkpt lat="48.89724" lon="2.39065">
        <ele>56.79999923706</ele>
        <time>2015-07-27T19:08:18Z</time>
      </trkpt>
      <trkpt lat="48.89727" lon="2.39034">
        <ele>56.599998474121</ele>
        <time>2015-07-27T19:08:22Z</time>
      </trkpt>
      <trkpt lat="48.89727" lon="2.39027">
        <ele>56.400001525879</ele>
        <time>2015-07-27T19:08:23Z</time>
      </trkpt>
      <trkpt lat="48.8973" lon="2.38989">
        <ele>55.599998474121</ele>
        <time>2015-07-27T19:08:28Z</time>
      </trkpt>
      <trkpt lat="48.8973" lon="2.38974">
        <ele>55.400001525879</ele>
        <time>2015-07-27T19:08:30Z</time>
      </trkpt>
      <trkpt lat="48.89733" lon="2.38939">
        <ele>55</ele>
        <time>2015-07-27T19:08:35Z</time>
      </trkpt>
      <trkpt lat="48.89735" lon="2.38907">
        <ele>54.79999923706</ele>
        <time>2015-07-27T19:08:40Z</time>
      </trkpt>
      <trkpt lat="48.89736" lon="2.38894">
        <ele>54.79999923706</ele>
        <time>2015-07-27T19:08:42Z</time>
      </trkpt>
      <trkpt lat="48.89736" lon="2.38871">
        <ele>54.599998474121</ele>
        <time>2015-07-27T19:08:46Z</time>
      </trkpt>
      <trkpt lat="48.89737" lon="2.38844">
        <ele>54.599998474121</ele>
        <time>2015-07-27T19:08:50Z</time>
      </trkpt>
      <trkpt lat="48.89737" lon="2.38834">
        <ele>54.599998474121</ele>
        <time>2015-07-27T19:08:52Z</time>
      </trkpt>
      <trkpt lat="48.89738" lon="2.38812">
        <ele>54.599998474121</ele>
        <time>2015-07-27T19:08:58Z</time>
      </trkpt>
      <trkpt lat="48.89737" lon="2.38806">
        <ele>54.400001525879</ele>
        <time>2015-07-27T19:08:59Z</time>
      </trkpt>
      <trkpt lat="48.89733" lon="2.38777">
        <ele>54.400001525879</ele>
        <time>2015-07-27T19:09:04Z</time>
      </trkpt>
      <trkpt lat="48.89734" lon="2.38753">
        <ele>54.400001525879</ele>
        <time>2015-07-27T19:09:08Z</time>
      </trkpt>
      <trkpt lat="48.89732" lon="2.38735">
        <ele>54.400001525879</ele>
        <time>2015-07-27T19:09:11Z</time>
      </trkpt>
      <trkpt lat="48.89732" lon="2.38705">
        <ele>53.599998474121</ele>
        <time>2015-07-27T19:09:16Z</time>
      </trkpt>
      <trkpt lat="48.89732" lon="2.38686">
        <ele>53.20000076294</ele>
        <time>2015-07-27T19:09:20Z</time>
      </trkpt>
      <trkpt lat="48.89733" lon="2.38666">
        <ele>52.79999923706</ele>
        <time>2015-07-27T19:09:25Z</time>
      </trkpt>
      <trkpt lat="48.89735" lon="2.38648">
        <ele>52.599998474121</ele>
        <time>2015-07-27T19:09:30Z</time>
      </trkpt>
      <trkpt lat="48.89735" lon="2.38636">
        <ele>52.599998474121</ele>
        <time>2015-07-27T19:09:32Z</time>
      </trkpt>
      <trkpt lat="48.89732" lon="2.38621">
        <ele>52.599998474121</ele>
        <time>2015-07-27T19:09:36Z</time>
      </trkpt>
      <trkpt lat="48.89733" lon="2.38614">
        <ele>52.599998474121</ele>
        <time>2015-07-27T19:09:37Z</time>
      </trkpt>
      <trkpt lat="48.89737" lon="2.38583">
        <ele>52.400001525879</ele>
        <time>2015-07-27T19:09:43Z</time>
      </trkpt>
      <trkpt lat="48.89738" lon="2.38578">
        <ele>52.400001525879</ele>
        <time>2015-07-27T19:09:44Z</time>
      </trkpt>
      <trkpt lat="48.89735" lon="2.3856">
        <ele>52.400001525879</ele>
        <time>2015-07-27T19:09:48Z</time>
      </trkpt>
      <trkpt lat="48.89734" lon="2.38559">
        <ele>52.400001525879</ele>
        <time>2015-07-27T19:09:50Z</time>
      </trkpt>
      <trkpt lat="48.89731" lon="2.38559">
        <ele>52.400001525879</ele>
        <time>2015-07-27T19:09:55Z</time>
      </trkpt>
      <trkpt lat="48.8973" lon="2.38558">
        <ele>52.400001525879</ele>
        <time>2015-07-27T19:09:58Z</time>
      </trkpt>
      <trkpt lat="48.89724" lon="2.38558">
        <ele>52.400001525879</ele>
        <time>2015-07-27T19:10:02Z</time>
      </trkpt>
      <trkpt lat="48.89719" lon="2.38549">
        <ele>52.400001525879</ele>
        <time>2015-07-27T19:10:06Z</time>
      </trkpt>
      <trkpt lat="48.89723" lon="2.38535">
        <ele>52.400001525879</ele>
        <time>2015-07-27T19:10:10Z</time>
      </trkpt>
      <trkpt lat="48.89725" lon="2.38528">
        <ele>52.400001525879</ele>
        <time>2015-07-27T19:10:12Z</time>
      </trkpt>
      <trkpt lat="48.89728" lon="2.38524">
        <ele>52.400001525879</ele>
        <time>2015-07-27T19:10:18Z</time>
      </trkpt>
      <trkpt lat="48.8973" lon="2.38523">
        <ele>52.400001525879</ele>
        <time>2015-07-27T19:10:26Z</time>
      </trkpt>
      <trkpt lat="48.8973" lon="2.38521">
        <ele>52.400001525879</ele>
        <time>2015-07-27T19:10:29Z</time>
      </trkpt>
      <trkpt lat="48.8972" lon="2.38508">
        <ele>52.400001525879</ele>
        <time>2015-07-27T19:10:34Z</time>
      </trkpt>
      <trkpt lat="48.89703" lon="2.38494">
        <ele>53.20000076294</ele>
        <time>2015-07-27T19:10:39Z</time>
      </trkpt>
      <trkpt lat="48.89664" lon="2.38457">
        <ele>54.79999923706</ele>
        <time>2015-07-27T19:10:51Z</time>
      </trkpt>
      <trkpt lat="48.89657" lon="2.3845">
        <ele>55.20000076294</ele>
        <time>2015-07-27T19:10:53Z</time>
      </trkpt>
      <trkpt lat="48.8965" lon="2.38444">
        <ele>55.400001525879</ele>
        <time>2015-07-27T19:10:55Z</time>
      </trkpt>
      <trkpt lat="48.89641" lon="2.38424">
        <ele>56.400001525879</ele>
        <time>2015-07-27T19:10:59Z</time>
      </trkpt>
      <trkpt lat="48.89637" lon="2.38407">
        <ele>57.20000076294</ele>
        <time>2015-07-27T19:11:03Z</time>
      </trkpt>
      <trkpt lat="48.89644" lon="2.38396">
        <ele>58</ele>
        <time>2015-07-27T19:11:07Z</time>
      </trkpt>
      <trkpt lat="48.89658" lon="2.3839">
        <ele>59.20000076294</ele>
        <time>2015-07-27T19:11:13Z</time>
      </trkpt>
      <trkpt lat="48.89677" lon="2.38378">
        <ele>59.79999923706</ele>
        <time>2015-07-27T19:11:19Z</time>
      </trkpt>
      <trkpt lat="48.89691" lon="2.38368">
        <ele>60.20000076294</ele>
        <time>2015-07-27T19:11:23Z</time>
      </trkpt>
      <trkpt lat="48.8971" lon="2.38355">
        <ele>60.400001525879</ele>
        <time>2015-07-27T19:11:28Z</time>
      </trkpt>
      <trkpt lat="48.89714" lon="2.38352">
        <ele>60.20000076294</ele>
        <time>2015-07-27T19:11:29Z</time>
      </trkpt>
      <trkpt lat="48.8973" lon="2.38339">
        <ele>59.599998474121</ele>
        <time>2015-07-27T19:11:33Z</time>
      </trkpt>
      <trkpt lat="48.89752" lon="2.38325">
        <ele>59.20000076294</ele>
        <time>2015-07-27T19:11:38Z</time>
      </trkpt>
      <trkpt lat="48.89765" lon="2.38318">
        <ele>59</ele>
        <time>2015-07-27T19:11:41Z</time>
      </trkpt>
      <trkpt lat="48.89819" lon="2.38289">
        <ele>57.20000076294</ele>
        <time>2015-07-27T19:11:55Z</time>
      </trkpt>
      <trkpt lat="48.89826" lon="2.38281">
        <ele>57</ele>
        <time>2015-07-27T19:11:59Z</time>
      </trkpt>
      <trkpt lat="48.89847" lon="2.38267">
        <ele>56</ele>
        <time>2015-07-27T19:12:05Z</time>
      </trkpt>
      <trkpt lat="48.89864" lon="2.38253">
        <ele>55.400001525879</ele>
        <time>2015-07-27T19:12:10Z</time>
      </trkpt>
      <trkpt lat="48.89875" lon="2.38236">
        <ele>54.400001525879</ele>
        <time>2015-07-27T19:12:14Z</time>
      </trkpt>
      <trkpt lat="48.89918" lon="2.38205">
        <ele>53</ele>
        <time>2015-07-27T19:12:28Z</time>
      </trkpt>
      <trkpt lat="48.89936" lon="2.38199">
        <ele>52</ele>
        <time>2015-07-27T19:12:31Z</time>
      </trkpt>
      <trkpt lat="48.89944" lon="2.38195">
        <ele>51.79999923706</ele>
        <time>2015-07-27T19:12:33Z</time>
      </trkpt>
      <trkpt lat="48.89964" lon="2.38184">
        <ele>51.20000076294</ele>
        <time>2015-07-27T19:12:38Z</time>
      </trkpt>
      <trkpt lat="48.89988" lon="2.38167">
        <ele>50.79999923706</ele>
        <time>2015-07-27T19:12:44Z</time>
      </trkpt>
      <trkpt lat="48.90008" lon="2.38152">
        <ele>50.599998474121</ele>
        <time>2015-07-27T19:12:49Z</time>
      </trkpt>
      <trkpt lat="48.90011" lon="2.38149">
        <ele>50.599998474121</ele>
        <time>2015-07-27T19:12:50Z</time>
      </trkpt>
      <trkpt lat="48.90023" lon="2.38129">
        <ele>50.599998474121</ele>
        <time>2015-07-27T19:12:55Z</time>
      </trkpt>
      <trkpt lat="48.90029" lon="2.38122">
        <ele>50.400001525879</ele>
        <time>2015-07-27T19:12:56Z</time>
      </trkpt>
      <trkpt lat="48.9004" lon="2.38108">
        <ele>50.400001525879</ele>
        <time>2015-07-27T19:12:58Z</time>
      </trkpt>
      <trkpt lat="48.90058" lon="2.38089">
        <ele>50.400001525879</ele>
        <time>2015-07-27T19:13:01Z</time>
      </trkpt>
      <trkpt lat="48.90064" lon="2.38089">
        <ele>50.400001525879</ele>
        <time>2015-07-27T19:13:02Z</time>
      </trkpt>
      <trkpt lat="48.90083" lon="2.38087">
        <ele>50.400001525879</ele>
        <time>2015-07-27T19:13:06Z</time>
      </trkpt>
      <trkpt lat="48.90092" lon="2.38085">
        <ele>50.400001525879</ele>
        <time>2015-07-27T19:13:08Z</time>
      </trkpt>
      <trkpt lat="48.90117" lon="2.38072">
        <ele>50.400001525879</ele>
        <time>2015-07-27T19:13:14Z</time>
      </trkpt>
      <trkpt lat="48.90125" lon="2.38067">
        <ele>50.400001525879</ele>
        <time>2015-07-27T19:13:16Z</time>
      </trkpt>
      <trkpt lat="48.9015" lon="2.38054">
        <ele>50.400001525879</ele>
        <time>2015-07-27T19:13:22Z</time>
      </trkpt>
      <trkpt lat="48.90167" lon="2.38044">
        <ele>50.400001525879</ele>
        <time>2015-07-27T19:13:26Z</time>
      </trkpt>
      <trkpt lat="48.90186" lon="2.38033">
        <ele>50.400001525879</ele>
        <time>2015-07-27T19:13:30Z</time>
      </trkpt>
      <trkpt lat="48.90204" lon="2.38022">
        <ele>50.400001525879</ele>
        <time>2015-07-27T19:13:35Z</time>
      </trkpt>
      <trkpt lat="48.9022" lon="2.38012">
        <ele>50.400001525879</ele>
        <time>2015-07-27T19:13:40Z</time>
      </trkpt>
      <trkpt lat="48.90238" lon="2.38002">
        <ele>50.400001525879</ele>
        <time>2015-07-27T19:13:46Z</time>
      </trkpt>
      <trkpt lat="48.90248" lon="2.37995">
        <ele>50.400001525879</ele>
        <time>2015-07-27T19:13:51Z</time>
      </trkpt>
      <trkpt lat="48.9025" lon="2.37994">
        <ele>50.400001525879</ele>
        <time>2015-07-27T19:13:52Z</time>
      </trkpt>
      <trkpt lat="48.90256" lon="2.37989">
        <ele>50.400001525879</ele>
        <time>2015-07-27T19:13:58Z</time>
      </trkpt>
      <trkpt lat="48.90262" lon="2.37985">
        <ele>50.400001525879</ele>
        <time>2015-07-27T19:14:05Z</time>
      </trkpt>
      <trkpt lat="48.90262" lon="2.37984">
        <ele>50.400001525879</ele>
        <time>2015-07-27T19:14:06Z</time>
      </trkpt>
      <trkpt lat="48.90267" lon="2.37981">
        <ele>50.400001525879</ele>
        <time>2015-07-27T19:14:10Z</time>
      </trkpt>
      <trkpt lat="48.90275" lon="2.37976">
        <ele>50.400001525879</ele>
        <time>2015-07-27T19:14:18Z</time>
      </trkpt>
      <trkpt lat="48.90282" lon="2.37972">
        <ele>50.400001525879</ele>
        <time>2015-07-27T19:14:24Z</time>
      </trkpt>
      <trkpt lat="48.90288" lon="2.3797">
        <ele>49.599998474121</ele>
        <time>2015-07-27T19:14:28Z</time>
      </trkpt>
      <trkpt lat="48.90294" lon="2.37965">
        <ele>49.20000076294</ele>
        <time>2015-07-27T19:14:32Z</time>
      </trkpt>
      <trkpt lat="48.90299" lon="2.37962">
        <ele>49.20000076294</ele>
        <time>2015-07-27T19:14:34Z</time>
      </trkpt>
      <trkpt lat="48.90319" lon="2.37952">
        <ele>48.79999923706</ele>
        <time>2015-07-27T19:14:41Z</time>
      </trkpt>
      <trkpt lat="48.90329" lon="2.37944">
        <ele>48.599998474121</ele>
        <time>2015-07-27T19:14:45Z</time>
      </trkpt>
      <trkpt lat="48.90352" lon="2.37932">
        <ele>48.400001525879</ele>
        <time>2015-07-27T19:14:55Z</time>
      </trkpt>
      <trkpt lat="48.90366" lon="2.37922">
        <ele>48.400001525879</ele>
        <time>2015-07-27T19:15:00Z</time>
      </trkpt>
      <trkpt lat="48.90381" lon="2.37915">
        <ele>48.400001525879</ele>
        <time>2015-07-27T19:15:05Z</time>
      </trkpt>
      <trkpt lat="48.90394" lon="2.37906">
        <ele>48.400001525879</ele>
        <time>2015-07-27T19:15:10Z</time>
      </trkpt>
      <trkpt lat="48.90408" lon="2.37904">
        <ele>48.400001525879</ele>
        <time>2015-07-27T19:15:16Z</time>
      </trkpt>
      <trkpt lat="48.90422" lon="2.37893">
        <ele>48.400001525879</ele>
        <time>2015-07-27T19:15:22Z</time>
      </trkpt>
      <trkpt lat="48.90438" lon="2.37883">
        <ele>48.400001525879</ele>
        <time>2015-07-27T19:15:27Z</time>
      </trkpt>
      <trkpt lat="48.90453" lon="2.37874">
        <ele>48.400001525879</ele>
        <time>2015-07-27T19:15:32Z</time>
      </trkpt>
      <trkpt lat="48.90471" lon="2.37863">
        <ele>48.400001525879</ele>
        <time>2015-07-27T19:15:37Z</time>
      </trkpt>
      <trkpt lat="48.90474" lon="2.37864">
        <ele>48.400001525879</ele>
        <time>2015-07-27T19:15:38Z</time>
      </trkpt>
      <trkpt lat="48.90478" lon="2.37864">
        <ele>48.400001525879</ele>
        <time>2015-07-27T19:15:41Z</time>
      </trkpt>
      <trkpt lat="48.90479" lon="2.37865">
        <ele>48.20000076294</ele>
        <time>2015-07-27T19:15:42Z</time>
      </trkpt>
      <trkpt lat="48.90481" lon="2.37867">
        <ele>47.20000076294</ele>
        <time>2015-07-27T19:15:49Z</time>
      </trkpt>
      <trkpt lat="48.90481" lon="2.3787">
        <ele>46.79999923706</ele>
        <time>2015-07-27T19:15:55Z</time>
      </trkpt>
      <trkpt lat="48.9048" lon="2.37874">
        <ele>46.400001525879</ele>
        <time>2015-07-27T19:16:21Z</time>
      </trkpt>
      <trkpt lat="48.9048" lon="2.37877">
        <ele>46.400001525879</ele>
        <time>2015-07-27T19:16:33Z</time>
      </trkpt>
      <trkpt lat="48.90482" lon="2.37879">
        <ele>46.400001525879</ele>
        <time>2015-07-27T19:16:35Z</time>
      </trkpt>
      <trkpt lat="48.90483" lon="2.37886">
        <ele>46.400001525879</ele>
        <time>2015-07-27T19:16:40Z</time>
      </trkpt>
      <trkpt lat="48.90483" lon="2.37885">
        <ele>46.400001525879</ele>
        <time>2015-07-27T19:16:42Z</time>
      </trkpt>
      <trkpt lat="48.90481" lon="2.37884">
        <ele>46.400001525879</ele>
        <time>2015-07-27T19:16:51Z</time>
      </trkpt>
      <trkpt lat="48.90473" lon="2.37877">
        <ele>58.400001525879</ele>
        <time>2015-07-27T19:18:25Z</time>
      </trkpt>
      <trkpt lat="48.90473" lon="2.37875">
        <ele>58.599998474121</ele>
        <time>2015-07-27T19:18:31Z</time>
      </trkpt>
      <trkpt lat="48.90473" lon="2.37885">
        <ele>60.599998474121</ele>
        <time>2015-07-27T19:18:49Z</time>
      </trkpt>
      <trkpt lat="48.90471" lon="2.37906">
        <ele>60.79999923706</ele>
        <time>2015-07-27T19:18:55Z</time>
      </trkpt>
      <trkpt lat="48.90468" lon="2.37934">
        <ele>60.79999923706</ele>
        <time>2015-07-27T19:19:01Z</time>
      </trkpt>
      <trkpt lat="48.90466" lon="2.37962">
        <ele>60.79999923706</ele>
        <time>2015-07-27T19:19:06Z</time>
      </trkpt>
      <trkpt lat="48.90466" lon="2.37991">
        <ele>61</ele>
        <time>2015-07-27T19:19:11Z</time>
      </trkpt>
      <trkpt lat="48.90463" lon="2.38021">
        <ele>61</ele>
        <time>2015-07-27T19:19:16Z</time>
      </trkpt>
      <trkpt lat="48.90463" lon="2.38046">
        <ele>61</ele>
        <time>2015-07-27T19:19:20Z</time>
      </trkpt>
      <trkpt lat="48.90462" lon="2.38075">
        <ele>61</ele>
        <time>2015-07-27T19:19:25Z</time>
      </trkpt>
      <trkpt lat="48.9046" lon="2.38107">
        <ele>61</ele>
        <time>2015-07-27T19:19:30Z</time>
      </trkpt>
      <trkpt lat="48.90458" lon="2.38136">
        <ele>61</ele>
        <time>2015-07-27T19:19:34Z</time>
      </trkpt>
      <trkpt lat="48.90456" lon="2.38144">
        <ele>61</ele>
        <time>2015-07-27T19:19:35Z</time>
      </trkpt>
      <trkpt lat="48.90455" lon="2.38172">
        <ele>61</ele>
        <time>2015-07-27T19:19:40Z</time>
      </trkpt>
      <trkpt lat="48.90456" lon="2.382">
        <ele>60.20000076294</ele>
        <time>2015-07-27T19:19:47Z</time>
      </trkpt>
      <trkpt lat="48.90459" lon="2.38206">
        <ele>59.599998474121</ele>
        <time>2015-07-27T19:19:52Z</time>
      </trkpt>
      <trkpt lat="48.90464" lon="2.38212">
        <ele>59.20000076294</ele>
        <time>2015-07-27T19:20:00Z</time>
      </trkpt>
      <trkpt lat="48.90465" lon="2.38214">
        <ele>59.20000076294</ele>
        <time>2015-07-27T19:20:01Z</time>
      </trkpt>
      <trkpt lat="48.90469" lon="2.38211">
        <ele>57.79999923706</ele>
        <time>2015-07-27T19:20:10Z</time>
      </trkpt>
      <trkpt lat="48.90479" lon="2.382">
        <ele>57.400001525879</ele>
        <time>2015-07-27T19:20:14Z</time>
      </trkpt>
      <trkpt lat="48.90495" lon="2.38183">
        <ele>57</ele>
        <time>2015-07-27T19:20:19Z</time>
      </trkpt>
      <trkpt lat="48.9051" lon="2.38166">
        <ele>56.20000076294</ele>
        <time>2015-07-27T19:20:23Z</time>
      </trkpt>
      <trkpt lat="48.90515" lon="2.38162">
        <ele>56</ele>
        <time>2015-07-27T19:20:24Z</time>
      </trkpt>
      <trkpt lat="48.90527" lon="2.38149">
        <ele>55.599998474121</ele>
        <time>2015-07-27T19:20:26Z</time>
      </trkpt>
      <trkpt lat="48.90547" lon="2.38127">
        <ele>55.20000076294</ele>
        <time>2015-07-27T19:20:32Z</time>
      </trkpt>
      <trkpt lat="48.90563" lon="2.38111">
        <ele>55</ele>
        <time>2015-07-27T19:20:36Z</time>
      </trkpt>
      <trkpt lat="48.9057" lon="2.38104">
        <ele>55</ele>
        <time>2015-07-27T19:20:38Z</time>
      </trkpt>
      <trkpt lat="48.906" lon="2.38071">
        <ele>54.79999923706</ele>
        <time>2015-07-27T19:20:47Z</time>
      </trkpt>
      <trkpt lat="48.90619" lon="2.38052">
        <ele>54.79999923706</ele>
        <time>2015-07-27T19:20:53Z</time>
      </trkpt>
      <trkpt lat="48.90633" lon="2.38036">
        <ele>54.79999923706</ele>
        <time>2015-07-27T19:20:56Z</time>
      </trkpt>
      <trkpt lat="48.90646" lon="2.38025">
        <ele>54.79999923706</ele>
        <time>2015-07-27T19:21:00Z</time>
      </trkpt>
      <trkpt lat="48.90665" lon="2.38005">
        <ele>54.79999923706</ele>
        <time>2015-07-27T19:21:05Z</time>
      </trkpt>
      <trkpt lat="48.90672" lon="2.37997">
        <ele>54.79999923706</ele>
        <time>2015-07-27T19:21:06Z</time>
      </trkpt>
      <trkpt lat="48.90685" lon="2.37982">
        <ele>54.79999923706</ele>
        <time>2015-07-27T19:21:11Z</time>
      </trkpt>
      <trkpt lat="48.90705" lon="2.37963">
        <ele>54.79999923706</ele>
        <time>2015-07-27T19:21:17Z</time>
      </trkpt>
      <trkpt lat="48.90722" lon="2.37945">
        <ele>54.599998474121</ele>
        <time>2015-07-27T19:21:22Z</time>
      </trkpt>
      <trkpt lat="48.90735" lon="2.37929">
        <ele>54.599998474121</ele>
        <time>2015-07-27T19:21:26Z</time>
      </trkpt>
      <trkpt lat="48.90752" lon="2.37911">
        <ele>54</ele>
        <time>2015-07-27T19:21:29Z</time>
      </trkpt>
      <trkpt lat="48.90776" lon="2.37889">
        <ele>53.400001525879</ele>
        <time>2015-07-27T19:21:35Z</time>
      </trkpt>
      <trkpt lat="48.90792" lon="2.37871">
        <ele>53.20000076294</ele>
        <time>2015-07-27T19:21:40Z</time>
      </trkpt>
      <trkpt lat="48.90809" lon="2.37856">
        <ele>53</ele>
        <time>2015-07-27T19:21:45Z</time>
      </trkpt>
      <trkpt lat="48.90812" lon="2.37853">
        <ele>53</ele>
        <time>2015-07-27T19:21:46Z</time>
      </trkpt>
      <trkpt lat="48.90817" lon="2.37844">
        <ele>52.79999923706</ele>
        <time>2015-07-27T19:21:48Z</time>
      </trkpt>
      <trkpt lat="48.9083" lon="2.37833">
        <ele>52.400001525879</ele>
        <time>2015-07-27T19:21:51Z</time>
      </trkpt>
      <trkpt lat="48.90853" lon="2.37822">
        <ele>51.599998474121</ele>
        <time>2015-07-27T19:21:58Z</time>
      </trkpt>
      <trkpt lat="48.90865" lon="2.37815">
        <ele>51.20000076294</ele>
        <time>2015-07-27T19:22:01Z</time>
      </trkpt>
      <trkpt lat="48.90867" lon="2.37813">
        <ele>51.20000076294</ele>
        <time>2015-07-27T19:22:02Z</time>
      </trkpt>
      <trkpt lat="48.9088" lon="2.37811">
        <ele>51</ele>
        <time>2015-07-27T19:22:08Z</time>
      </trkpt>
      <trkpt lat="48.90904" lon="2.37795">
        <ele>50.20000076294</ele>
        <time>2015-07-27T19:22:15Z</time>
      </trkpt>
      <trkpt lat="48.90918" lon="2.37793">
        <ele>49.79999923706</ele>
        <time>2015-07-27T19:22:18Z</time>
      </trkpt>
      <trkpt lat="48.90938" lon="2.37787">
        <ele>49.400001525879</ele>
        <time>2015-07-27T19:22:23Z</time>
      </trkpt>
      <trkpt lat="48.90963" lon="2.3778">
        <ele>49</ele>
        <time>2015-07-27T19:22:29Z</time>
      </trkpt>
      <trkpt lat="48.90985" lon="2.37775">
        <ele>48.79999923706</ele>
        <time>2015-07-27T19:22:34Z</time>
      </trkpt>
      <trkpt lat="48.91003" lon="2.37771">
        <ele>48.79999923706</ele>
        <time>2015-07-27T19:22:38Z</time>
      </trkpt>
      <trkpt lat="48.91025" lon="2.37765">
        <ele>48.599998474121</ele>
        <time>2015-07-27T19:22:43Z</time>
      </trkpt>
      <trkpt lat="48.91033" lon="2.37761">
        <ele>48.599998474121</ele>
        <time>2015-07-27T19:22:44Z</time>
      </trkpt>
      <trkpt lat="48.91041" lon="2.37756">
        <ele>48.599998474121</ele>
        <time>2015-07-27T19:22:46Z</time>
      </trkpt>
      <trkpt lat="48.91063" lon="2.37743">
        <ele>48.599998474121</ele>
        <time>2015-07-27T19:22:52Z</time>
      </trkpt>
      <trkpt lat="48.9108" lon="2.37733">
        <ele>48.599998474121</ele>
        <time>2015-07-27T19:22:56Z</time>
      </trkpt>
      <trkpt lat="48.9109" lon="2.37729">
        <ele>48.599998474121</ele>
        <time>2015-07-27T19:22:58Z</time>
      </trkpt>
      <trkpt lat="48.9111" lon="2.37718">
        <ele>48.599998474121</ele>
        <time>2015-07-27T19:23:02Z</time>
      </trkpt>
      <trkpt lat="48.9113" lon="2.37707">
        <ele>48.599998474121</ele>
        <time>2015-07-27T19:23:07Z</time>
      </trkpt>
      <trkpt lat="48.91134" lon="2.37706">
        <ele>48.599998474121</ele>
        <time>2015-07-27T19:23:08Z</time>
      </trkpt>
      <trkpt lat="48.91155" lon="2.37711">
        <ele>48.599998474121</ele>
        <time>2015-07-27T19:23:14Z</time>
      </trkpt>
      <trkpt lat="48.91163" lon="2.37713">
        <ele>48.599998474121</ele>
        <time>2015-07-27T19:23:16Z</time>
      </trkpt>
      <trkpt lat="48.91174" lon="2.37718">
        <ele>48.599998474121</ele>
        <time>2015-07-27T19:23:19Z</time>
      </trkpt>
      <trkpt lat="48.91185" lon="2.37725">
        <ele>48.599998474121</ele>
        <time>2015-07-27T19:23:21Z</time>
      </trkpt>
      <trkpt lat="48.91198" lon="2.37736">
        <ele>48.599998474121</ele>
        <time>2015-07-27T19:23:25Z</time>
      </trkpt>
      <trkpt lat="48.91215" lon="2.37752">
        <ele>48.599998474121</ele>
        <time>2015-07-27T19:23:30Z</time>
      </trkpt>
      <trkpt lat="48.91232" lon="2.37765">
        <ele>48.599998474121</ele>
        <time>2015-07-27T19:23:35Z</time>
      </trkpt>
      <trkpt lat="48.91249" lon="2.37779">
        <ele>48.599998474121</ele>
        <time>2015-07-27T19:23:38Z</time>
      </trkpt>
      <trkpt lat="48.91254" lon="2.37782">
        <ele>48.599998474121</ele>
        <time>2015-07-27T19:23:40Z</time>
      </trkpt>
      <trkpt lat="48.91263" lon="2.37789">
        <ele>48.599998474121</ele>
        <time>2015-07-27T19:23:41Z</time>
      </trkpt>
      <trkpt lat="48.91286" lon="2.378">
        <ele>48.599998474121</ele>
        <time>2015-07-27T19:23:46Z</time>
      </trkpt>
      <trkpt lat="48.91303" lon="2.37809">
        <ele>48.599998474121</ele>
        <time>2015-07-27T19:23:50Z</time>
      </trkpt>
      <trkpt lat="48.91322" lon="2.3782">
        <ele>48.599998474121</ele>
        <time>2015-07-27T19:23:54Z</time>
      </trkpt>
      <trkpt lat="48.91339" lon="2.37829">
        <ele>48.599998474121</ele>
        <time>2015-07-27T19:23:58Z</time>
      </trkpt>
      <trkpt lat="48.91357" lon="2.37836">
        <ele>47.79999923706</ele>
        <time>2015-07-27T19:24:01Z</time>
      </trkpt>
      <trkpt lat="48.91375" lon="2.37841">
        <ele>47.400001525879</ele>
        <time>2015-07-27T19:24:06Z</time>
      </trkpt>
      <trkpt lat="48.91388" lon="2.37843">
        <ele>47.20000076294</ele>
        <time>2015-07-27T19:24:09Z</time>
      </trkpt>
      <trkpt lat="48.91412" lon="2.37852">
        <ele>46.79999923706</ele>
        <time>2015-07-27T19:24:14Z</time>
      </trkpt>
      <trkpt lat="48.91415" lon="2.37852">
        <ele>46.79999923706</ele>
        <time>2015-07-27T19:24:15Z</time>
      </trkpt>
      <trkpt lat="48.91436" lon="2.37859">
        <ele>46.20000076294</ele>
        <time>2015-07-27T19:24:19Z</time>
      </trkpt>
      <trkpt lat="48.91454" lon="2.37863">
        <ele>45.599998474121</ele>
        <time>2015-07-27T19:24:23Z</time>
      </trkpt>
      <trkpt lat="48.91472" lon="2.37869">
        <ele>45.20000076294</ele>
        <time>2015-07-27T19:24:26Z</time>
      </trkpt>
      <trkpt lat="48.91492" lon="2.37871">
        <ele>45</ele>
        <time>2015-07-27T19:24:31Z</time>
      </trkpt>
      <trkpt lat="48.9151" lon="2.37875">
        <ele>44.79999923706</ele>
        <time>2015-07-27T19:24:35Z</time>
      </trkpt>
      <trkpt lat="48.91529" lon="2.37884">
        <ele>44.599998474121</ele>
        <time>2015-07-27T19:24:39Z</time>
      </trkpt>
      <trkpt lat="48.91539" lon="2.37887">
        <ele>44.599998474121</ele>
        <time>2015-07-27T19:24:41Z</time>
      </trkpt>
      <trkpt lat="48.91561" lon="2.37903">
        <ele>44.599998474121</ele>
        <time>2015-07-27T19:24:46Z</time>
      </trkpt>
      <trkpt lat="48.91565" lon="2.37905">
        <ele>44.599998474121</ele>
        <time>2015-07-27T19:24:47Z</time>
      </trkpt>
      <trkpt lat="48.91588" lon="2.37919">
        <ele>43.599998474121</ele>
        <time>2015-07-27T19:24:52Z</time>
      </trkpt>
      <trkpt lat="48.91607" lon="2.37931">
        <ele>43.20000076294</ele>
        <time>2015-07-27T19:24:56Z</time>
      </trkpt>
      <trkpt lat="48.91615" lon="2.37934">
        <ele>43</ele>
        <time>2015-07-27T19:24:59Z</time>
      </trkpt>
      <trkpt lat="48.91639" lon="2.37944">
        <ele>42.79999923706</ele>
        <time>2015-07-27T19:25:04Z</time>
      </trkpt>
      <trkpt lat="48.91645" lon="2.37946">
        <ele>42.79999923706</ele>
        <time>2015-07-27T19:25:05Z</time>
      </trkpt>
      <trkpt lat="48.91656" lon="2.37956">
        <ele>42.599998474121</ele>
        <time>2015-07-27T19:25:08Z</time>
      </trkpt>
      <trkpt lat="48.91668" lon="2.37965">
        <ele>42.599998474121</ele>
        <time>2015-07-27T19:25:11Z</time>
      </trkpt>
      <trkpt lat="48.91676" lon="2.3797">
        <ele>42.599998474121</ele>
        <time>2015-07-27T19:25:13Z</time>
      </trkpt>
      <trkpt lat="48.91694" lon="2.37974">
        <ele>42.400001525879</ele>
        <time>2015-07-27T19:25:20Z</time>
      </trkpt>
      <trkpt lat="48.91698" lon="2.37976">
        <ele>42.20000076294</ele>
        <time>2015-07-27T19:25:22Z</time>
      </trkpt>
      <trkpt lat="48.91707" lon="2.37983">
        <ele>41.599998474121</ele>
        <time>2015-07-27T19:25:25Z</time>
      </trkpt>
      <trkpt lat="48.91727" lon="2.37997">
        <ele>41</ele>
        <time>2015-07-27T19:25:31Z</time>
      </trkpt>
      <trkpt lat="48.91745" lon="2.38008">
        <ele>40.79999923706</ele>
        <time>2015-07-27T19:25:36Z</time>
      </trkpt>
      <trkpt lat="48.91762" lon="2.3802">
        <ele>40.599998474121</ele>
        <time>2015-07-27T19:25:41Z</time>
      </trkpt>
      <trkpt lat="48.91801" lon="2.3804">
        <ele>40.400001525879</ele>
        <time>2015-07-27T19:25:52Z</time>
      </trkpt>
      <trkpt lat="48.9182" lon="2.38048">
        <ele>40.400001525879</ele>
        <time>2015-07-27T19:25:56Z</time>
      </trkpt>
      <trkpt lat="48.9184" lon="2.38057">
        <ele>40.400001525879</ele>
        <time>2015-07-27T19:26:02Z</time>
      </trkpt>
      <trkpt lat="48.91852" lon="2.38061">
        <ele>40.400001525879</ele>
        <time>2015-07-27T19:26:05Z</time>
      </trkpt>
      <trkpt lat="48.91868" lon="2.38058">
        <ele>40.400001525879</ele>
        <time>2015-07-27T19:26:09Z</time>
      </trkpt>
      <trkpt lat="48.91893" lon="2.38046">
        <ele>40.400001525879</ele>
        <time>2015-07-27T19:26:15Z</time>
      </trkpt>
      <trkpt lat="48.91911" lon="2.38037">
        <ele>40.400001525879</ele>
        <time>2015-07-27T19:26:18Z</time>
      </trkpt>
      <trkpt lat="48.91931" lon="2.38027">
        <ele>40.400001525879</ele>
        <time>2015-07-27T19:26:22Z</time>
      </trkpt>
      <trkpt lat="48.91952" lon="2.38017">
        <ele>40.20000076294</ele>
        <time>2015-07-27T19:26:27Z</time>
      </trkpt>
      <trkpt lat="48.91968" lon="2.38011">
        <ele>39.599998474121</ele>
        <time>2015-07-27T19:26:30Z</time>
      </trkpt>
      <trkpt lat="48.91982" lon="2.38009">
        <ele>39.20000076294</ele>
        <time>2015-07-27T19:26:33Z</time>
      </trkpt>
      <trkpt lat="48.91994" lon="2.38019">
        <ele>38.79999923706</ele>
        <time>2015-07-27T19:26:37Z</time>
      </trkpt>
      <trkpt lat="48.92012" lon="2.38041">
        <ele>38.599998474121</ele>
        <time>2015-07-27T19:26:43Z</time>
      </trkpt>
      <trkpt lat="48.92029" lon="2.38059">
        <ele>38.400001525879</ele>
        <time>2015-07-27T19:26:49Z</time>
      </trkpt>
      <trkpt lat="48.92052" lon="2.38073">
        <ele>38.400001525879</ele>
        <time>2015-07-27T19:26:54Z</time>
      </trkpt>
      <trkpt lat="48.9206" lon="2.38075">
        <ele>38.400001525879</ele>
        <time>2015-07-27T19:26:56Z</time>
      </trkpt>
      <trkpt lat="48.92083" lon="2.38076">
        <ele>38.400001525879</ele>
        <time>2015-07-27T19:27:02Z</time>
      </trkpt>
      <trkpt lat="48.92103" lon="2.38073">
        <ele>38.400001525879</ele>
        <time>2015-07-27T19:27:07Z</time>
      </trkpt>
      <trkpt lat="48.92121" lon="2.3808">
        <ele>38.400001525879</ele>
        <time>2015-07-27T19:27:13Z</time>
      </trkpt>
      <trkpt lat="48.92135" lon="2.3809">
        <ele>38.400001525879</ele>
        <time>2015-07-27T19:27:18Z</time>
      </trkpt>
      <trkpt lat="48.92154" lon="2.38102">
        <ele>38.79999923706</ele>
        <time>2015-07-27T19:27:23Z</time>
      </trkpt>
      <trkpt lat="48.92171" lon="2.38113">
        <ele>39.400001525879</ele>
        <time>2015-07-27T19:27:26Z</time>
      </trkpt>
      <trkpt lat="48.9219" lon="2.38126">
        <ele>39.599998474121</ele>
        <time>2015-07-27T19:27:30Z</time>
      </trkpt>
      <trkpt lat="48.92209" lon="2.38141">
        <ele>40</ele>
        <time>2015-07-27T19:27:34Z</time>
      </trkpt>
      <trkpt lat="48.92224" lon="2.38153">
        <ele>40</ele>
        <time>2015-07-27T19:27:38Z</time>
      </trkpt>
      <trkpt lat="48.92234" lon="2.38167">
        <ele>40.20000076294</ele>
        <time>2015-07-27T19:27:42Z</time>
      </trkpt>
      <trkpt lat="48.92243" lon="2.38176">
        <ele>40.20000076294</ele>
        <time>2015-07-27T19:27:46Z</time>
      </trkpt>
      <trkpt lat="48.92258" lon="2.38173">
        <ele>40.20000076294</ele>
        <time>2015-07-27T19:27:53Z</time>
      </trkpt>
      <trkpt lat="48.92261" lon="2.38172">
        <ele>40.20000076294</ele>
        <time>2015-07-27T19:27:55Z</time>
      </trkpt>
      <trkpt lat="48.92266" lon="2.38165">
        <ele>40.20000076294</ele>
        <time>2015-07-27T19:27:59Z</time>
      </trkpt>
      <trkpt lat="48.92269" lon="2.38149">
        <ele>40.20000076294</ele>
        <time>2015-07-27T19:28:03Z</time>
      </trkpt>
      <trkpt lat="48.92283" lon="2.38132">
        <ele>40.20000076294</ele>
        <time>2015-07-27T19:28:09Z</time>
      </trkpt>
      <trkpt lat="48.92289" lon="2.38119">
        <ele>40.400001525879</ele>
        <time>2015-07-27T19:28:13Z</time>
      </trkpt>
      <trkpt lat="48.9229" lon="2.38115">
        <ele>40.400001525879</ele>
        <time>2015-07-27T19:28:14Z</time>
      </trkpt>
      <trkpt lat="48.92326" lon="2.38033">
        <ele>40.400001525879</ele>
        <time>2015-07-27T19:28:26Z</time>
      </trkpt>
      <trkpt lat="48.92341" lon="2.38035">
        <ele>40.400001525879</ele>
        <time>2015-07-27T19:28:29Z</time>
      </trkpt>
      <trkpt lat="48.92352" lon="2.38021">
        <ele>40.400001525879</ele>
        <time>2015-07-27T19:28:33Z</time>
      </trkpt>
      <trkpt lat="48.92364" lon="2.38008">
        <ele>40.400001525879</ele>
        <time>2015-07-27T19:28:37Z</time>
      </trkpt>
      <trkpt lat="48.92377" lon="2.37989">
        <ele>40.400001525879</ele>
        <time>2015-07-27T19:28:44Z</time>
      </trkpt>
      <trkpt lat="48.92385" lon="2.37976">
        <ele>40.400001525879</ele>
        <time>2015-07-27T19:28:48Z</time>
      </trkpt>
      <trkpt lat="48.92395" lon="2.37963">
        <ele>40.400001525879</ele>
        <time>2015-07-27T19:28:53Z</time>
      </trkpt>
      <trkpt lat="48.92405" lon="2.37948">
        <ele>40.400001525879</ele>
        <time>2015-07-27T19:28:58Z</time>
      </trkpt>
      <trkpt lat="48.9242" lon="2.37931">
        <ele>40.400001525879</ele>
        <time>2015-07-27T19:29:04Z</time>
      </trkpt>
      <trkpt lat="48.92433" lon="2.37917">
        <ele>40.400001525879</ele>
        <time>2015-07-27T19:29:09Z</time>
      </trkpt>
      <trkpt lat="48.92443" lon="2.37905">
        <ele>40.400001525879</ele>
        <time>2015-07-27T19:29:13Z</time>
      </trkpt>
      <trkpt lat="48.92454" lon="2.37892">
        <ele>40.400001525879</ele>
        <time>2015-07-27T19:29:17Z</time>
      </trkpt>
      <trkpt lat="48.92459" lon="2.37887">
        <ele>40.400001525879</ele>
        <time>2015-07-27T19:29:19Z</time>
      </trkpt>
      <trkpt lat="48.92466" lon="2.37879">
        <ele>40.400001525879</ele>
        <time>2015-07-27T19:29:23Z</time>
      </trkpt>
      <trkpt lat="48.92466" lon="2.3787">
        <ele>40.400001525879</ele>
        <time>2015-07-27T19:29:29Z</time>
      </trkpt>
      <trkpt lat="48.92466" lon="2.37861">
        <ele>40.400001525879</ele>
        <time>2015-07-27T19:29:35Z</time>
      </trkpt>
      <trkpt lat="48.92465" lon="2.37856">
        <ele>40.400001525879</ele>
        <time>2015-07-27T19:29:37Z</time>
      </trkpt>
      <trkpt lat="48.92472" lon="2.37848">
        <ele>40.400001525879</ele>
        <time>2015-07-27T19:29:41Z</time>
      </trkpt>
      <trkpt lat="48.92475" lon="2.37845">
        <ele>40.400001525879</ele>
        <time>2015-07-27T19:29:43Z</time>
      </trkpt>
      <trkpt lat="48.92492" lon="2.37834">
        <ele>40.400001525879</ele>
        <time>2015-07-27T19:29:50Z</time>
      </trkpt>
      <trkpt lat="48.92493" lon="2.37832">
        <ele>40.400001525879</ele>
        <time>2015-07-27T19:29:51Z</time>
      </trkpt>
      <trkpt lat="48.92498" lon="2.37822">
        <ele>40.400001525879</ele>
        <time>2015-07-27T19:29:55Z</time>
      </trkpt>
      <trkpt lat="48.92499" lon="2.3782">
        <ele>40.400001525879</ele>
        <time>2015-07-27T19:29:56Z</time>
      </trkpt>
      <trkpt lat="48.92511" lon="2.37806">
        <ele>40.400001525879</ele>
        <time>2015-07-27T19:30:01Z</time>
      </trkpt>
      <trkpt lat="48.92522" lon="2.37793">
        <ele>40.400001525879</ele>
        <time>2015-07-27T19:30:06Z</time>
      </trkpt>
      <trkpt lat="48.92529" lon="2.37792">
        <ele>40.400001525879</ele>
        <time>2015-07-27T19:30:10Z</time>
      </trkpt>
      <trkpt lat="48.92542" lon="2.37794">
        <ele>40.400001525879</ele>
        <time>2015-07-27T19:30:15Z</time>
      </trkpt>
      <trkpt lat="48.92556" lon="2.37782">
        <ele>40.400001525879</ele>
        <time>2015-07-27T19:30:19Z</time>
      </trkpt>
      <trkpt lat="48.92562" lon="2.37771">
        <ele>40.400001525879</ele>
        <time>2015-07-27T19:30:21Z</time>
      </trkpt>
      <trkpt lat="48.92577" lon="2.3775">
        <ele>40.400001525879</ele>
        <time>2015-07-27T19:30:25Z</time>
      </trkpt>
      <trkpt lat="48.9259" lon="2.37733">
        <ele>40.400001525879</ele>
        <time>2015-07-27T19:30:31Z</time>
      </trkpt>
      <trkpt lat="48.92591" lon="2.37726">
        <ele>40.400001525879</ele>
        <time>2015-07-27T19:30:34Z</time>
      </trkpt>
      <trkpt lat="48.92591" lon="2.37724">
        <ele>40.400001525879</ele>
        <time>2015-07-27T19:30:35Z</time>
      </trkpt>
      <trkpt lat="48.92591" lon="2.37729">
        <ele>40.400001525879</ele>
        <time>2015-07-27T19:30:46Z</time>
      </trkpt>
      <trkpt lat="48.92594" lon="2.37731">
        <ele>40.400001525879</ele>
        <time>2015-07-27T19:31:03Z</time>
      </trkpt>
      <trkpt lat="48.92595" lon="2.37734">
        <ele>40.400001525879</ele>
        <time>2015-07-27T19:31:04Z</time>
      </trkpt>
      <trkpt lat="48.92595" lon="2.37734">
        <ele>40.400001525879</ele>
        <time>2015-07-27T19:31:07Z</time>
      </trkpt>
      <trkpt lat="48.92595" lon="2.37734">
        <ele>40.400001525879</ele>
        <time>2015-07-27T19:31:18Z</time>
      </trkpt>
      <trkpt lat="48.92596" lon="2.37732">
        <ele>40.400001525879</ele>
        <time>2015-07-27T19:31:35Z</time>
      </trkpt>
      <trkpt lat="48.92607" lon="2.3772">
        <ele>40.400001525879</ele>
        <time>2015-07-27T19:31:41Z</time>
      </trkpt>
      <trkpt lat="48.92631" lon="2.37684">
        <ele>40.400001525879</ele>
        <time>2015-07-27T19:31:51Z</time>
      </trkpt>
      <trkpt lat="48.92648" lon="2.37663">
        <ele>40.400001525879</ele>
        <time>2015-07-27T19:31:56Z</time>
      </trkpt>
      <trkpt lat="48.92662" lon="2.37649">
        <ele>40.400001525879</ele>
        <time>2015-07-27T19:32:01Z</time>
      </trkpt>
      <trkpt lat="48.92683" lon="2.37627">
        <ele>40.400001525879</ele>
        <time>2015-07-27T19:32:06Z</time>
      </trkpt>
      <trkpt lat="48.927" lon="2.37607">
        <ele>40.400001525879</ele>
        <time>2015-07-27T19:32:11Z</time>
      </trkpt>
      <trkpt lat="48.92714" lon="2.37589">
        <ele>40.400001525879</ele>
        <time>2015-07-27T19:32:16Z</time>
      </trkpt>
      <trkpt lat="48.92726" lon="2.37573">
        <ele>40.400001525879</ele>
        <time>2015-07-27T19:32:19Z</time>
      </trkpt>
      <trkpt lat="48.92744" lon="2.37557">
        <ele>40.400001525879</ele>
        <time>2015-07-27T19:32:25Z</time>
      </trkpt>
      <trkpt lat="48.92756" lon="2.37536">
        <ele>40.400001525879</ele>
        <time>2015-07-27T19:32:31Z</time>
      </trkpt>
      <trkpt lat="48.92769" lon="2.37515">
        <ele>40.400001525879</ele>
        <time>2015-07-27T19:32:36Z</time>
      </trkpt>
      <trkpt lat="48.92771" lon="2.37495">
        <ele>40.400001525879</ele>
        <time>2015-07-27T19:32:40Z</time>
      </trkpt>
      <trkpt lat="48.92775" lon="2.3747">
        <ele>40.400001525879</ele>
        <time>2015-07-27T19:32:45Z</time>
      </trkpt>
      <trkpt lat="48.92782" lon="2.37453">
        <ele>40.400001525879</ele>
        <time>2015-07-27T19:32:48Z</time>
      </trkpt>
      <trkpt lat="48.92784" lon="2.37446">
        <ele>40.400001525879</ele>
        <time>2015-07-27T19:32:50Z</time>
      </trkpt>
      <trkpt lat="48.92786" lon="2.37433">
        <ele>40.400001525879</ele>
        <time>2015-07-27T19:32:55Z</time>
      </trkpt>
      <trkpt lat="48.92787" lon="2.37426">
        <ele>40.400001525879</ele>
        <time>2015-07-27T19:33:00Z</time>
      </trkpt>
      <trkpt lat="48.92792" lon="2.37407">
        <ele>40.400001525879</ele>
        <time>2015-07-27T19:33:04Z</time>
      </trkpt>
      <trkpt lat="48.92794" lon="2.37401">
        <ele>40.400001525879</ele>
        <time>2015-07-27T19:33:05Z</time>
      </trkpt>
      <trkpt lat="48.92801" lon="2.3737">
        <ele>40.400001525879</ele>
        <time>2015-07-27T19:33:09Z</time>
      </trkpt>
      <trkpt lat="48.92805" lon="2.37353">
        <ele>40.400001525879</ele>
        <time>2015-07-27T19:33:11Z</time>
      </trkpt>
      <trkpt lat="48.92817" lon="2.37319">
        <ele>40.400001525879</ele>
        <time>2015-07-27T19:33:15Z</time>
      </trkpt>
      <trkpt lat="48.92819" lon="2.3731">
        <ele>40.400001525879</ele>
        <time>2015-07-27T19:33:16Z</time>
      </trkpt>
      <trkpt lat="48.92829" lon="2.37273">
        <ele>40.400001525879</ele>
        <time>2015-07-27T19:33:19Z</time>
      </trkpt>
      <trkpt lat="48.92836" lon="2.37244">
        <ele>40.400001525879</ele>
        <time>2015-07-27T19:33:23Z</time>
      </trkpt>
      <trkpt lat="48.92844" lon="2.37217">
        <ele>40.20000076294</ele>
        <time>2015-07-27T19:33:25Z</time>
      </trkpt>
      <trkpt lat="48.92851" lon="2.3719">
        <ele>39.599998474121</ele>
        <time>2015-07-27T19:33:29Z</time>
      </trkpt>
      <trkpt lat="48.92854" lon="2.37181">
        <ele>39.400001525879</ele>
        <time>2015-07-27T19:33:30Z</time>
      </trkpt>
      <trkpt lat="48.92866" lon="2.37148">
        <ele>39</ele>
        <time>2015-07-27T19:33:34Z</time>
      </trkpt>
      <trkpt lat="48.92874" lon="2.37123">
        <ele>38.79999923706</ele>
        <time>2015-07-27T19:33:36Z</time>
      </trkpt>
      <trkpt lat="48.92884" lon="2.37096">
        <ele>38.79999923706</ele>
        <time>2015-07-27T19:33:40Z</time>
      </trkpt>
      <trkpt lat="48.92894" lon="2.3707">
        <ele>38.599998474121</ele>
        <time>2015-07-27T19:33:43Z</time>
      </trkpt>
      <trkpt lat="48.92903" lon="2.37044">
        <ele>38.599998474121</ele>
        <time>2015-07-27T19:33:46Z</time>
      </trkpt>
      <trkpt lat="48.92914" lon="2.37016">
        <ele>38.400001525879</ele>
        <time>2015-07-27T19:33:51Z</time>
      </trkpt>
      <trkpt lat="48.92923" lon="2.36991">
        <ele>38.400001525879</ele>
        <time>2015-07-27T19:33:55Z</time>
      </trkpt>
      <trkpt lat="48.92934" lon="2.36961">
        <ele>38.400001525879</ele>
        <time>2015-07-27T19:34:00Z</time>
      </trkpt>
      <trkpt lat="48.92938" lon="2.3695">
        <ele>38.400001525879</ele>
        <time>2015-07-27T19:34:01Z</time>
      </trkpt>
      <trkpt lat="48.92951" lon="2.36914">
        <ele>38.400001525879</ele>
        <time>2015-07-27T19:34:08Z</time>
      </trkpt>
      <trkpt lat="48.92959" lon="2.36888">
        <ele>38.400001525879</ele>
        <time>2015-07-27T19:34:11Z</time>
      </trkpt>
      <trkpt lat="48.92962" lon="2.36881">
        <ele>38.400001525879</ele>
        <time>2015-07-27T19:34:13Z</time>
      </trkpt>
      <trkpt lat="48.9297" lon="2.3686">
        <ele>38.400001525879</ele>
        <time>2015-07-27T19:34:16Z</time>
      </trkpt>
      <trkpt lat="48.92979" lon="2.36832">
        <ele>38.400001525879</ele>
        <time>2015-07-27T19:34:19Z</time>
      </trkpt>
      <trkpt lat="48.92988" lon="2.36805">
        <ele>38.400001525879</ele>
        <time>2015-07-27T19:34:24Z</time>
      </trkpt>
      <trkpt lat="48.92998" lon="2.36779">
        <ele>38.400001525879</ele>
        <time>2015-07-27T19:34:28Z</time>
      </trkpt>
      <trkpt lat="48.93007" lon="2.36754">
        <ele>37.599998474121</ele>
        <time>2015-07-27T19:34:32Z</time>
      </trkpt>
      <trkpt lat="48.9301" lon="2.36749">
        <ele>37.400001525879</ele>
        <time>2015-07-27T19:34:33Z</time>
      </trkpt>
      <trkpt lat="48.93018" lon="2.36748">
        <ele>37.20000076294</ele>
        <time>2015-07-27T19:34:36Z</time>
      </trkpt>
      <trkpt lat="48.9302" lon="2.36748">
        <ele>36.79999923706</ele>
        <time>2015-07-27T19:34:40Z</time>
      </trkpt>
      <trkpt lat="48.93021" lon="2.3673">
        <ele>36.400001525879</ele>
        <time>2015-07-27T19:34:55Z</time>
      </trkpt>
      <trkpt lat="48.9302" lon="2.36706">
        <ele>36.400001525879</ele>
        <time>2015-07-27T19:35:00Z</time>
      </trkpt>
      <trkpt lat="48.93017" lon="2.36677">
        <ele>36.20000076294</ele>
        <time>2015-07-27T19:35:05Z</time>
      </trkpt>
      <trkpt lat="48.93014" lon="2.36644">
        <ele>36.20000076294</ele>
        <time>2015-07-27T19:35:10Z</time>
      </trkpt>
      <trkpt lat="48.93011" lon="2.36611">
        <ele>36.20000076294</ele>
        <time>2015-07-27T19:35:15Z</time>
      </trkpt>
      <trkpt lat="48.93008" lon="2.36581">
        <ele>36.20000076294</ele>
        <time>2015-07-27T19:35:21Z</time>
      </trkpt>
      <trkpt lat="48.93007" lon="2.36573">
        <ele>36.20000076294</ele>
        <time>2015-07-27T19:35:23Z</time>
      </trkpt>
      <trkpt lat="48.93009" lon="2.36568">
        <ele>36.20000076294</ele>
        <time>2015-07-27T19:35:25Z</time>
      </trkpt>
      <trkpt lat="48.93015" lon="2.36565">
        <ele>36.20000076294</ele>
        <time>2015-07-27T19:35:30Z</time>
      </trkpt>
      <trkpt lat="48.93017" lon="2.36556">
        <ele>36.20000076294</ele>
        <time>2015-07-27T19:35:33Z</time>
      </trkpt>
      <trkpt lat="48.93027" lon="2.36544">
        <ele>36.20000076294</ele>
        <time>2015-07-27T19:35:38Z</time>
      </trkpt>
      <trkpt lat="48.93038" lon="2.36546">
        <ele>36.20000076294</ele>
        <time>2015-07-27T19:35:42Z</time>
      </trkpt>
      <trkpt lat="48.9305" lon="2.36534">
        <ele>36.20000076294</ele>
        <time>2015-07-27T19:35:47Z</time>
      </trkpt>
      <trkpt lat="48.93054" lon="2.36526">
        <ele>36.20000076294</ele>
        <time>2015-07-27T19:35:50Z</time>
      </trkpt>
      <trkpt lat="48.93067" lon="2.36512">
        <ele>36.20000076294</ele>
        <time>2015-07-27T19:35:54Z</time>
      </trkpt>
      <trkpt lat="48.93073" lon="2.36505">
        <ele>36.20000076294</ele>
        <time>2015-07-27T19:35:55Z</time>
      </trkpt>
      <trkpt lat="48.93093" lon="2.36482">
        <ele>36.20000076294</ele>
        <time>2015-07-27T19:36:01Z</time>
      </trkpt>
      <trkpt lat="48.93096" lon="2.36479">
        <ele>36.20000076294</ele>
        <time>2015-07-27T19:36:03Z</time>
      </trkpt>
      <trkpt lat="48.93113" lon="2.36464">
        <ele>36.20000076294</ele>
        <time>2015-07-27T19:36:07Z</time>
      </trkpt>
      <trkpt lat="48.9313" lon="2.36449">
        <ele>36.20000076294</ele>
        <time>2015-07-27T19:36:13Z</time>
      </trkpt>
      <trkpt lat="48.93144" lon="2.36438">
        <ele>36.20000076294</ele>
        <time>2015-07-27T19:36:18Z</time>
      </trkpt>
      <trkpt lat="48.93145" lon="2.36437">
        <ele>36.20000076294</ele>
        <time>2015-07-27T19:36:19Z</time>
      </trkpt>
      <trkpt lat="48.93147" lon="2.36438">
        <ele>36.20000076294</ele>
        <time>2015-07-27T19:36:21Z</time>
      </trkpt>
      <trkpt lat="48.93153" lon="2.36437">
        <ele>36.79999923706</ele>
        <time>2015-07-27T19:36:26Z</time>
      </trkpt>
      <trkpt lat="48.93153" lon="2.36437">
        <ele>37</ele>
        <time>2015-07-27T19:36:28Z</time>
      </trkpt>
      <trkpt lat="48.93152" lon="2.36432">
        <ele>37.79999923706</ele>
        <time>2015-07-27T19:36:37Z</time>
      </trkpt>
      <trkpt lat="48.93153" lon="2.36426">
        <ele>38</ele>
        <time>2015-07-27T19:36:43Z</time>
      </trkpt>
      <trkpt lat="48.93153" lon="2.36409">
        <ele>38.20000076294</ele>
        <time>2015-07-27T19:36:48Z</time>
      </trkpt>
      <trkpt lat="48.93151" lon="2.36407">
        <ele>38.20000076294</ele>
        <time>2015-07-27T19:36:49Z</time>
      </trkpt>
      <trkpt lat="48.93144" lon="2.3639">
        <ele>38.20000076294</ele>
        <time>2015-07-27T19:36:54Z</time>
      </trkpt>
      <trkpt lat="48.93133" lon="2.36376">
        <ele>38.20000076294</ele>
        <time>2015-07-27T19:36:58Z</time>
      </trkpt>
      <trkpt lat="48.93117" lon="2.36357">
        <ele>38.20000076294</ele>
        <time>2015-07-27T19:37:03Z</time>
      </trkpt>
      <trkpt lat="48.93104" lon="2.36344">
        <ele>38.20000076294</ele>
        <time>2015-07-27T19:37:06Z</time>
      </trkpt>
      <trkpt lat="48.93089" lon="2.36324">
        <ele>38.20000076294</ele>
        <time>2015-07-27T19:37:11Z</time>
      </trkpt>
      <trkpt lat="48.9308" lon="2.3631">
        <ele>38.20000076294</ele>
        <time>2015-07-27T19:37:15Z</time>
      </trkpt>
      <trkpt lat="48.93067" lon="2.36293">
        <ele>38.20000076294</ele>
        <time>2015-07-27T19:37:19Z</time>
      </trkpt>
      <trkpt lat="48.93061" lon="2.36285">
        <ele>38.20000076294</ele>
        <time>2015-07-27T19:37:21Z</time>
      </trkpt>
      <trkpt lat="48.93043" lon="2.36261">
        <ele>39.20000076294</ele>
        <time>2015-07-27T19:37:27Z</time>
      </trkpt>
      <trkpt lat="48.93028" lon="2.36239">
        <ele>39.79999923706</ele>
        <time>2015-07-27T19:37:31Z</time>
      </trkpt>
      <trkpt lat="48.93012" lon="2.36216">
        <ele>40</ele>
        <time>2015-07-27T19:37:36Z</time>
      </trkpt>
      <trkpt lat="48.93006" lon="2.36208">
        <ele>40</ele>
        <time>2015-07-27T19:37:39Z</time>
      </trkpt>
      <trkpt lat="48.92984" lon="2.36159">
        <ele>40.20000076294</ele>
        <time>2015-07-27T19:37:49Z</time>
      </trkpt>
      <trkpt lat="48.9298" lon="2.36136">
        <ele>40.20000076294</ele>
        <time>2015-07-27T19:37:53Z</time>
      </trkpt>
      <trkpt lat="48.92981" lon="2.36117">
        <ele>40.20000076294</ele>
        <time>2015-07-27T19:37:55Z</time>
      </trkpt>
      <trkpt lat="48.92981" lon="2.36103">
        <ele>40.400001525879</ele>
        <time>2015-07-27T19:37:58Z</time>
      </trkpt>
      <trkpt lat="48.92973" lon="2.3607">
        <ele>40.400001525879</ele>
        <time>2015-07-27T19:38:03Z</time>
      </trkpt>
      <trkpt lat="48.92973" lon="2.36054">
        <ele>40.400001525879</ele>
        <time>2015-07-27T19:38:05Z</time>
      </trkpt>
      <trkpt lat="48.92973" lon="2.36039">
        <ele>40.400001525879</ele>
        <time>2015-07-27T19:38:07Z</time>
      </trkpt>
      <trkpt lat="48.92974" lon="2.36002">
        <ele>40.400001525879</ele>
        <time>2015-07-27T19:38:11Z</time>
      </trkpt>
      <trkpt lat="48.92975" lon="2.35978">
        <ele>40.400001525879</ele>
        <time>2015-07-27T19:38:15Z</time>
      </trkpt>
      <trkpt lat="48.92974" lon="2.35955">
        <ele>40.400001525879</ele>
        <time>2015-07-27T19:38:18Z</time>
      </trkpt>
      <trkpt lat="48.92972" lon="2.35941">
        <ele>40.400001525879</ele>
        <time>2015-07-27T19:38:19Z</time>
      </trkpt>
      <trkpt lat="48.92972" lon="2.35905">
        <ele>40.400001525879</ele>
        <time>2015-07-27T19:38:25Z</time>
      </trkpt>
      <trkpt lat="48.92972" lon="2.35876">
        <ele>40.400001525879</ele>
        <time>2015-07-27T19:38:30Z</time>
      </trkpt>
      <trkpt lat="48.92972" lon="2.35865">
        <ele>40.400001525879</ele>
        <time>2015-07-27T19:38:31Z</time>
      </trkpt>
      <trkpt lat="48.92973" lon="2.35832">
        <ele>40.400001525879</ele>
        <time>2015-07-27T19:38:38Z</time>
      </trkpt>
      <trkpt lat="48.92971" lon="2.35805">
        <ele>40.400001525879</ele>
        <time>2015-07-27T19:38:43Z</time>
      </trkpt>
      <trkpt lat="48.92969" lon="2.35773">
        <ele>40.400001525879</ele>
        <time>2015-07-27T19:38:49Z</time>
      </trkpt>
      <trkpt lat="48.92969" lon="2.35746">
        <ele>40.400001525879</ele>
        <time>2015-07-27T19:38:54Z</time>
      </trkpt>
      <trkpt lat="48.92969" lon="2.3572">
        <ele>40.400001525879</ele>
        <time>2015-07-27T19:39:00Z</time>
      </trkpt>
      <trkpt lat="48.92969" lon="2.35698">
        <ele>40.400001525879</ele>
        <time>2015-07-27T19:39:06Z</time>
      </trkpt>
      <trkpt lat="48.92969" lon="2.35687">
        <ele>40.400001525879</ele>
        <time>2015-07-27T19:39:09Z</time>
      </trkpt>
      <trkpt lat="48.92973" lon="2.35669">
        <ele>40.400001525879</ele>
        <time>2015-07-27T19:39:15Z</time>
      </trkpt>
      <trkpt lat="48.92972" lon="2.35664">
        <ele>40.400001525879</ele>
        <time>2015-07-27T19:39:16Z</time>
      </trkpt>
      <trkpt lat="48.9296" lon="2.35646">
        <ele>40.400001525879</ele>
        <time>2015-07-27T19:39:23Z</time>
      </trkpt>
      <trkpt lat="48.92945" lon="2.35645">
        <ele>40.400001525879</ele>
        <time>2015-07-27T19:39:28Z</time>
      </trkpt>
      <trkpt lat="48.92925" lon="2.35647">
        <ele>40.400001525879</ele>
        <time>2015-07-27T19:39:33Z</time>
      </trkpt>
      <trkpt lat="48.92904" lon="2.35647">
        <ele>40.79999923706</ele>
        <time>2015-07-27T19:39:39Z</time>
      </trkpt>
      <trkpt lat="48.92886" lon="2.35645">
        <ele>41.400001525879</ele>
        <time>2015-07-27T19:39:43Z</time>
      </trkpt>
      <trkpt lat="48.92867" lon="2.35645">
        <ele>41.79999923706</ele>
        <time>2015-07-27T19:39:49Z</time>
      </trkpt>
      <trkpt lat="48.92849" lon="2.35647">
        <ele>42</ele>
        <time>2015-07-27T19:39:55Z</time>
      </trkpt>
      <trkpt lat="48.92831" lon="2.35649">
        <ele>42.20000076294</ele>
        <time>2015-07-27T19:40:00Z</time>
      </trkpt>
      <trkpt lat="48.9281" lon="2.3565">
        <ele>42.20000076294</ele>
        <time>2015-07-27T19:40:06Z</time>
      </trkpt>
      <trkpt lat="48.92791" lon="2.35654">
        <ele>42.400001525879</ele>
        <time>2015-07-27T19:40:11Z</time>
      </trkpt>
      <trkpt lat="48.92778" lon="2.35656">
        <ele>42.400001525879</ele>
        <time>2015-07-27T19:40:15Z</time>
      </trkpt>
      <trkpt lat="48.92757" lon="2.35657">
        <ele>42.400001525879</ele>
        <time>2015-07-27T19:40:21Z</time>
      </trkpt>
      <trkpt lat="48.92737" lon="2.35657">
        <ele>42.400001525879</ele>
        <time>2015-07-27T19:40:26Z</time>
      </trkpt>
      <trkpt lat="48.92716" lon="2.35657">
        <ele>42.400001525879</ele>
        <time>2015-07-27T19:40:31Z</time>
      </trkpt>
      <trkpt lat="48.92697" lon="2.35657">
        <ele>42.400001525879</ele>
        <time>2015-07-27T19:40:35Z</time>
      </trkpt>
      <trkpt lat="48.92678" lon="2.35654">
        <ele>42.400001525879</ele>
        <time>2015-07-27T19:40:40Z</time>
      </trkpt>
      <trkpt lat="48.9267" lon="2.35652">
        <ele>42.400001525879</ele>
        <time>2015-07-27T19:40:42Z</time>
      </trkpt>
      <trkpt lat="48.92643" lon="2.35644">
        <ele>42.400001525879</ele>
        <time>2015-07-27T19:40:48Z</time>
      </trkpt>
      <trkpt lat="48.92639" lon="2.35645">
        <ele>42.400001525879</ele>
        <time>2015-07-27T19:40:49Z</time>
      </trkpt>
      <trkpt lat="48.92631" lon="2.35647">
        <ele>42.400001525879</ele>
        <time>2015-07-27T19:40:51Z</time>
      </trkpt>
      <trkpt lat="48.92624" lon="2.35647">
        <ele>42.400001525879</ele>
        <time>2015-07-27T19:40:55Z</time>
      </trkpt>
      <trkpt lat="48.92623" lon="2.35647">
        <ele>42.400001525879</ele>
        <time>2015-07-27T19:40:56Z</time>
      </trkpt>
      <trkpt lat="48.92622" lon="2.35653">
        <ele>42.400001525879</ele>
        <time>2015-07-27T19:41:09Z</time>
      </trkpt>
      <trkpt lat="48.92614" lon="2.35652">
        <ele>42.400001525879</ele>
        <time>2015-07-27T19:41:27Z</time>
      </trkpt>
      <trkpt lat="48.92601" lon="2.35649">
        <ele>42.400001525879</ele>
        <time>2015-07-27T19:41:32Z</time>
      </trkpt>
      <trkpt lat="48.92588" lon="2.35648">
        <ele>42.400001525879</ele>
        <time>2015-07-27T19:41:37Z</time>
      </trkpt>
      <trkpt lat="48.92586" lon="2.35647">
        <ele>42.400001525879</ele>
        <time>2015-07-27T19:41:38Z</time>
      </trkpt>
      <trkpt lat="48.92573" lon="2.35653">
        <ele>42.400001525879</ele>
        <time>2015-07-27T19:41:42Z</time>
      </trkpt>
      <trkpt lat="48.92564" lon="2.35654">
        <ele>42.400001525879</ele>
        <time>2015-07-27T19:41:45Z</time>
      </trkpt>
      <trkpt lat="48.92544" lon="2.35655">
        <ele>42.400001525879</ele>
        <time>2015-07-27T19:41:51Z</time>
      </trkpt>
      <trkpt lat="48.92524" lon="2.35658">
        <ele>42.400001525879</ele>
        <time>2015-07-27T19:41:57Z</time>
      </trkpt>
      <trkpt lat="48.92508" lon="2.3566">
        <ele>42.400001525879</ele>
        <time>2015-07-27T19:42:02Z</time>
      </trkpt>
      <trkpt lat="48.92488" lon="2.35662">
        <ele>42.400001525879</ele>
        <time>2015-07-27T19:42:08Z</time>
      </trkpt>
      <trkpt lat="48.92468" lon="2.35664">
        <ele>42.400001525879</ele>
        <time>2015-07-27T19:42:13Z</time>
      </trkpt>
      <trkpt lat="48.92449" lon="2.35665">
        <ele>42.400001525879</ele>
        <time>2015-07-27T19:42:18Z</time>
      </trkpt>
      <trkpt lat="48.92432" lon="2.35667">
        <ele>42.400001525879</ele>
        <time>2015-07-27T19:42:22Z</time>
      </trkpt>
      <trkpt lat="48.92413" lon="2.35668">
        <ele>42.400001525879</ele>
        <time>2015-07-27T19:42:26Z</time>
      </trkpt>
      <trkpt lat="48.92393" lon="2.35668">
        <ele>42.400001525879</ele>
        <time>2015-07-27T19:42:30Z</time>
      </trkpt>
      <trkpt lat="48.92385" lon="2.35668">
        <ele>42.400001525879</ele>
        <time>2015-07-27T19:42:32Z</time>
      </trkpt>
      <trkpt lat="48.92374" lon="2.35668">
        <ele>42.400001525879</ele>
        <time>2015-07-27T19:42:35Z</time>
      </trkpt>
      <trkpt lat="48.92349" lon="2.35673">
        <ele>42.400001525879</ele>
        <time>2015-07-27T19:42:41Z</time>
      </trkpt>
      <trkpt lat="48.92345" lon="2.35673">
        <ele>42.400001525879</ele>
        <time>2015-07-27T19:42:42Z</time>
      </trkpt>
      <trkpt lat="48.92326" lon="2.35676">
        <ele>42.400001525879</ele>
        <time>2015-07-27T19:42:46Z</time>
      </trkpt>
      <trkpt lat="48.92317" lon="2.35676">
        <ele>42.400001525879</ele>
        <time>2015-07-27T19:42:49Z</time>
      </trkpt>
      <trkpt lat="48.92303" lon="2.35677">
        <ele>42.400001525879</ele>
        <time>2015-07-27T19:42:54Z</time>
      </trkpt>
      <trkpt lat="48.92286" lon="2.35678">
        <ele>42.400001525879</ele>
        <time>2015-07-27T19:42:59Z</time>
      </trkpt>
      <trkpt lat="48.92267" lon="2.3568">
        <ele>42.400001525879</ele>
        <time>2015-07-27T19:43:04Z</time>
      </trkpt>
      <trkpt lat="48.92255" lon="2.35684">
        <ele>42.400001525879</ele>
        <time>2015-07-27T19:43:08Z</time>
      </trkpt>
      <trkpt lat="48.92241" lon="2.35693">
        <ele>42.400001525879</ele>
        <time>2015-07-27T19:43:13Z</time>
      </trkpt>
      <trkpt lat="48.92223" lon="2.35699">
        <ele>42.400001525879</ele>
        <time>2015-07-27T19:43:17Z</time>
      </trkpt>
      <trkpt lat="48.92214" lon="2.357">
        <ele>42.400001525879</ele>
        <time>2015-07-27T19:43:19Z</time>
      </trkpt>
      <trkpt lat="48.92197" lon="2.35691">
        <ele>42.400001525879</ele>
        <time>2015-07-27T19:43:23Z</time>
      </trkpt>
      <trkpt lat="48.92178" lon="2.35689">
        <ele>43</ele>
        <time>2015-07-27T19:43:26Z</time>
      </trkpt>
      <trkpt lat="48.92173" lon="2.3569">
        <ele>43</ele>
        <time>2015-07-27T19:43:28Z</time>
      </trkpt>
      <trkpt lat="48.92155" lon="2.35694">
        <ele>43.599998474121</ele>
        <time>2015-07-27T19:43:31Z</time>
      </trkpt>
      <trkpt lat="48.92121" lon="2.35703">
        <ele>44.20000076294</ele>
        <time>2015-07-27T19:43:39Z</time>
      </trkpt>
      <trkpt lat="48.92116" lon="2.35705">
        <ele>44.400001525879</ele>
        <time>2015-07-27T19:43:40Z</time>
      </trkpt>
      <trkpt lat="48.92108" lon="2.35708">
        <ele>44.79999923706</ele>
        <time>2015-07-27T19:43:41Z</time>
      </trkpt>
      <trkpt lat="48.92088" lon="2.35714">
        <ele>45.599998474121</ele>
        <time>2015-07-27T19:43:46Z</time>
      </trkpt>
      <trkpt lat="48.92083" lon="2.35714">
        <ele>46</ele>
        <time>2015-07-27T19:43:48Z</time>
      </trkpt>
      <trkpt lat="48.92063" lon="2.35718">
        <ele>47</ele>
        <time>2015-07-27T19:43:53Z</time>
      </trkpt>
      <trkpt lat="48.92042" lon="2.35719">
        <ele>47.79999923706</ele>
        <time>2015-07-27T19:43:58Z</time>
      </trkpt>
      <trkpt lat="48.92021" lon="2.35719">
        <ele>48</ele>
        <time>2015-07-27T19:44:03Z</time>
      </trkpt>
      <trkpt lat="48.92" lon="2.35718">
        <ele>48.400001525879</ele>
        <time>2015-07-27T19:44:08Z</time>
      </trkpt>
      <trkpt lat="48.91978" lon="2.35719">
        <ele>48.400001525879</ele>
        <time>2015-07-27T19:44:13Z</time>
      </trkpt>
      <trkpt lat="48.91958" lon="2.3572">
        <ele>48.599998474121</ele>
        <time>2015-07-27T19:44:17Z</time>
      </trkpt>
      <trkpt lat="48.91938" lon="2.35722">
        <ele>48.599998474121</ele>
        <time>2015-07-27T19:44:21Z</time>
      </trkpt>
      <trkpt lat="48.91929" lon="2.35723">
        <ele>48.599998474121</ele>
        <time>2015-07-27T19:44:23Z</time>
      </trkpt>
      <trkpt lat="48.91917" lon="2.35722">
        <ele>48.599998474121</ele>
        <time>2015-07-27T19:44:27Z</time>
      </trkpt>
      <trkpt lat="48.91896" lon="2.35722">
        <ele>48.599998474121</ele>
        <time>2015-07-27T19:44:33Z</time>
      </trkpt>
      <trkpt lat="48.91861" lon="2.35725">
        <ele>48.599998474121</ele>
        <time>2015-07-27T19:44:42Z</time>
      </trkpt>
      <trkpt lat="48.91842" lon="2.3573">
        <ele>48.599998474121</ele>
        <time>2015-07-27T19:44:48Z</time>
      </trkpt>
      <trkpt lat="48.91824" lon="2.3573">
        <ele>48.599998474121</ele>
        <time>2015-07-27T19:44:54Z</time>
      </trkpt>
      <trkpt lat="48.91822" lon="2.35727">
        <ele>48.599998474121</ele>
        <time>2015-07-27T19:44:55Z</time>
      </trkpt>
      <trkpt lat="48.91821" lon="2.35726">
        <ele>48.599998474121</ele>
        <time>2015-07-27T19:44:58Z</time>
      </trkpt>
      <trkpt lat="48.91821" lon="2.35723">
        <ele>49.599998474121</ele>
        <time>2015-07-27T19:45:06Z</time>
      </trkpt>
      <trkpt lat="48.91818" lon="2.35723">
        <ele>50.20000076294</ele>
        <time>2015-07-27T19:45:11Z</time>
      </trkpt>
      <trkpt lat="48.91818" lon="2.35721">
        <ele>50.20000076294</ele>
        <time>2015-07-27T19:45:13Z</time>
      </trkpt>
      <trkpt lat="48.91817" lon="2.35718">
        <ele>50.20000076294</ele>
        <time>2015-07-27T19:45:15Z</time>
      </trkpt>
      <trkpt lat="48.91816" lon="2.35706">
        <ele>50.400001525879</ele>
        <time>2015-07-27T19:45:19Z</time>
      </trkpt>
      <trkpt lat="48.91818" lon="2.35687">
        <ele>50.400001525879</ele>
        <time>2015-07-27T19:45:23Z</time>
      </trkpt>
      <trkpt lat="48.91819" lon="2.35682">
        <ele>50.599998474121</ele>
        <time>2015-07-27T19:45:24Z</time>
      </trkpt>
      <trkpt lat="48.9182" lon="2.35655">
        <ele>50.599998474121</ele>
        <time>2015-07-27T19:45:29Z</time>
      </trkpt>
      <trkpt lat="48.91821" lon="2.3563">
        <ele>50.599998474121</ele>
        <time>2015-07-27T19:45:33Z</time>
      </trkpt>
      <trkpt lat="48.91821" lon="2.35602">
        <ele>51</ele>
        <time>2015-07-27T19:45:37Z</time>
      </trkpt>
      <trkpt lat="48.9182" lon="2.35573">
        <ele>51.79999923706</ele>
        <time>2015-07-27T19:45:42Z</time>
      </trkpt>
      <trkpt lat="48.91821" lon="2.35566">
        <ele>51.79999923706</ele>
        <time>2015-07-27T19:45:44Z</time>
      </trkpt>
      <trkpt lat="48.91818" lon="2.35542">
        <ele>52.79999923706</ele>
        <time>2015-07-27T19:45:48Z</time>
      </trkpt>
      <trkpt lat="48.91819" lon="2.3553">
        <ele>53.20000076294</ele>
        <time>2015-07-27T19:45:50Z</time>
      </trkpt>
      <trkpt lat="48.91818" lon="2.35519">
        <ele>53.599998474121</ele>
        <time>2015-07-27T19:45:52Z</time>
      </trkpt>
      <trkpt lat="48.91816" lon="2.3548">
        <ele>55.20000076294</ele>
        <time>2015-07-27T19:45:58Z</time>
      </trkpt>
      <trkpt lat="48.91817" lon="2.35473">
        <ele>55.400001525879</ele>
        <time>2015-07-27T19:45:59Z</time>
      </trkpt>
      <trkpt lat="48.91821" lon="2.35445">
        <ele>56.599998474121</ele>
        <time>2015-07-27T19:46:03Z</time>
      </trkpt>
      <trkpt lat="48.9182" lon="2.35439">
        <ele>56.79999923706</ele>
        <time>2015-07-27T19:46:04Z</time>
      </trkpt>
      <trkpt lat="48.91818" lon="2.35403">
        <ele>58.20000076294</ele>
        <time>2015-07-27T19:46:09Z</time>
      </trkpt>
      <trkpt lat="48.91818" lon="2.35372">
        <ele>59.400001525879</ele>
        <time>2015-07-27T19:46:13Z</time>
      </trkpt>
      <trkpt lat="48.91819" lon="2.35348">
        <ele>60</ele>
        <time>2015-07-27T19:46:16Z</time>
      </trkpt>
      <trkpt lat="48.91817" lon="2.35325">
        <ele>61</ele>
        <time>2015-07-27T19:46:19Z</time>
      </trkpt>
      <trkpt lat="48.91818" lon="2.3531">
        <ele>61.599998474121</ele>
        <time>2015-07-27T19:46:21Z</time>
      </trkpt>
      <trkpt lat="48.91817" lon="2.35295">
        <ele>62.20000076294</ele>
        <time>2015-07-27T19:46:23Z</time>
      </trkpt>
      <trkpt lat="48.91818" lon="2.35258">
        <ele>63.599998474121</ele>
        <time>2015-07-27T19:46:28Z</time>
      </trkpt>
      <trkpt lat="48.91818" lon="2.35252">
        <ele>63.79999923706</ele>
        <time>2015-07-27T19:46:29Z</time>
      </trkpt>
      <trkpt lat="48.91823" lon="2.35221">
        <ele>65.800003051758</ele>
        <time>2015-07-27T19:46:34Z</time>
      </trkpt>
      <trkpt lat="48.91822" lon="2.35204">
        <ele>67.199996948242</ele>
        <time>2015-07-27T19:46:39Z</time>
      </trkpt>
      <trkpt lat="48.91819" lon="2.35182">
        <ele>69</ele>
        <time>2015-07-27T19:46:46Z</time>
      </trkpt>
      <trkpt lat="48.9181" lon="2.3519">
        <ele>69.599998474121</ele>
        <time>2015-07-27T19:46:51Z</time>
      </trkpt>
      <trkpt lat="48.91807" lon="2.35189">
        <ele>69.599998474121</ele>
        <time>2015-07-27T19:46:53Z</time>
      </trkpt>
      <trkpt lat="48.91806" lon="2.35176">
        <ele>69.800003051758</ele>
        <time>2015-07-27T19:46:56Z</time>
      </trkpt>
      <trkpt lat="48.91808" lon="2.35143">
        <ele>70</ele>
        <time>2015-07-27T19:47:00Z</time>
      </trkpt>
      <trkpt lat="48.91812" lon="2.35114">
        <ele>70.199996948242</ele>
        <time>2015-07-27T19:47:04Z</time>
      </trkpt>
      <trkpt lat="48.91812" lon="2.35108">
        <ele>70.199996948242</ele>
        <time>2015-07-27T19:47:05Z</time>
      </trkpt>
      <trkpt lat="48.91819" lon="2.35102">
        <ele>70.199996948242</ele>
        <time>2015-07-27T19:47:09Z</time>
      </trkpt>
      <trkpt lat="48.91819" lon="2.35113">
        <ele>70</ele>
        <time>2015-07-27T19:47:11Z</time>
      </trkpt>
      <trkpt lat="48.91818" lon="2.35153">
        <ele>69.400001525879</ele>
        <time>2015-07-27T19:47:16Z</time>
      </trkpt>
      <trkpt lat="48.91821" lon="2.35185">
        <ele>69</ele>
        <time>2015-07-27T19:47:19Z</time>
      </trkpt>
      <trkpt lat="48.91821" lon="2.35194">
        <ele>69</ele>
        <time>2015-07-27T19:47:20Z</time>
      </trkpt>
      <trkpt lat="48.918" lon="2.35228">
        <ele>68.400001525879</ele>
        <time>2015-07-27T19:47:24Z</time>
      </trkpt>
      <trkpt lat="48.91786" lon="2.35235">
        <ele>68</ele>
        <time>2015-07-27T19:47:27Z</time>
      </trkpt>
      <trkpt lat="48.91754" lon="2.35244">
        <ele>67.199996948242</ele>
        <time>2015-07-27T19:47:31Z</time>
      </trkpt>
      <trkpt lat="48.91747" lon="2.35246">
        <ele>66.800003051758</ele>
        <time>2015-07-27T19:47:32Z</time>
      </trkpt>
      <trkpt lat="48.91728" lon="2.35252">
        <ele>66.400001525879</ele>
        <time>2015-07-27T19:47:34Z</time>
      </trkpt>
      <trkpt lat="48.9171" lon="2.35254">
        <ele>65.800003051758</ele>
        <time>2015-07-27T19:47:36Z</time>
      </trkpt>
      <trkpt lat="48.91693" lon="2.35256">
        <ele>65.599998474121</ele>
        <time>2015-07-27T19:47:37Z</time>
      </trkpt>
      <trkpt lat="48.91659" lon="2.35263">
        <ele>64.199996948242</ele>
        <time>2015-07-27T19:47:42Z</time>
      </trkpt>
      <trkpt lat="48.9162" lon="2.35272">
        <ele>62.79999923706</ele>
        <time>2015-07-27T19:47:47Z</time>
      </trkpt>
      <trkpt lat="48.91598" lon="2.35274">
        <ele>62</ele>
        <time>2015-07-27T19:47:50Z</time>
      </trkpt>
      <trkpt lat="48.91577" lon="2.35275">
        <ele>61.20000076294</ele>
        <time>2015-07-27T19:47:53Z</time>
      </trkpt>
      <trkpt lat="48.91559" lon="2.35274">
        <ele>60.20000076294</ele>
        <time>2015-07-27T19:47:56Z</time>
      </trkpt>
      <trkpt lat="48.91542" lon="2.35273">
        <ele>59.400001525879</ele>
        <time>2015-07-27T19:48:00Z</time>
      </trkpt>
      <trkpt lat="48.91532" lon="2.35269">
        <ele>58</ele>
        <time>2015-07-27T19:48:04Z</time>
      </trkpt>
      <trkpt lat="48.9153" lon="2.35255">
        <ele>57.400001525879</ele>
        <time>2015-07-27T19:48:07Z</time>
      </trkpt>
      <trkpt lat="48.9153" lon="2.35221">
        <ele>56.599998474121</ele>
        <time>2015-07-27T19:48:12Z</time>
      </trkpt>
      <trkpt lat="48.91532" lon="2.35188">
        <ele>56.400001525879</ele>
        <time>2015-07-27T19:48:16Z</time>
      </trkpt>
      <trkpt lat="48.91533" lon="2.35153">
        <ele>56</ele>
        <time>2015-07-27T19:48:20Z</time>
      </trkpt>
      <trkpt lat="48.91531" lon="2.35125">
        <ele>56</ele>
        <time>2015-07-27T19:48:23Z</time>
      </trkpt>
      <trkpt lat="48.91524" lon="2.35095">
        <ele>55.20000076294</ele>
        <time>2015-07-27T19:48:26Z</time>
      </trkpt>
      <trkpt lat="48.91496" lon="2.35024">
        <ele>54.20000076294</ele>
        <time>2015-07-27T19:48:34Z</time>
      </trkpt>
      <trkpt lat="48.91493" lon="2.35009">
        <ele>54</ele>
        <time>2015-07-27T19:48:36Z</time>
      </trkpt>
      <trkpt lat="48.91486" lon="2.34977">
        <ele>53.79999923706</ele>
        <time>2015-07-27T19:48:41Z</time>
      </trkpt>
      <trkpt lat="48.91489" lon="2.34969">
        <ele>53.79999923706</ele>
        <time>2015-07-27T19:48:42Z</time>
      </trkpt>
      <trkpt lat="48.91492" lon="2.34963">
        <ele>53.79999923706</ele>
        <time>2015-07-27T19:48:43Z</time>
      </trkpt>
      <trkpt lat="48.91485" lon="2.34929">
        <ele>53.599998474121</ele>
        <time>2015-07-27T19:48:48Z</time>
      </trkpt>
      <trkpt lat="48.91482" lon="2.34916">
        <ele>53.599998474121</ele>
        <time>2015-07-27T19:48:50Z</time>
      </trkpt>
      <trkpt lat="48.91473" lon="2.34874">
        <ele>53.599998474121</ele>
        <time>2015-07-27T19:48:55Z</time>
      </trkpt>
      <trkpt lat="48.91466" lon="2.34843">
        <ele>53.400001525879</ele>
        <time>2015-07-27T19:49:00Z</time>
      </trkpt>
      <trkpt lat="48.91462" lon="2.34814">
        <ele>53.400001525879</ele>
        <time>2015-07-27T19:49:04Z</time>
      </trkpt>
      <trkpt lat="48.91458" lon="2.34781">
        <ele>53</ele>
        <time>2015-07-27T19:49:09Z</time>
      </trkpt>
      <trkpt lat="48.91451" lon="2.3475">
        <ele>52.20000076294</ele>
        <time>2015-07-27T19:49:14Z</time>
      </trkpt>
      <trkpt lat="48.91445" lon="2.34719">
        <ele>52</ele>
        <time>2015-07-27T19:49:19Z</time>
      </trkpt>
      <trkpt lat="48.91438" lon="2.34691">
        <ele>51.79999923706</ele>
        <time>2015-07-27T19:49:24Z</time>
      </trkpt>
      <trkpt lat="48.9143" lon="2.34659">
        <ele>51.599998474121</ele>
        <time>2015-07-27T19:49:29Z</time>
      </trkpt>
      <trkpt lat="48.91424" lon="2.34629">
        <ele>51</ele>
        <time>2015-07-27T19:49:33Z</time>
      </trkpt>
      <trkpt lat="48.91417" lon="2.34598">
        <ele>50.400001525879</ele>
        <time>2015-07-27T19:49:38Z</time>
      </trkpt>
      <trkpt lat="48.91415" lon="2.34591">
        <ele>50.20000076294</ele>
        <time>2015-07-27T19:49:39Z</time>
      </trkpt>
      <trkpt lat="48.91407" lon="2.34557">
        <ele>49.79999923706</ele>
        <time>2015-07-27T19:49:44Z</time>
      </trkpt>
      <trkpt lat="48.91406" lon="2.3455">
        <ele>49.79999923706</ele>
        <time>2015-07-27T19:49:45Z</time>
      </trkpt>
      <trkpt lat="48.91404" lon="2.34521">
        <ele>49.599998474121</ele>
        <time>2015-07-27T19:49:49Z</time>
      </trkpt>
      <trkpt lat="48.91401" lon="2.34491">
        <ele>49.599998474121</ele>
        <time>2015-07-27T19:49:53Z</time>
      </trkpt>
      <trkpt lat="48.91403" lon="2.34462">
        <ele>49.400001525879</ele>
        <time>2015-07-27T19:49:58Z</time>
      </trkpt>
      <trkpt lat="48.91408" lon="2.34436">
        <ele>49.400001525879</ele>
        <time>2015-07-27T19:50:05Z</time>
      </trkpt>
      <trkpt lat="48.91409" lon="2.34436">
        <ele>49.400001525879</ele>
        <time>2015-07-27T19:50:06Z</time>
      </trkpt>
      <trkpt lat="48.91409" lon="2.34435">
        <ele>49.400001525879</ele>
        <time>2015-07-27T19:50:11Z</time>
      </trkpt>
      <trkpt lat="48.91407" lon="2.3443">
        <ele>49.79999923706</ele>
        <time>2015-07-27T19:50:31Z</time>
      </trkpt>
      <trkpt lat="48.91402" lon="2.34415">
        <ele>50.400001525879</ele>
        <time>2015-07-27T19:50:36Z</time>
      </trkpt>
      <trkpt lat="48.91399" lon="2.34408">
        <ele>50.599998474121</ele>
        <time>2015-07-27T19:50:38Z</time>
      </trkpt>
      <trkpt lat="48.91394" lon="2.34406">
        <ele>50.79999923706</ele>
        <time>2015-07-27T19:50:42Z</time>
      </trkpt>
      <trkpt lat="48.9139" lon="2.34406">
        <ele>50.79999923706</ele>
        <time>2015-07-27T19:50:43Z</time>
      </trkpt>
      <trkpt lat="48.91371" lon="2.34408">
        <ele>51</ele>
        <time>2015-07-27T19:50:48Z</time>
      </trkpt>
      <trkpt lat="48.91351" lon="2.3441">
        <ele>51.20000076294</ele>
        <time>2015-07-27T19:50:53Z</time>
      </trkpt>
      <trkpt lat="48.91337" lon="2.3441">
        <ele>51.20000076294</ele>
        <time>2015-07-27T19:50:56Z</time>
      </trkpt>
      <trkpt lat="48.91319" lon="2.34414">
        <ele>51.20000076294</ele>
        <time>2015-07-27T19:51:00Z</time>
      </trkpt>
      <trkpt lat="48.91301" lon="2.34417">
        <ele>51.400001525879</ele>
        <time>2015-07-27T19:51:04Z</time>
      </trkpt>
      <trkpt lat="48.91282" lon="2.3442">
        <ele>51.400001525879</ele>
        <time>2015-07-27T19:51:08Z</time>
      </trkpt>
      <trkpt lat="48.91262" lon="2.3442">
        <ele>51.400001525879</ele>
        <time>2015-07-27T19:51:12Z</time>
      </trkpt>
      <trkpt lat="48.91237" lon="2.34422">
        <ele>51.400001525879</ele>
        <time>2015-07-27T19:51:17Z</time>
      </trkpt>
      <trkpt lat="48.91218" lon="2.34421">
        <ele>51.400001525879</ele>
        <time>2015-07-27T19:51:21Z</time>
      </trkpt>
      <trkpt lat="48.91209" lon="2.3442">
        <ele>51.400001525879</ele>
        <time>2015-07-27T19:51:23Z</time>
      </trkpt>
      <trkpt lat="48.91186" lon="2.34419">
        <ele>51.400001525879</ele>
        <time>2015-07-27T19:51:28Z</time>
      </trkpt>
      <trkpt lat="48.91181" lon="2.34419">
        <ele>51.400001525879</ele>
        <time>2015-07-27T19:51:29Z</time>
      </trkpt>
      <trkpt lat="48.91157" lon="2.34419">
        <ele>51.400001525879</ele>
        <time>2015-07-27T19:51:34Z</time>
      </trkpt>
      <trkpt lat="48.91144" lon="2.34419">
        <ele>51.400001525879</ele>
        <time>2015-07-27T19:51:37Z</time>
      </trkpt>
      <trkpt lat="48.91119" lon="2.34421">
        <ele>51.400001525879</ele>
        <time>2015-07-27T19:51:42Z</time>
      </trkpt>
      <trkpt lat="48.91088" lon="2.34424">
        <ele>51.400001525879</ele>
        <time>2015-07-27T19:51:48Z</time>
      </trkpt>
      <trkpt lat="48.9108" lon="2.34425">
        <ele>51.400001525879</ele>
        <time>2015-07-27T19:51:50Z</time>
      </trkpt>
      <trkpt lat="48.91054" lon="2.34426">
        <ele>51.400001525879</ele>
        <time>2015-07-27T19:51:55Z</time>
      </trkpt>
      <trkpt lat="48.91034" lon="2.34427">
        <ele>51.400001525879</ele>
        <time>2015-07-27T19:51:59Z</time>
      </trkpt>
      <trkpt lat="48.91029" lon="2.34426">
        <ele>51.400001525879</ele>
        <time>2015-07-27T19:52:00Z</time>
      </trkpt>
      <trkpt lat="48.91002" lon="2.34426">
        <ele>51.400001525879</ele>
        <time>2015-07-27T19:52:05Z</time>
      </trkpt>
      <trkpt lat="48.90982" lon="2.34424">
        <ele>51.400001525879</ele>
        <time>2015-07-27T19:52:09Z</time>
      </trkpt>
      <trkpt lat="48.9096" lon="2.34425">
        <ele>51.400001525879</ele>
        <time>2015-07-27T19:52:13Z</time>
      </trkpt>
      <trkpt lat="48.90943" lon="2.34425">
        <ele>51.400001525879</ele>
        <time>2015-07-27T19:52:16Z</time>
      </trkpt>
      <trkpt lat="48.90914" lon="2.34421">
        <ele>51.400001525879</ele>
        <time>2015-07-27T19:52:21Z</time>
      </trkpt>
      <trkpt lat="48.90909" lon="2.34422">
        <ele>51.20000076294</ele>
        <time>2015-07-27T19:52:22Z</time>
      </trkpt>
      <trkpt lat="48.90891" lon="2.34423">
        <ele>50.599998474121</ele>
        <time>2015-07-27T19:52:25Z</time>
      </trkpt>
      <trkpt lat="48.90866" lon="2.34421">
        <ele>50.20000076294</ele>
        <time>2015-07-27T19:52:29Z</time>
      </trkpt>
      <trkpt lat="48.9086" lon="2.34421">
        <ele>50.20000076294</ele>
        <time>2015-07-27T19:52:30Z</time>
      </trkpt>
      <trkpt lat="48.90841" lon="2.34422">
        <ele>49.400001525879</ele>
        <time>2015-07-27T19:52:33Z</time>
      </trkpt>
      <trkpt lat="48.90823" lon="2.34424">
        <ele>48.79999923706</ele>
        <time>2015-07-27T19:52:36Z</time>
      </trkpt>
      <trkpt lat="48.90817" lon="2.34424">
        <ele>48.599998474121</ele>
        <time>2015-07-27T19:52:37Z</time>
      </trkpt>
      <trkpt lat="48.90789" lon="2.34422">
        <ele>48</ele>
        <time>2015-07-27T19:52:41Z</time>
      </trkpt>
      <trkpt lat="48.90784" lon="2.34421">
        <ele>48</ele>
        <time>2015-07-27T19:52:42Z</time>
      </trkpt>
      <trkpt lat="48.90744" lon="2.34419">
        <ele>46.20000076294</ele>
        <time>2015-07-27T19:52:51Z</time>
      </trkpt>
      <trkpt lat="48.90741" lon="2.34419">
        <ele>46</ele>
        <time>2015-07-27T19:52:52Z</time>
      </trkpt>
      <trkpt lat="48.90724" lon="2.34416">
        <ele>45.599998474121</ele>
        <time>2015-07-27T19:52:58Z</time>
      </trkpt>
      <trkpt lat="48.90703" lon="2.34414">
        <ele>45.400001525879</ele>
        <time>2015-07-27T19:53:04Z</time>
      </trkpt>
      <trkpt lat="48.90684" lon="2.34414">
        <ele>44.79999923706</ele>
        <time>2015-07-27T19:53:09Z</time>
      </trkpt>
      <trkpt lat="48.90668" lon="2.34417">
        <ele>44.20000076294</ele>
        <time>2015-07-27T19:53:13Z</time>
      </trkpt>
      <trkpt lat="48.90647" lon="2.34416">
        <ele>43.79999923706</ele>
        <time>2015-07-27T19:53:18Z</time>
      </trkpt>
      <trkpt lat="48.90634" lon="2.34416">
        <ele>43.599998474121</ele>
        <time>2015-07-27T19:53:21Z</time>
      </trkpt>
      <trkpt lat="48.9061" lon="2.34417">
        <ele>43.400001525879</ele>
        <time>2015-07-27T19:53:26Z</time>
      </trkpt>
      <trkpt lat="48.90591" lon="2.34417">
        <ele>43.20000076294</ele>
        <time>2015-07-27T19:53:29Z</time>
      </trkpt>
      <trkpt lat="48.90586" lon="2.34416">
        <ele>43.20000076294</ele>
        <time>2015-07-27T19:53:31Z</time>
      </trkpt>
      <trkpt lat="48.90568" lon="2.34418">
        <ele>43.20000076294</ele>
        <time>2015-07-27T19:53:36Z</time>
      </trkpt>
      <trkpt lat="48.90548" lon="2.34416">
        <ele>43</ele>
        <time>2015-07-27T19:53:43Z</time>
      </trkpt>
      <trkpt lat="48.90534" lon="2.34419">
        <ele>43.20000076294</ele>
        <time>2015-07-27T19:53:49Z</time>
      </trkpt>
      <trkpt lat="48.9052" lon="2.3442">
        <ele>44.20000076294</ele>
        <time>2015-07-27T19:53:55Z</time>
      </trkpt>
      <trkpt lat="48.90502" lon="2.34421">
        <ele>44.599998474121</ele>
        <time>2015-07-27T19:54:01Z</time>
      </trkpt>
      <trkpt lat="48.90481" lon="2.34421">
        <ele>44.79999923706</ele>
        <time>2015-07-27T19:54:07Z</time>
      </trkpt>
      <trkpt lat="48.90473" lon="2.3442">
        <ele>44.79999923706</ele>
        <time>2015-07-27T19:54:09Z</time>
      </trkpt>
      <trkpt lat="48.9046" lon="2.3442">
        <ele>45</ele>
        <time>2015-07-27T19:54:12Z</time>
      </trkpt>
      <trkpt lat="48.90438" lon="2.3442">
        <ele>45</ele>
        <time>2015-07-27T19:54:17Z</time>
      </trkpt>
      <trkpt lat="48.90416" lon="2.34418">
        <ele>45</ele>
        <time>2015-07-27T19:54:22Z</time>
      </trkpt>
      <trkpt lat="48.90396" lon="2.34417">
        <ele>45</ele>
        <time>2015-07-27T19:54:27Z</time>
      </trkpt>
      <trkpt lat="48.90393" lon="2.34416">
        <ele>45</ele>
        <time>2015-07-27T19:54:28Z</time>
      </trkpt>
      <trkpt lat="48.90385" lon="2.34406">
        <ele>45</ele>
        <time>2015-07-27T19:54:32Z</time>
      </trkpt>
      <trkpt lat="48.90378" lon="2.34393">
        <ele>45</ele>
        <time>2015-07-27T19:54:36Z</time>
      </trkpt>
      <trkpt lat="48.90366" lon="2.34374">
        <ele>45</ele>
        <time>2015-07-27T19:54:42Z</time>
      </trkpt>
      <trkpt lat="48.90353" lon="2.34355">
        <ele>45</ele>
        <time>2015-07-27T19:54:47Z</time>
      </trkpt>
      <trkpt lat="48.90336" lon="2.34334">
        <ele>45</ele>
        <time>2015-07-27T19:54:52Z</time>
      </trkpt>
      <trkpt lat="48.9032" lon="2.34314">
        <ele>45.599998474121</ele>
        <time>2015-07-27T19:54:57Z</time>
      </trkpt>
      <trkpt lat="48.90306" lon="2.34299">
        <ele>46.20000076294</ele>
        <time>2015-07-27T19:55:01Z</time>
      </trkpt>
      <trkpt lat="48.9029" lon="2.34279">
        <ele>46.599998474121</ele>
        <time>2015-07-27T19:55:07Z</time>
      </trkpt>
      <trkpt lat="48.9028" lon="2.34266">
        <ele>46.79999923706</ele>
        <time>2015-07-27T19:55:11Z</time>
      </trkpt>
      <trkpt lat="48.90265" lon="2.34252">
        <ele>47</ele>
        <time>2015-07-27T19:55:16Z</time>
      </trkpt>
      <trkpt lat="48.9025" lon="2.34232">
        <ele>47.79999923706</ele>
        <time>2015-07-27T19:55:22Z</time>
      </trkpt>
      <trkpt lat="48.90243" lon="2.34221">
        <ele>48.400001525879</ele>
        <time>2015-07-27T19:55:27Z</time>
      </trkpt>
      <trkpt lat="48.90242" lon="2.3422">
        <ele>48.400001525879</ele>
        <time>2015-07-27T19:55:28Z</time>
      </trkpt>
      <trkpt lat="48.90238" lon="2.34219">
        <ele>48.79999923706</ele>
        <time>2015-07-27T19:55:32Z</time>
      </trkpt>
      <trkpt lat="48.90235" lon="2.34223">
        <ele>48.79999923706</ele>
        <time>2015-07-27T19:55:36Z</time>
      </trkpt>
      <trkpt lat="48.90236" lon="2.3422">
        <ele>49.599998474121</ele>
        <time>2015-07-27T19:55:40Z</time>
      </trkpt>
      <trkpt lat="48.90245" lon="2.34206">
        <ele>50.400001525879</ele>
        <time>2015-07-27T19:55:48Z</time>
      </trkpt>
      <trkpt lat="48.90248" lon="2.34203">
        <ele>50.79999923706</ele>
        <time>2015-07-27T19:55:53Z</time>
      </trkpt>
      <trkpt lat="48.90248" lon="2.34202">
        <ele>50.79999923706</ele>
        <time>2015-07-27T19:55:54Z</time>
      </trkpt>
      <trkpt lat="48.90252" lon="2.34188">
        <ele>51</ele>
        <time>2015-07-27T19:55:59Z</time>
      </trkpt>
      <trkpt lat="48.90253" lon="2.34186">
        <ele>51</ele>
        <time>2015-07-27T19:56:00Z</time>
      </trkpt>
      <trkpt lat="48.90261" lon="2.34163">
        <ele>51</ele>
        <time>2015-07-27T19:56:06Z</time>
      </trkpt>
      <trkpt lat="48.90273" lon="2.34139">
        <ele>51.20000076294</ele>
        <time>2015-07-27T19:56:11Z</time>
      </trkpt>
      <trkpt lat="48.90287" lon="2.34113">
        <ele>52</ele>
        <time>2015-07-27T19:56:16Z</time>
      </trkpt>
      <trkpt lat="48.90299" lon="2.34089">
        <ele>52.400001525879</ele>
        <time>2015-07-27T19:56:21Z</time>
      </trkpt>
      <trkpt lat="48.90304" lon="2.3408">
        <ele>52.599998474121</ele>
        <time>2015-07-27T19:56:23Z</time>
      </trkpt>
      <trkpt lat="48.90314" lon="2.34051">
        <ele>52.79999923706</ele>
        <time>2015-07-27T19:56:29Z</time>
      </trkpt>
      <trkpt lat="48.9032" lon="2.34032">
        <ele>53</ele>
        <time>2015-07-27T19:56:33Z</time>
      </trkpt>
      <trkpt lat="48.90302" lon="2.34005">
        <ele>53</ele>
        <time>2015-07-27T19:56:40Z</time>
      </trkpt>
      <trkpt lat="48.90286" lon="2.33987">
        <ele>53.20000076294</ele>
        <time>2015-07-27T19:56:45Z</time>
      </trkpt>
      <trkpt lat="48.90271" lon="2.33969">
        <ele>53.20000076294</ele>
        <time>2015-07-27T19:56:49Z</time>
      </trkpt>
      <trkpt lat="48.90257" lon="2.33952">
        <ele>53.20000076294</ele>
        <time>2015-07-27T19:56:53Z</time>
      </trkpt>
      <trkpt lat="48.9024" lon="2.33929">
        <ele>53.20000076294</ele>
        <time>2015-07-27T19:56:58Z</time>
      </trkpt>
      <trkpt lat="48.90236" lon="2.33926">
        <ele>53.20000076294</ele>
        <time>2015-07-27T19:56:59Z</time>
      </trkpt>
      <trkpt lat="48.9023" lon="2.33916">
        <ele>53.20000076294</ele>
        <time>2015-07-27T19:57:01Z</time>
      </trkpt>
      <trkpt lat="48.90209" lon="2.33892">
        <ele>53.20000076294</ele>
        <time>2015-07-27T19:57:07Z</time>
      </trkpt>
      <trkpt lat="48.902" lon="2.33879">
        <ele>53.20000076294</ele>
        <time>2015-07-27T19:57:10Z</time>
      </trkpt>
      <trkpt lat="48.90192" lon="2.33868">
        <ele>53.20000076294</ele>
        <time>2015-07-27T19:57:13Z</time>
      </trkpt>
      <trkpt lat="48.90203" lon="2.3384">
        <ele>53.20000076294</ele>
        <time>2015-07-27T19:57:19Z</time>
      </trkpt>
      <trkpt lat="48.90216" lon="2.3382">
        <ele>53.20000076294</ele>
        <time>2015-07-27T19:57:23Z</time>
      </trkpt>
      <trkpt lat="48.90224" lon="2.33807">
        <ele>53.20000076294</ele>
        <time>2015-07-27T19:57:26Z</time>
      </trkpt>
      <trkpt lat="48.90231" lon="2.33793">
        <ele>53.20000076294</ele>
        <time>2015-07-27T19:57:29Z</time>
      </trkpt>
      <trkpt lat="48.90247" lon="2.33761">
        <ele>53.20000076294</ele>
        <time>2015-07-27T19:57:39Z</time>
      </trkpt>
      <trkpt lat="48.90259" lon="2.33735">
        <ele>53.20000076294</ele>
        <time>2015-07-27T19:57:45Z</time>
      </trkpt>
      <trkpt lat="48.90269" lon="2.33712">
        <ele>53.20000076294</ele>
        <time>2015-07-27T19:57:50Z</time>
      </trkpt>
      <trkpt lat="48.90284" lon="2.33685">
        <ele>53.20000076294</ele>
        <time>2015-07-27T19:57:56Z</time>
      </trkpt>
      <trkpt lat="48.90295" lon="2.33664">
        <ele>53.20000076294</ele>
        <time>2015-07-27T19:58:01Z</time>
      </trkpt>
      <trkpt lat="48.90306" lon="2.33649">
        <ele>53.20000076294</ele>
        <time>2015-07-27T19:58:05Z</time>
      </trkpt>
      <trkpt lat="48.90311" lon="2.33645">
        <ele>53.20000076294</ele>
        <time>2015-07-27T19:58:07Z</time>
      </trkpt>
      <trkpt lat="48.90317" lon="2.33648">
        <ele>53.20000076294</ele>
        <time>2015-07-27T19:58:09Z</time>
      </trkpt>
      <trkpt lat="48.90326" lon="2.33657">
        <ele>53.20000076294</ele>
        <time>2015-07-27T19:58:14Z</time>
      </trkpt>
      <trkpt lat="48.90332" lon="2.3365">
        <ele>53.20000076294</ele>
        <time>2015-07-27T19:58:17Z</time>
      </trkpt>
      <trkpt lat="48.90334" lon="2.33647">
        <ele>53.20000076294</ele>
        <time>2015-07-27T19:58:18Z</time>
      </trkpt>
      <trkpt lat="48.90342" lon="2.33633">
        <ele>53.20000076294</ele>
        <time>2015-07-27T19:58:23Z</time>
      </trkpt>
      <trkpt lat="48.90344" lon="2.33631">
        <ele>53</ele>
        <time>2015-07-27T19:58:24Z</time>
      </trkpt>
      <trkpt lat="48.90346" lon="2.3363">
        <ele>52.79999923706</ele>
        <time>2015-07-27T19:58:25Z</time>
      </trkpt>
      <trkpt lat="48.90367" lon="2.33644">
        <ele>52</ele>
        <time>2015-07-27T19:58:32Z</time>
      </trkpt>
      <trkpt lat="48.90378" lon="2.33658">
        <ele>51.599998474121</ele>
        <time>2015-07-27T19:58:36Z</time>
      </trkpt>
      <trkpt lat="48.90392" lon="2.33676">
        <ele>51.400001525879</ele>
        <time>2015-07-27T19:58:41Z</time>
      </trkpt>
      <trkpt lat="48.90405" lon="2.33697">
        <ele>51.400001525879</ele>
        <time>2015-07-27T19:58:46Z</time>
      </trkpt>
      <trkpt lat="48.9042" lon="2.3372">
        <ele>51</ele>
        <time>2015-07-27T19:58:51Z</time>
      </trkpt>
      <trkpt lat="48.90435" lon="2.33746">
        <ele>50.20000076294</ele>
        <time>2015-07-27T19:58:56Z</time>
      </trkpt>
      <trkpt lat="48.90444" lon="2.3376">
        <ele>50</ele>
        <time>2015-07-27T19:58:59Z</time>
      </trkpt>
      <trkpt lat="48.90447" lon="2.33768">
        <ele>49.79999923706</ele>
        <time>2015-07-27T19:59:01Z</time>
      </trkpt>
      <trkpt lat="48.9046" lon="2.33786">
        <ele>49.599998474121</ele>
        <time>2015-07-27T19:59:05Z</time>
      </trkpt>
      <trkpt lat="48.90464" lon="2.33792">
        <ele>49.599998474121</ele>
        <time>2015-07-27T19:59:07Z</time>
      </trkpt>
      <trkpt lat="48.90476" lon="2.33807">
        <ele>49.400001525879</ele>
        <time>2015-07-27T19:59:12Z</time>
      </trkpt>
      <trkpt lat="48.90478" lon="2.33806">
        <ele>49.400001525879</ele>
        <time>2015-07-27T19:59:13Z</time>
      </trkpt>
      <trkpt lat="48.90491" lon="2.3379">
        <ele>49.20000076294</ele>
        <time>2015-07-27T19:59:17Z</time>
      </trkpt>
      <trkpt lat="48.90508" lon="2.3377">
        <ele>49.20000076294</ele>
        <time>2015-07-27T19:59:22Z</time>
      </trkpt>
      <trkpt lat="48.90525" lon="2.33747">
        <ele>49.20000076294</ele>
        <time>2015-07-27T19:59:27Z</time>
      </trkpt>
      <trkpt lat="48.9054" lon="2.33727">
        <ele>49.20000076294</ele>
        <time>2015-07-27T19:59:32Z</time>
      </trkpt>
      <trkpt lat="48.90554" lon="2.33702">
        <ele>49.20000076294</ele>
        <time>2015-07-27T19:59:36Z</time>
      </trkpt>
      <trkpt lat="48.90564" lon="2.33688">
        <ele>49.20000076294</ele>
        <time>2015-07-27T19:59:39Z</time>
      </trkpt>
      <trkpt lat="48.90582" lon="2.33662">
        <ele>49.20000076294</ele>
        <time>2015-07-27T19:59:44Z</time>
      </trkpt>
      <trkpt lat="48.90596" lon="2.33642">
        <ele>49.20000076294</ele>
        <time>2015-07-27T19:59:48Z</time>
      </trkpt>
      <trkpt lat="48.90599" lon="2.33639">
        <ele>49.20000076294</ele>
        <time>2015-07-27T19:59:49Z</time>
      </trkpt>
      <trkpt lat="48.90617" lon="2.33614">
        <ele>49.20000076294</ele>
        <time>2015-07-27T19:59:54Z</time>
      </trkpt>
      <trkpt lat="48.90631" lon="2.33594">
        <ele>49.20000076294</ele>
        <time>2015-07-27T19:59:58Z</time>
      </trkpt>
      <trkpt lat="48.90645" lon="2.33575">
        <ele>49.20000076294</ele>
        <time>2015-07-27T20:00:02Z</time>
      </trkpt>
      <trkpt lat="48.90658" lon="2.33555">
        <ele>49.20000076294</ele>
        <time>2015-07-27T20:00:06Z</time>
      </trkpt>
      <trkpt lat="48.90672" lon="2.33534">
        <ele>49.20000076294</ele>
        <time>2015-07-27T20:00:10Z</time>
      </trkpt>
      <trkpt lat="48.90688" lon="2.33506">
        <ele>49.20000076294</ele>
        <time>2015-07-27T20:00:15Z</time>
      </trkpt>
      <trkpt lat="48.90704" lon="2.33482">
        <ele>49.20000076294</ele>
        <time>2015-07-27T20:00:20Z</time>
      </trkpt>
      <trkpt lat="48.90719" lon="2.3346">
        <ele>48.79999923706</ele>
        <time>2015-07-27T20:00:25Z</time>
      </trkpt>
      <trkpt lat="48.90723" lon="2.33453">
        <ele>48.599998474121</ele>
        <time>2015-07-27T20:00:26Z</time>
      </trkpt>
      <trkpt lat="48.90735" lon="2.33431">
        <ele>48</ele>
        <time>2015-07-27T20:00:30Z</time>
      </trkpt>
      <trkpt lat="48.90737" lon="2.33428">
        <ele>48</ele>
        <time>2015-07-27T20:00:31Z</time>
      </trkpt>
      <trkpt lat="48.90756" lon="2.33399">
        <ele>47.400001525879</ele>
        <time>2015-07-27T20:00:36Z</time>
      </trkpt>
      <trkpt lat="48.90763" lon="2.33389">
        <ele>47</ele>
        <time>2015-07-27T20:00:38Z</time>
      </trkpt>
      <trkpt lat="48.90774" lon="2.33368">
        <ele>46.20000076294</ele>
        <time>2015-07-27T20:00:42Z</time>
      </trkpt>
      <trkpt lat="48.90786" lon="2.33348">
        <ele>45.79999923706</ele>
        <time>2015-07-27T20:00:46Z</time>
      </trkpt>
      <trkpt lat="48.90801" lon="2.33329">
        <ele>45.400001525879</ele>
        <time>2015-07-27T20:00:50Z</time>
      </trkpt>
      <trkpt lat="48.90817" lon="2.3331">
        <ele>45.400001525879</ele>
        <time>2015-07-27T20:00:54Z</time>
      </trkpt>
      <trkpt lat="48.90829" lon="2.33291">
        <ele>44.599998474121</ele>
        <time>2015-07-27T20:00:58Z</time>
      </trkpt>
      <trkpt lat="48.90836" lon="2.33283">
        <ele>44</ele>
        <time>2015-07-27T20:01:01Z</time>
      </trkpt>
      <trkpt lat="48.9084" lon="2.33271">
        <ele>43.79999923706</ele>
        <time>2015-07-27T20:01:04Z</time>
      </trkpt>
      <trkpt lat="48.90838" lon="2.33259">
        <ele>43.599998474121</ele>
        <time>2015-07-27T20:01:07Z</time>
      </trkpt>
      <trkpt lat="48.90815" lon="2.3325">
        <ele>43.400001525879</ele>
        <time>2015-07-27T20:01:12Z</time>
      </trkpt>
      <trkpt lat="48.90807" lon="2.33247">
        <ele>43.20000076294</ele>
        <time>2015-07-27T20:01:14Z</time>
      </trkpt>
      <trkpt lat="48.90782" lon="2.33239">
        <ele>43.20000076294</ele>
        <time>2015-07-27T20:01:19Z</time>
      </trkpt>
      <trkpt lat="48.90777" lon="2.33237">
        <ele>43.20000076294</ele>
        <time>2015-07-27T20:01:20Z</time>
      </trkpt>
      <trkpt lat="48.90759" lon="2.33232">
        <ele>43</ele>
        <time>2015-07-27T20:01:23Z</time>
      </trkpt>
      <trkpt lat="48.90752" lon="2.33227">
        <ele>43</ele>
        <time>2015-07-27T20:01:25Z</time>
      </trkpt>
      <trkpt lat="48.90728" lon="2.33224">
        <ele>42.400001525879</ele>
        <time>2015-07-27T20:01:29Z</time>
      </trkpt>
      <trkpt lat="48.90723" lon="2.33223">
        <ele>42.20000076294</ele>
        <time>2015-07-27T20:01:30Z</time>
      </trkpt>
      <trkpt lat="48.90701" lon="2.33217">
        <ele>41.79999923706</ele>
        <time>2015-07-27T20:01:34Z</time>
      </trkpt>
      <trkpt lat="48.90666" lon="2.33199">
        <ele>41.20000076294</ele>
        <time>2015-07-27T20:01:43Z</time>
      </trkpt>
      <trkpt lat="48.90653" lon="2.33196">
        <ele>41</ele>
        <time>2015-07-27T20:01:48Z</time>
      </trkpt>
      <trkpt lat="48.90649" lon="2.33199">
        <ele>41</ele>
        <time>2015-07-27T20:01:49Z</time>
      </trkpt>
      <trkpt lat="48.90619" lon="2.33194">
        <ele>41</ele>
        <time>2015-07-27T20:01:56Z</time>
      </trkpt>
      <trkpt lat="48.9061" lon="2.33191">
        <ele>41</ele>
        <time>2015-07-27T20:01:58Z</time>
      </trkpt>
      <trkpt lat="48.90588" lon="2.33182">
        <ele>41</ele>
        <time>2015-07-27T20:02:03Z</time>
      </trkpt>
      <trkpt lat="48.90579" lon="2.33179">
        <ele>40.79999923706</ele>
        <time>2015-07-27T20:02:05Z</time>
      </trkpt>
      <trkpt lat="48.9057" lon="2.33178">
        <ele>40.79999923706</ele>
        <time>2015-07-27T20:02:07Z</time>
      </trkpt>
      <trkpt lat="48.90553" lon="2.33175">
        <ele>41</ele>
        <time>2015-07-27T20:02:10Z</time>
      </trkpt>
      <trkpt lat="48.90526" lon="2.33164">
        <ele>41.79999923706</ele>
        <time>2015-07-27T20:02:15Z</time>
      </trkpt>
      <trkpt lat="48.90505" lon="2.33157">
        <ele>42.400001525879</ele>
        <time>2015-07-27T20:02:19Z</time>
      </trkpt>
      <trkpt lat="48.90484" lon="2.3315">
        <ele>43.400001525879</ele>
        <time>2015-07-27T20:02:23Z</time>
      </trkpt>
      <trkpt lat="48.90465" lon="2.33143">
        <ele>44</ele>
        <time>2015-07-27T20:02:27Z</time>
      </trkpt>
      <trkpt lat="48.90446" lon="2.33137">
        <ele>44.400001525879</ele>
        <time>2015-07-27T20:02:31Z</time>
      </trkpt>
      <trkpt lat="48.90423" lon="2.33132">
        <ele>45.400001525879</ele>
        <time>2015-07-27T20:02:36Z</time>
      </trkpt>
      <trkpt lat="48.90405" lon="2.33128">
        <ele>46</ele>
        <time>2015-07-27T20:02:40Z</time>
      </trkpt>
      <trkpt lat="48.90381" lon="2.33122">
        <ele>47</ele>
        <time>2015-07-27T20:02:45Z</time>
      </trkpt>
      <trkpt lat="48.90363" lon="2.33117">
        <ele>48</ele>
        <time>2015-07-27T20:02:49Z</time>
      </trkpt>
      <trkpt lat="48.90342" lon="2.3311">
        <ele>49</ele>
        <time>2015-07-27T20:02:54Z</time>
      </trkpt>
      <trkpt lat="48.90333" lon="2.33107">
        <ele>49.400001525879</ele>
        <time>2015-07-27T20:02:56Z</time>
      </trkpt>
      <trkpt lat="48.90326" lon="2.33103">
        <ele>49.79999923706</ele>
        <time>2015-07-27T20:02:58Z</time>
      </trkpt>
      <trkpt lat="48.90299" lon="2.33097">
        <ele>51.20000076294</ele>
        <time>2015-07-27T20:03:03Z</time>
      </trkpt>
      <trkpt lat="48.90278" lon="2.33089">
        <ele>52.20000076294</ele>
        <time>2015-07-27T20:03:07Z</time>
      </trkpt>
      <trkpt lat="48.90256" lon="2.3308">
        <ele>53.400001525879</ele>
        <time>2015-07-27T20:03:11Z</time>
      </trkpt>
      <trkpt lat="48.90239" lon="2.33074">
        <ele>54</ele>
        <time>2015-07-27T20:03:14Z</time>
      </trkpt>
      <trkpt lat="48.90226" lon="2.33065">
        <ele>54.79999923706</ele>
        <time>2015-07-27T20:03:17Z</time>
      </trkpt>
      <trkpt lat="48.9022" lon="2.33062">
        <ele>55.400001525879</ele>
        <time>2015-07-27T20:03:19Z</time>
      </trkpt>
      <trkpt lat="48.90218" lon="2.33059">
        <ele>56.400001525879</ele>
        <time>2015-07-27T20:03:24Z</time>
      </trkpt>
      <trkpt lat="48.90213" lon="2.3306">
        <ele>57</ele>
        <time>2015-07-27T20:03:29Z</time>
      </trkpt>
      <trkpt lat="48.902" lon="2.3306">
        <ele>57.599998474121</ele>
        <time>2015-07-27T20:03:32Z</time>
      </trkpt>
      <trkpt lat="48.90182" lon="2.33056">
        <ele>58.400001525879</ele>
        <time>2015-07-27T20:03:36Z</time>
      </trkpt>
      <trkpt lat="48.90161" lon="2.33049">
        <ele>58.79999923706</ele>
        <time>2015-07-27T20:03:40Z</time>
      </trkpt>
      <trkpt lat="48.90141" lon="2.3304">
        <ele>59.20000076294</ele>
        <time>2015-07-27T20:03:45Z</time>
      </trkpt>
      <trkpt lat="48.90135" lon="2.33037">
        <ele>59.400001525879</ele>
        <time>2015-07-27T20:03:47Z</time>
      </trkpt>
      <trkpt lat="48.90112" lon="2.33028">
        <ele>59.599998474121</ele>
        <time>2015-07-27T20:03:54Z</time>
      </trkpt>
      <trkpt lat="48.901" lon="2.33021">
        <ele>59.20000076294</ele>
        <time>2015-07-27T20:03:59Z</time>
      </trkpt>
      <trkpt lat="48.90099" lon="2.33019">
        <ele>59</ele>
        <time>2015-07-27T20:04:00Z</time>
      </trkpt>
      <trkpt lat="48.901" lon="2.33016">
        <ele>58.599998474121</ele>
        <time>2015-07-27T20:04:05Z</time>
      </trkpt>
      <trkpt lat="48.901" lon="2.33002">
        <ele>54</ele>
        <time>2015-07-27T20:04:42Z</time>
      </trkpt>
      <trkpt lat="48.90099" lon="2.33">
        <ele>53.599998474121</ele>
        <time>2015-07-27T20:04:44Z</time>
      </trkpt>
      <trkpt lat="48.90093" lon="2.32989">
        <ele>52.599998474121</ele>
        <time>2015-07-27T20:04:50Z</time>
      </trkpt>
      <trkpt lat="48.90085" lon="2.32979">
        <ele>52.20000076294</ele>
        <time>2015-07-27T20:04:54Z</time>
      </trkpt>
      <trkpt lat="48.90081" lon="2.32976">
        <ele>52</ele>
        <time>2015-07-27T20:04:57Z</time>
      </trkpt>
      <trkpt lat="48.9007" lon="2.32963">
        <ele>51.79999923706</ele>
        <time>2015-07-27T20:05:02Z</time>
      </trkpt>
      <trkpt lat="48.90067" lon="2.32962">
        <ele>51.599998474121</ele>
        <time>2015-07-27T20:05:03Z</time>
      </trkpt>
      <trkpt lat="48.9005" lon="2.32964">
        <ele>51.599998474121</ele>
        <time>2015-07-27T20:05:08Z</time>
      </trkpt>
      <trkpt lat="48.90029" lon="2.32963">
        <ele>50.79999923706</ele>
        <time>2015-07-27T20:05:14Z</time>
      </trkpt>
      <trkpt lat="48.90014" lon="2.32959">
        <ele>50.20000076294</ele>
        <time>2015-07-27T20:05:19Z</time>
      </trkpt>
      <trkpt lat="48.90011" lon="2.32957">
        <ele>50</ele>
        <time>2015-07-27T20:05:20Z</time>
      </trkpt>
      <trkpt lat="48.89998" lon="2.32947">
        <ele>49.79999923706</ele>
        <time>2015-07-27T20:05:24Z</time>
      </trkpt>
      <trkpt lat="48.89993" lon="2.32947">
        <ele>49.79999923706</ele>
        <time>2015-07-27T20:05:25Z</time>
      </trkpt>
      <trkpt lat="48.89979" lon="2.32944">
        <ele>49.599998474121</ele>
        <time>2015-07-27T20:05:28Z</time>
      </trkpt>
      <trkpt lat="48.89971" lon="2.32939">
        <ele>49.599998474121</ele>
        <time>2015-07-27T20:05:30Z</time>
      </trkpt>
      <trkpt lat="48.89948" lon="2.32928">
        <ele>49.400001525879</ele>
        <time>2015-07-27T20:05:36Z</time>
      </trkpt>
      <trkpt lat="48.89939" lon="2.32925">
        <ele>49.400001525879</ele>
        <time>2015-07-27T20:05:38Z</time>
      </trkpt>
      <trkpt lat="48.89927" lon="2.32922">
        <ele>49.400001525879</ele>
        <time>2015-07-27T20:05:41Z</time>
      </trkpt>
      <trkpt lat="48.89914" lon="2.32923">
        <ele>49.400001525879</ele>
        <time>2015-07-27T20:05:46Z</time>
      </trkpt>
      <trkpt lat="48.89904" lon="2.32922">
        <ele>49.400001525879</ele>
        <time>2015-07-27T20:05:50Z</time>
      </trkpt>
      <trkpt lat="48.89886" lon="2.32916">
        <ele>49.400001525879</ele>
        <time>2015-07-27T20:05:56Z</time>
      </trkpt>
      <trkpt lat="48.89866" lon="2.32911">
        <ele>49.400001525879</ele>
        <time>2015-07-27T20:06:02Z</time>
      </trkpt>
      <trkpt lat="48.89846" lon="2.32907">
        <ele>49.400001525879</ele>
        <time>2015-07-27T20:06:07Z</time>
      </trkpt>
      <trkpt lat="48.89831" lon="2.32904">
        <ele>49.400001525879</ele>
        <time>2015-07-27T20:06:11Z</time>
      </trkpt>
      <trkpt lat="48.8981" lon="2.32897">
        <ele>49.400001525879</ele>
        <time>2015-07-27T20:06:16Z</time>
      </trkpt>
      <trkpt lat="48.89806" lon="2.32896">
        <ele>49.400001525879</ele>
        <time>2015-07-27T20:06:17Z</time>
      </trkpt>
      <trkpt lat="48.89798" lon="2.32895">
        <ele>49.79999923706</ele>
        <time>2015-07-27T20:06:20Z</time>
      </trkpt>
      <trkpt lat="48.89787" lon="2.32891">
        <ele>50.599998474121</ele>
        <time>2015-07-27T20:06:26Z</time>
      </trkpt>
      <trkpt lat="48.89785" lon="2.3289">
        <ele>50.599998474121</ele>
        <time>2015-07-27T20:06:27Z</time>
      </trkpt>
      <trkpt lat="48.89784" lon="2.32888">
        <ele>51.79999923706</ele>
        <time>2015-07-27T20:06:32Z</time>
      </trkpt>
      <trkpt lat="48.89781" lon="2.32884">
        <ele>53.20000076294</ele>
        <time>2015-07-27T20:06:46Z</time>
      </trkpt>
      <trkpt lat="48.89781" lon="2.32883">
        <ele>54.20000076294</ele>
        <time>2015-07-27T20:06:51Z</time>
      </trkpt>
      <trkpt lat="48.89783" lon="2.32881">
        <ele>55</ele>
        <time>2015-07-27T20:06:58Z</time>
      </trkpt>
      <trkpt lat="48.89783" lon="2.3288">
        <ele>55</ele>
        <time>2015-07-27T20:06:59Z</time>
      </trkpt>
      <trkpt lat="48.89783" lon="2.32876">
        <ele>55.400001525879</ele>
        <time>2015-07-27T20:07:06Z</time>
      </trkpt>
      <trkpt lat="48.89781" lon="2.32877">
        <ele>55.599998474121</ele>
        <time>2015-07-27T20:07:25Z</time>
      </trkpt>
      <trkpt lat="48.89774" lon="2.32882">
        <ele>55.599998474121</ele>
        <time>2015-07-27T20:07:30Z</time>
      </trkpt>
      <trkpt lat="48.89774" lon="2.32884">
        <ele>55.599998474121</ele>
        <time>2015-07-27T20:07:31Z</time>
      </trkpt>
      <trkpt lat="48.89772" lon="2.32888">
        <ele>55.599998474121</ele>
        <time>2015-07-27T20:07:35Z</time>
      </trkpt>
      <trkpt lat="48.89767" lon="2.32889">
        <ele>55.79999923706</ele>
        <time>2015-07-27T20:07:40Z</time>
      </trkpt>
      <trkpt lat="48.89759" lon="2.32887">
        <ele>55.79999923706</ele>
        <time>2015-07-27T20:07:46Z</time>
      </trkpt>
      <trkpt lat="48.89757" lon="2.32887">
        <ele>55.79999923706</ele>
        <time>2015-07-27T20:07:48Z</time>
      </trkpt>
      <trkpt lat="48.89755" lon="2.32886">
        <ele>55.79999923706</ele>
        <time>2015-07-27T20:07:53Z</time>
      </trkpt>
      <trkpt lat="48.89753" lon="2.32889">
        <ele>55.79999923706</ele>
        <time>2015-07-27T20:07:58Z</time>
      </trkpt>
      <trkpt lat="48.89752" lon="2.32894">
        <ele>55.79999923706</ele>
        <time>2015-07-27T20:08:02Z</time>
      </trkpt>
      <trkpt lat="48.89752" lon="2.32903">
        <ele>55.79999923706</ele>
        <time>2015-07-27T20:08:05Z</time>
      </trkpt>
      <trkpt lat="48.89753" lon="2.3291">
        <ele>55.79999923706</ele>
        <time>2015-07-27T20:08:07Z</time>
      </trkpt>
      <trkpt lat="48.89756" lon="2.32931">
        <ele>55.79999923706</ele>
        <time>2015-07-27T20:08:12Z</time>
      </trkpt>
      <trkpt lat="48.89748" lon="2.32946">
        <ele>55.79999923706</ele>
        <time>2015-07-27T20:08:18Z</time>
      </trkpt>
      <trkpt lat="48.89746" lon="2.32948">
        <ele>55.79999923706</ele>
        <time>2015-07-27T20:08:19Z</time>
      </trkpt>
      <trkpt lat="48.89735" lon="2.3296">
        <ele>55.79999923706</ele>
        <time>2015-07-27T20:08:24Z</time>
      </trkpt>
      <trkpt lat="48.89719" lon="2.32973">
        <ele>56</ele>
        <time>2015-07-27T20:08:29Z</time>
      </trkpt>
      <trkpt lat="48.89706" lon="2.32984">
        <ele>56.599998474121</ele>
        <time>2015-07-27T20:08:33Z</time>
      </trkpt>
      <trkpt lat="48.89689" lon="2.32999">
        <ele>57</ele>
        <time>2015-07-27T20:08:38Z</time>
      </trkpt>
      <trkpt lat="48.89679" lon="2.33007">
        <ele>57.20000076294</ele>
        <time>2015-07-27T20:08:41Z</time>
      </trkpt>
      <trkpt lat="48.89664" lon="2.33024">
        <ele>57.400001525879</ele>
        <time>2015-07-27T20:08:46Z</time>
      </trkpt>
      <trkpt lat="48.89648" lon="2.3304">
        <ele>57.599998474121</ele>
        <time>2015-07-27T20:08:51Z</time>
      </trkpt>
      <trkpt lat="48.89632" lon="2.33057">
        <ele>57.599998474121</ele>
        <time>2015-07-27T20:08:56Z</time>
      </trkpt>
      <trkpt lat="48.89618" lon="2.33074">
        <ele>58.400001525879</ele>
        <time>2015-07-27T20:09:00Z</time>
      </trkpt>
      <trkpt lat="48.89601" lon="2.3309">
        <ele>58.79999923706</ele>
        <time>2015-07-27T20:09:04Z</time>
      </trkpt>
      <trkpt lat="48.89585" lon="2.33104">
        <ele>59.20000076294</ele>
        <time>2015-07-27T20:09:08Z</time>
      </trkpt>
      <trkpt lat="48.89569" lon="2.3312">
        <ele>59.400001525879</ele>
        <time>2015-07-27T20:09:13Z</time>
      </trkpt>
      <trkpt lat="48.89556" lon="2.3313">
        <ele>59.599998474121</ele>
        <time>2015-07-27T20:09:17Z</time>
      </trkpt>
      <trkpt lat="48.89536" lon="2.33151">
        <ele>59.599998474121</ele>
        <time>2015-07-27T20:09:22Z</time>
      </trkpt>
      <trkpt lat="48.89532" lon="2.33156">
        <ele>59.599998474121</ele>
        <time>2015-07-27T20:09:23Z</time>
      </trkpt>
      <trkpt lat="48.89511" lon="2.33176">
        <ele>59.599998474121</ele>
        <time>2015-07-27T20:09:27Z</time>
      </trkpt>
      <trkpt lat="48.89507" lon="2.33179">
        <ele>59.599998474121</ele>
        <time>2015-07-27T20:09:28Z</time>
      </trkpt>
      <trkpt lat="48.89486" lon="2.33197">
        <ele>60</ele>
        <time>2015-07-27T20:09:32Z</time>
      </trkpt>
      <trkpt lat="48.8948" lon="2.33203">
        <ele>60.20000076294</ele>
        <time>2015-07-27T20:09:33Z</time>
      </trkpt>
      <trkpt lat="48.89463" lon="2.33219">
        <ele>60.599998474121</ele>
        <time>2015-07-27T20:09:36Z</time>
      </trkpt>
      <trkpt lat="48.89447" lon="2.33234">
        <ele>61</ele>
        <time>2015-07-27T20:09:39Z</time>
      </trkpt>
      <trkpt lat="48.89442" lon="2.33238">
        <ele>61</ele>
        <time>2015-07-27T20:09:40Z</time>
      </trkpt>
      <trkpt lat="48.89425" lon="2.33257">
        <ele>61.599998474121</ele>
        <time>2015-07-27T20:09:45Z</time>
      </trkpt>
      <trkpt lat="48.89424" lon="2.33259">
        <ele>61.79999923706</ele>
        <time>2015-07-27T20:09:46Z</time>
      </trkpt>
      <trkpt lat="48.89423" lon="2.33261">
        <ele>62.400001525879</ele>
        <time>2015-07-27T20:09:49Z</time>
      </trkpt>
      <trkpt lat="48.89421" lon="2.33262">
        <ele>63</ele>
        <time>2015-07-27T20:09:52Z</time>
      </trkpt>
      <trkpt lat="48.89415" lon="2.33259">
        <ele>64.199996948242</ele>
        <time>2015-07-27T20:09:56Z</time>
      </trkpt>
      <trkpt lat="48.89413" lon="2.33258">
        <ele>64.599998474121</ele>
        <time>2015-07-27T20:09:59Z</time>
      </trkpt>
      <trkpt lat="48.89414" lon="2.33267">
        <ele>66</ele>
        <time>2015-07-27T20:10:03Z</time>
      </trkpt>
      <trkpt lat="48.89409" lon="2.33281">
        <ele>66.800003051758</ele>
        <time>2015-07-27T20:10:08Z</time>
      </trkpt>
      <trkpt lat="48.89403" lon="2.33287">
        <ele>67.400001525879</ele>
        <time>2015-07-27T20:10:11Z</time>
      </trkpt>
      <trkpt lat="48.89387" lon="2.33293">
        <ele>69</ele>
        <time>2015-07-27T20:10:18Z</time>
      </trkpt>
      <trkpt lat="48.89372" lon="2.33299">
        <ele>70.199996948242</ele>
        <time>2015-07-27T20:10:23Z</time>
      </trkpt>
      <trkpt lat="48.89352" lon="2.33313">
        <ele>71.800003051758</ele>
        <time>2015-07-27T20:10:29Z</time>
      </trkpt>
      <trkpt lat="48.89335" lon="2.33325">
        <ele>73</ele>
        <time>2015-07-27T20:10:33Z</time>
      </trkpt>
      <trkpt lat="48.89315" lon="2.3334">
        <ele>74.599998474121</ele>
        <time>2015-07-27T20:10:39Z</time>
      </trkpt>
      <trkpt lat="48.89303" lon="2.33348">
        <ele>76.400001525879</ele>
        <time>2015-07-27T20:10:44Z</time>
      </trkpt>
      <trkpt lat="48.89298" lon="2.33352">
        <ele>76.599998474121</ele>
        <time>2015-07-27T20:10:45Z</time>
      </trkpt>
      <trkpt lat="48.89278" lon="2.33353">
        <ele>78.199996948242</ele>
        <time>2015-07-27T20:10:51Z</time>
      </trkpt>
      <trkpt lat="48.89265" lon="2.33353">
        <ele>79.199996948242</ele>
        <time>2015-07-27T20:10:55Z</time>
      </trkpt>
      <trkpt lat="48.89245" lon="2.33353">
        <ele>80</ele>
        <time>2015-07-27T20:11:00Z</time>
      </trkpt>
      <trkpt lat="48.89225" lon="2.33352">
        <ele>80.400001525879</ele>
        <time>2015-07-27T20:11:05Z</time>
      </trkpt>
      <trkpt lat="48.89221" lon="2.33351">
        <ele>80.400001525879</ele>
        <time>2015-07-27T20:11:06Z</time>
      </trkpt>
      <trkpt lat="48.89209" lon="2.33348">
        <ele>80.599998474121</ele>
        <time>2015-07-27T20:11:09Z</time>
      </trkpt>
      <trkpt lat="48.89193" lon="2.33345">
        <ele>80.800003051758</ele>
        <time>2015-07-27T20:11:13Z</time>
      </trkpt>
      <trkpt lat="48.89184" lon="2.33345">
        <ele>81</ele>
        <time>2015-07-27T20:11:15Z</time>
      </trkpt>
      <trkpt lat="48.89173" lon="2.33335">
        <ele>81.800003051758</ele>
        <time>2015-07-27T20:11:19Z</time>
      </trkpt>
      <trkpt lat="48.89172" lon="2.3333">
        <ele>82</ele>
        <time>2015-07-27T20:11:20Z</time>
      </trkpt>
      <trkpt lat="48.89162" lon="2.33304">
        <ele>82.599998474121</ele>
        <time>2015-07-27T20:11:26Z</time>
      </trkpt>
      <trkpt lat="48.8915" lon="2.33281">
        <ele>82.800003051758</ele>
        <time>2015-07-27T20:11:31Z</time>
      </trkpt>
      <trkpt lat="48.8914" lon="2.33258">
        <ele>83</ele>
        <time>2015-07-27T20:11:36Z</time>
      </trkpt>
      <trkpt lat="48.8913" lon="2.33232">
        <ele>83</ele>
        <time>2015-07-27T20:11:41Z</time>
      </trkpt>
      <trkpt lat="48.89123" lon="2.33206">
        <ele>83</ele>
        <time>2015-07-27T20:11:46Z</time>
      </trkpt>
      <trkpt lat="48.89113" lon="2.33181">
        <ele>83.199996948242</ele>
        <time>2015-07-27T20:11:51Z</time>
      </trkpt>
      <trkpt lat="48.89102" lon="2.33155">
        <ele>83.199996948242</ele>
        <time>2015-07-27T20:11:57Z</time>
      </trkpt>
      <trkpt lat="48.8909" lon="2.3313">
        <ele>83.199996948242</ele>
        <time>2015-07-27T20:12:02Z</time>
      </trkpt>
      <trkpt lat="48.89077" lon="2.33103">
        <ele>83.800003051758</ele>
        <time>2015-07-27T20:12:07Z</time>
      </trkpt>
      <trkpt lat="48.89066" lon="2.33079">
        <ele>84.400001525879</ele>
        <time>2015-07-27T20:12:11Z</time>
      </trkpt>
      <trkpt lat="48.89062" lon="2.33073">
        <ele>84.400001525879</ele>
        <time>2015-07-27T20:12:12Z</time>
      </trkpt>
      <trkpt lat="48.8906" lon="2.33067">
        <ele>84.599998474121</ele>
        <time>2015-07-27T20:12:13Z</time>
      </trkpt>
      <trkpt lat="48.8905" lon="2.33045">
        <ele>84.800003051758</ele>
        <time>2015-07-27T20:12:17Z</time>
      </trkpt>
      <trkpt lat="48.8904" lon="2.33022">
        <ele>85.400001525879</ele>
        <time>2015-07-27T20:12:21Z</time>
      </trkpt>
      <trkpt lat="48.89036" lon="2.33015">
        <ele>85.599998474121</ele>
        <time>2015-07-27T20:12:22Z</time>
      </trkpt>
      <trkpt lat="48.89023" lon="2.32986">
        <ele>86.199996948242</ele>
        <time>2015-07-27T20:12:26Z</time>
      </trkpt>
      <trkpt lat="48.8902" lon="2.32979">
        <ele>86.199996948242</ele>
        <time>2015-07-27T20:12:27Z</time>
      </trkpt>
      <trkpt lat="48.89008" lon="2.32953">
        <ele>86.599998474121</ele>
        <time>2015-07-27T20:12:31Z</time>
      </trkpt>
      <trkpt lat="48.89003" lon="2.32941">
        <ele>86.800003051758</ele>
        <time>2015-07-27T20:12:33Z</time>
      </trkpt>
      <trkpt lat="48.88997" lon="2.3293">
        <ele>86.800003051758</ele>
        <time>2015-07-27T20:12:35Z</time>
      </trkpt>
      <trkpt lat="48.88992" lon="2.3292">
        <ele>87</ele>
        <time>2015-07-27T20:12:37Z</time>
      </trkpt>
      <trkpt lat="48.88975" lon="2.32891">
        <ele>87</ele>
        <time>2015-07-27T20:12:42Z</time>
      </trkpt>
      <trkpt lat="48.88971" lon="2.32886">
        <ele>87</ele>
        <time>2015-07-27T20:12:43Z</time>
      </trkpt>
      <trkpt lat="48.88954" lon="2.32866">
        <ele>87.199996948242</ele>
        <time>2015-07-27T20:12:47Z</time>
      </trkpt>
      <trkpt lat="48.88938" lon="2.3285">
        <ele>87.199996948242</ele>
        <time>2015-07-27T20:12:51Z</time>
      </trkpt>
      <trkpt lat="48.88921" lon="2.32837">
        <ele>87.199996948242</ele>
        <time>2015-07-27T20:12:55Z</time>
      </trkpt>
      <trkpt lat="48.88902" lon="2.3282">
        <ele>86.400001525879</ele>
        <time>2015-07-27T20:13:00Z</time>
      </trkpt>
      <trkpt lat="48.88882" lon="2.32807">
        <ele>85.800003051758</ele>
        <time>2015-07-27T20:13:05Z</time>
      </trkpt>
      <trkpt lat="48.88878" lon="2.32804">
        <ele>85.599998474121</ele>
        <time>2015-07-27T20:13:06Z</time>
      </trkpt>
      <trkpt lat="48.88866" lon="2.32793">
        <ele>84.800003051758</ele>
        <time>2015-07-27T20:13:09Z</time>
      </trkpt>
      <trkpt lat="48.88863" lon="2.3279">
        <ele>84.599998474121</ele>
        <time>2015-07-27T20:13:10Z</time>
      </trkpt>
      <trkpt lat="48.88856" lon="2.32784">
        <ele>84.400001525879</ele>
        <time>2015-07-27T20:13:12Z</time>
      </trkpt>
      <trkpt lat="48.88839" lon="2.32769">
        <ele>83.800003051758</ele>
        <time>2015-07-27T20:13:17Z</time>
      </trkpt>
      <trkpt lat="48.88824" lon="2.32759">
        <ele>83.400001525879</ele>
        <time>2015-07-27T20:13:22Z</time>
      </trkpt>
      <trkpt lat="48.88822" lon="2.32759">
        <ele>83.400001525879</ele>
        <time>2015-07-27T20:13:23Z</time>
      </trkpt>
      <trkpt lat="48.88806" lon="2.32778">
        <ele>82.800003051758</ele>
        <time>2015-07-27T20:13:30Z</time>
      </trkpt>
      <trkpt lat="48.88799" lon="2.32785">
        <ele>82</ele>
        <time>2015-07-27T20:13:35Z</time>
      </trkpt>
      <trkpt lat="48.88796" lon="2.32786">
        <ele>81.599998474121</ele>
        <time>2015-07-27T20:13:39Z</time>
      </trkpt>
      <trkpt lat="48.88791" lon="2.32794">
        <ele>81.400001525879</ele>
        <time>2015-07-27T20:13:44Z</time>
      </trkpt>
      <trkpt lat="48.8879" lon="2.32795">
        <ele>81.400001525879</ele>
        <time>2015-07-27T20:13:45Z</time>
      </trkpt>
      <trkpt lat="48.88778" lon="2.32803">
        <ele>81.199996948242</ele>
        <time>2015-07-27T20:13:52Z</time>
      </trkpt>
      <trkpt lat="48.88769" lon="2.32815">
        <ele>81</ele>
        <time>2015-07-27T20:13:57Z</time>
      </trkpt>
      <trkpt lat="48.88758" lon="2.32828">
        <ele>81</ele>
        <time>2015-07-27T20:14:02Z</time>
      </trkpt>
      <trkpt lat="48.88747" lon="2.32839">
        <ele>81</ele>
        <time>2015-07-27T20:14:07Z</time>
      </trkpt>
      <trkpt lat="48.88736" lon="2.32852">
        <ele>81</ele>
        <time>2015-07-27T20:14:13Z</time>
      </trkpt>
      <trkpt lat="48.88726" lon="2.32855">
        <ele>81</ele>
        <time>2015-07-27T20:14:17Z</time>
      </trkpt>
      <trkpt lat="48.88717" lon="2.32849">
        <ele>81</ele>
        <time>2015-07-27T20:14:21Z</time>
      </trkpt>
      <trkpt lat="48.8871" lon="2.32839">
        <ele>81</ele>
        <time>2015-07-27T20:14:26Z</time>
      </trkpt>
      <trkpt lat="48.88702" lon="2.3283">
        <ele>81</ele>
        <time>2015-07-27T20:14:30Z</time>
      </trkpt>
      <trkpt lat="48.88701" lon="2.32827">
        <ele>81</ele>
        <time>2015-07-27T20:14:31Z</time>
      </trkpt>
      <trkpt lat="48.88695" lon="2.32811">
        <ele>81.599998474121</ele>
        <time>2015-07-27T20:14:36Z</time>
      </trkpt>
      <trkpt lat="48.8868" lon="2.32789">
        <ele>82.400001525879</ele>
        <time>2015-07-27T20:14:43Z</time>
      </trkpt>
      <trkpt lat="48.88673" lon="2.3278">
        <ele>83.199996948242</ele>
        <time>2015-07-27T20:14:46Z</time>
      </trkpt>
      <trkpt lat="48.88658" lon="2.32788">
        <ele>84</ele>
        <time>2015-07-27T20:14:51Z</time>
      </trkpt>
      <trkpt lat="48.88655" lon="2.3279">
        <ele>84.199996948242</ele>
        <time>2015-07-27T20:14:52Z</time>
      </trkpt>
      <trkpt lat="48.88637" lon="2.32807">
        <ele>84.599998474121</ele>
        <time>2015-07-27T20:14:58Z</time>
      </trkpt>
      <trkpt lat="48.88621" lon="2.32828">
        <ele>84.800003051758</ele>
        <time>2015-07-27T20:15:03Z</time>
      </trkpt>
      <trkpt lat="48.88615" lon="2.32836">
        <ele>85</ele>
        <time>2015-07-27T20:15:05Z</time>
      </trkpt>
      <trkpt lat="48.886" lon="2.32854">
        <ele>85</ele>
        <time>2015-07-27T20:15:09Z</time>
      </trkpt>
      <trkpt lat="48.88593" lon="2.32864">
        <ele>85.400001525879</ele>
        <time>2015-07-27T20:15:11Z</time>
      </trkpt>
      <trkpt lat="48.88579" lon="2.32888">
        <ele>86.199996948242</ele>
        <time>2015-07-27T20:15:16Z</time>
      </trkpt>
      <trkpt lat="48.88571" lon="2.329">
        <ele>86.599998474121</ele>
        <time>2015-07-27T20:15:20Z</time>
      </trkpt>
      <trkpt lat="48.88561" lon="2.3292">
        <ele>86.800003051758</ele>
        <time>2015-07-27T20:15:25Z</time>
      </trkpt>
      <trkpt lat="48.88557" lon="2.32924">
        <ele>86.800003051758</ele>
        <time>2015-07-27T20:15:26Z</time>
      </trkpt>
      <trkpt lat="48.88533" lon="2.32931">
        <ele>87</ele>
        <time>2015-07-27T20:15:32Z</time>
      </trkpt>
      <trkpt lat="48.88514" lon="2.32937">
        <ele>87.199996948242</ele>
        <time>2015-07-27T20:15:36Z</time>
      </trkpt>
      <trkpt lat="48.88494" lon="2.32943">
        <ele>87.199996948242</ele>
        <time>2015-07-27T20:15:40Z</time>
      </trkpt>
      <trkpt lat="48.88483" lon="2.32947">
        <ele>87.199996948242</ele>
        <time>2015-07-27T20:15:43Z</time>
      </trkpt>
      <trkpt lat="48.88475" lon="2.32949">
        <ele>87.199996948242</ele>
        <time>2015-07-27T20:15:47Z</time>
      </trkpt>
      <trkpt lat="48.88472" lon="2.3295">
        <ele>87.199996948242</ele>
        <time>2015-07-27T20:15:53Z</time>
      </trkpt>
      <trkpt lat="48.88467" lon="2.32954">
        <ele>88.400001525879</ele>
        <time>2015-07-27T20:16:09Z</time>
      </trkpt>
      <trkpt lat="48.88467" lon="2.32954">
        <ele>88.599998474121</ele>
        <time>2015-07-27T20:16:10Z</time>
      </trkpt>
      <trkpt lat="48.88463" lon="2.32964">
        <ele>89.599998474121</ele>
        <time>2015-07-27T20:16:14Z</time>
      </trkpt>
      <trkpt lat="48.88462" lon="2.32967">
        <ele>89.800003051758</ele>
        <time>2015-07-27T20:16:15Z</time>
      </trkpt>
      <trkpt lat="48.88462" lon="2.32979">
        <ele>90.400001525879</ele>
        <time>2015-07-27T20:16:20Z</time>
      </trkpt>
      <trkpt lat="48.88461" lon="2.32983">
        <ele>91</ele>
        <time>2015-07-27T20:16:26Z</time>
      </trkpt>
      <trkpt lat="48.88458" lon="2.32983">
        <ele>91</ele>
        <time>2015-07-27T20:16:30Z</time>
      </trkpt>
      <trkpt lat="48.88448" lon="2.32984">
        <ele>91.199996948242</ele>
        <time>2015-07-27T20:16:34Z</time>
      </trkpt>
      <trkpt lat="48.88442" lon="2.32993">
        <ele>91.199996948242</ele>
        <time>2015-07-27T20:16:37Z</time>
      </trkpt>
      <trkpt lat="48.88435" lon="2.33011">
        <ele>91.400001525879</ele>
        <time>2015-07-27T20:16:42Z</time>
      </trkpt>
      <trkpt lat="48.88431" lon="2.3303">
        <ele>91.400001525879</ele>
        <time>2015-07-27T20:16:46Z</time>
      </trkpt>
      <trkpt lat="48.88428" lon="2.33041">
        <ele>90.599998474121</ele>
        <time>2015-07-27T20:16:50Z</time>
      </trkpt>
      <trkpt lat="48.88424" lon="2.33045">
        <ele>90.199996948242</ele>
        <time>2015-07-27T20:16:55Z</time>
      </trkpt>
      <trkpt lat="48.88425" lon="2.33041">
        <ele>89.800003051758</ele>
        <time>2015-07-27T20:16:59Z</time>
      </trkpt>
      <trkpt lat="48.8843" lon="2.33046">
        <ele>89.400001525879</ele>
        <time>2015-07-27T20:17:14Z</time>
      </trkpt>
      <trkpt lat="48.88427" lon="2.33062">
        <ele>89.400001525879</ele>
        <time>2015-07-27T20:17:19Z</time>
      </trkpt>
      <trkpt lat="48.88423" lon="2.3308">
        <ele>89.400001525879</ele>
        <time>2015-07-27T20:17:23Z</time>
      </trkpt>
      <trkpt lat="48.88413" lon="2.33081">
        <ele>89.400001525879</ele>
        <time>2015-07-27T20:17:27Z</time>
      </trkpt>
      <trkpt lat="48.88403" lon="2.33075">
        <ele>89</ele>
        <time>2015-07-27T20:17:30Z</time>
      </trkpt>
      <trkpt lat="48.88397" lon="2.33072">
        <ele>88.599998474121</ele>
        <time>2015-07-27T20:17:32Z</time>
      </trkpt>
      <trkpt lat="48.88384" lon="2.33059">
        <ele>88.199996948242</ele>
        <time>2015-07-27T20:17:36Z</time>
      </trkpt>
      <trkpt lat="48.88369" lon="2.33047">
        <ele>87.800003051758</ele>
        <time>2015-07-27T20:17:40Z</time>
      </trkpt>
      <trkpt lat="48.88351" lon="2.3303">
        <ele>87.199996948242</ele>
        <time>2015-07-27T20:17:46Z</time>
      </trkpt>
      <trkpt lat="48.88348" lon="2.3303">
        <ele>87</ele>
        <time>2015-07-27T20:17:47Z</time>
      </trkpt>
      <trkpt lat="48.88338" lon="2.33032">
        <ele>86.199996948242</ele>
        <time>2015-07-27T20:17:52Z</time>
      </trkpt>
      <trkpt lat="48.88333" lon="2.33029">
        <ele>85.800003051758</ele>
        <time>2015-07-27T20:17:56Z</time>
      </trkpt>
      <trkpt lat="48.88324" lon="2.33021">
        <ele>85</ele>
        <time>2015-07-27T20:18:02Z</time>
      </trkpt>
      <trkpt lat="48.88318" lon="2.33013">
        <ele>84.400001525879</ele>
        <time>2015-07-27T20:18:06Z</time>
      </trkpt>
      <trkpt lat="48.88318" lon="2.33011">
        <ele>84.199996948242</ele>
        <time>2015-07-27T20:18:07Z</time>
      </trkpt>
      <trkpt lat="48.88305" lon="2.32991">
        <ele>83.400001525879</ele>
        <time>2015-07-27T20:18:12Z</time>
      </trkpt>
      <trkpt lat="48.88297" lon="2.32986">
        <ele>82.599998474121</ele>
        <time>2015-07-27T20:18:15Z</time>
      </trkpt>
      <trkpt lat="48.88291" lon="2.32993">
        <ele>82</ele>
        <time>2015-07-27T20:18:19Z</time>
      </trkpt>
      <trkpt lat="48.88287" lon="2.33002">
        <ele>81.800003051758</ele>
        <time>2015-07-27T20:18:21Z</time>
      </trkpt>
      <trkpt lat="48.88276" lon="2.33031">
        <ele>81.400001525879</ele>
        <time>2015-07-27T20:18:26Z</time>
      </trkpt>
      <trkpt lat="48.88267" lon="2.33058">
        <ele>81.199996948242</ele>
        <time>2015-07-27T20:18:30Z</time>
      </trkpt>
      <trkpt lat="48.88257" lon="2.33085">
        <ele>80.400001525879</ele>
        <time>2015-07-27T20:18:34Z</time>
      </trkpt>
      <trkpt lat="48.88246" lon="2.33113">
        <ele>80</ele>
        <time>2015-07-27T20:18:38Z</time>
      </trkpt>
      <trkpt lat="48.88238" lon="2.33137">
        <ele>79.599998474121</ele>
        <time>2015-07-27T20:18:41Z</time>
      </trkpt>
      <trkpt lat="48.88222" lon="2.33183">
        <ele>78.800003051758</ele>
        <time>2015-07-27T20:18:48Z</time>
      </trkpt>
      <trkpt lat="48.88209" lon="2.33181">
        <ele>78.199996948242</ele>
        <time>2015-07-27T20:18:51Z</time>
      </trkpt>
      <trkpt lat="48.88194" lon="2.33175">
        <ele>77.800003051758</ele>
        <time>2015-07-27T20:18:54Z</time>
      </trkpt>
      <trkpt lat="48.88183" lon="2.33172">
        <ele>77.199996948242</ele>
        <time>2015-07-27T20:18:56Z</time>
      </trkpt>
      <trkpt lat="48.88172" lon="2.33169">
        <ele>76.800003051758</ele>
        <time>2015-07-27T20:18:58Z</time>
      </trkpt>
      <trkpt lat="48.88154" lon="2.33161">
        <ele>76.199996948242</ele>
        <time>2015-07-27T20:19:01Z</time>
      </trkpt>
      <trkpt lat="48.88149" lon="2.33159">
        <ele>76</ele>
        <time>2015-07-27T20:19:02Z</time>
      </trkpt>
      <trkpt lat="48.88129" lon="2.33156">
        <ele>75.400001525879</ele>
        <time>2015-07-27T20:19:05Z</time>
      </trkpt>
      <trkpt lat="48.88108" lon="2.3315">
        <ele>74.599998474121</ele>
        <time>2015-07-27T20:19:08Z</time>
      </trkpt>
      <trkpt lat="48.88101" lon="2.33147">
        <ele>74.400001525879</ele>
        <time>2015-07-27T20:19:09Z</time>
      </trkpt>
      <trkpt lat="48.88069" lon="2.33142">
        <ele>73.800003051758</ele>
        <time>2015-07-27T20:19:13Z</time>
      </trkpt>
      <trkpt lat="48.88046" lon="2.3314">
        <ele>73.400001525879</ele>
        <time>2015-07-27T20:19:16Z</time>
      </trkpt>
      <trkpt lat="48.88023" lon="2.33138">
        <ele>72.400001525879</ele>
        <time>2015-07-27T20:19:20Z</time>
      </trkpt>
      <trkpt lat="48.88001" lon="2.3314">
        <ele>71.800003051758</ele>
        <time>2015-07-27T20:19:24Z</time>
      </trkpt>
      <trkpt lat="48.87982" lon="2.33139">
        <ele>71.400001525879</ele>
        <time>2015-07-27T20:19:27Z</time>
      </trkpt>
      <trkpt lat="48.87962" lon="2.3314">
        <ele>71.199996948242</ele>
        <time>2015-07-27T20:19:30Z</time>
      </trkpt>
      <trkpt lat="48.87941" lon="2.33141">
        <ele>71</ele>
        <time>2015-07-27T20:19:33Z</time>
      </trkpt>
      <trkpt lat="48.87921" lon="2.33141">
        <ele>70.199996948242</ele>
        <time>2015-07-27T20:19:36Z</time>
      </trkpt>
      <trkpt lat="48.87902" lon="2.33143">
        <ele>69.800003051758</ele>
        <time>2015-07-27T20:19:39Z</time>
      </trkpt>
      <trkpt lat="48.87895" lon="2.33144">
        <ele>69.599998474121</ele>
        <time>2015-07-27T20:19:40Z</time>
      </trkpt>
      <trkpt lat="48.87877" lon="2.33154">
        <ele>69.400001525879</ele>
        <time>2015-07-27T20:19:43Z</time>
      </trkpt>
      <trkpt lat="48.87858" lon="2.33164">
        <ele>69</ele>
        <time>2015-07-27T20:19:46Z</time>
      </trkpt>
      <trkpt lat="48.87839" lon="2.33172">
        <ele>69</ele>
        <time>2015-07-27T20:19:49Z</time>
      </trkpt>
      <trkpt lat="48.87819" lon="2.3318">
        <ele>68.800003051758</ele>
        <time>2015-07-27T20:19:52Z</time>
      </trkpt>
      <trkpt lat="48.87798" lon="2.33189">
        <ele>68.199996948242</ele>
        <time>2015-07-27T20:19:55Z</time>
      </trkpt>
      <trkpt lat="48.87785" lon="2.33195">
        <ele>67.800003051758</ele>
        <time>2015-07-27T20:19:57Z</time>
      </trkpt>
      <trkpt lat="48.87759" lon="2.33204">
        <ele>67</ele>
        <time>2015-07-27T20:20:01Z</time>
      </trkpt>
      <trkpt lat="48.87739" lon="2.33209">
        <ele>66.400001525879</ele>
        <time>2015-07-27T20:20:04Z</time>
      </trkpt>
      <trkpt lat="48.87733" lon="2.33213">
        <ele>66.199996948242</ele>
        <time>2015-07-27T20:20:05Z</time>
      </trkpt>
      <trkpt lat="48.87714" lon="2.33223">
        <ele>65.599998474121</ele>
        <time>2015-07-27T20:20:08Z</time>
      </trkpt>
      <trkpt lat="48.87702" lon="2.33226">
        <ele>65.199996948242</ele>
        <time>2015-07-27T20:20:10Z</time>
      </trkpt>
      <trkpt lat="48.87691" lon="2.3323">
        <ele>64.599998474121</ele>
        <time>2015-07-27T20:20:12Z</time>
      </trkpt>
      <trkpt lat="48.87674" lon="2.33235">
        <ele>63.79999923706</ele>
        <time>2015-07-27T20:20:16Z</time>
      </trkpt>
      <trkpt lat="48.87668" lon="2.33237">
        <ele>63</ele>
        <time>2015-07-27T20:20:18Z</time>
      </trkpt>
      <trkpt lat="48.87667" lon="2.33236">
        <ele>61.20000076294</ele>
        <time>2015-07-27T20:20:23Z</time>
      </trkpt>
      <trkpt lat="48.87667" lon="2.33235">
        <ele>60.79999923706</ele>
        <time>2015-07-27T20:20:24Z</time>
      </trkpt>
      <trkpt lat="48.87659" lon="2.33217">
        <ele>59</ele>
        <time>2015-07-27T20:20:29Z</time>
      </trkpt>
      <trkpt lat="48.87648" lon="2.33189">
        <ele>57.400001525879</ele>
        <time>2015-07-27T20:20:34Z</time>
      </trkpt>
      <trkpt lat="48.87644" lon="2.33178">
        <ele>56.599998474121</ele>
        <time>2015-07-27T20:20:36Z</time>
      </trkpt>
      <trkpt lat="48.87635" lon="2.33179">
        <ele>55.599998474121</ele>
        <time>2015-07-27T20:20:40Z</time>
      </trkpt>
      <trkpt lat="48.8763" lon="2.33183">
        <ele>55</ele>
        <time>2015-07-27T20:20:43Z</time>
      </trkpt>
      <trkpt lat="48.87631" lon="2.33182">
        <ele>54.599998474121</ele>
        <time>2015-07-27T20:20:45Z</time>
      </trkpt>
      <trkpt lat="48.87634" lon="2.33191">
        <ele>53.400001525879</ele>
        <time>2015-07-27T20:20:49Z</time>
      </trkpt>
      <trkpt lat="48.87638" lon="2.33197">
        <ele>52.400001525879</ele>
        <time>2015-07-27T20:20:56Z</time>
      </trkpt>
      <trkpt lat="48.87635" lon="2.33192">
        <ele>50.79999923706</ele>
        <time>2015-07-27T20:21:11Z</time>
      </trkpt>
      <trkpt lat="48.87634" lon="2.3319">
        <ele>50.599998474121</ele>
        <time>2015-07-27T20:21:12Z</time>
      </trkpt>
      <trkpt lat="48.8762" lon="2.33191">
        <ele>50</ele>
        <time>2015-07-27T20:21:18Z</time>
      </trkpt>
      <trkpt lat="48.87602" lon="2.33196">
        <ele>48.79999923706</ele>
        <time>2015-07-27T20:21:24Z</time>
      </trkpt>
      <trkpt lat="48.87585" lon="2.33203">
        <ele>48.20000076294</ele>
        <time>2015-07-27T20:21:28Z</time>
      </trkpt>
      <trkpt lat="48.87575" lon="2.33205">
        <ele>48</ele>
        <time>2015-07-27T20:21:30Z</time>
      </trkpt>
      <trkpt lat="48.8756" lon="2.33211">
        <ele>47.79999923706</ele>
        <time>2015-07-27T20:21:33Z</time>
      </trkpt>
      <trkpt lat="48.87534" lon="2.33223">
        <ele>47.599998474121</ele>
        <time>2015-07-27T20:21:38Z</time>
      </trkpt>
      <trkpt lat="48.87529" lon="2.33226">
        <ele>47.599998474121</ele>
        <time>2015-07-27T20:21:39Z</time>
      </trkpt>
      <trkpt lat="48.87508" lon="2.33237">
        <ele>47.400001525879</ele>
        <time>2015-07-27T20:21:43Z</time>
      </trkpt>
      <trkpt lat="48.87488" lon="2.33247">
        <ele>47.400001525879</ele>
        <time>2015-07-27T20:21:46Z</time>
      </trkpt>
      <trkpt lat="48.87466" lon="2.33257">
        <ele>47.20000076294</ele>
        <time>2015-07-27T20:21:50Z</time>
      </trkpt>
      <trkpt lat="48.8745" lon="2.33262">
        <ele>47.20000076294</ele>
        <time>2015-07-27T20:21:53Z</time>
      </trkpt>
      <trkpt lat="48.87433" lon="2.33269">
        <ele>47.20000076294</ele>
        <time>2015-07-27T20:21:57Z</time>
      </trkpt>
      <trkpt lat="48.87429" lon="2.33268">
        <ele>47.20000076294</ele>
        <time>2015-07-27T20:22:04Z</time>
      </trkpt>
      <trkpt lat="48.87428" lon="2.33272">
        <ele>47.20000076294</ele>
        <time>2015-07-27T20:22:07Z</time>
      </trkpt>
      <trkpt lat="48.87405" lon="2.33285">
        <ele>47.20000076294</ele>
        <time>2015-07-27T20:22:12Z</time>
      </trkpt>
      <trkpt lat="48.87387" lon="2.33294">
        <ele>47.20000076294</ele>
        <time>2015-07-27T20:22:15Z</time>
      </trkpt>
      <trkpt lat="48.8738" lon="2.33298">
        <ele>47.20000076294</ele>
        <time>2015-07-27T20:22:16Z</time>
      </trkpt>
      <trkpt lat="48.87356" lon="2.33306">
        <ele>47.20000076294</ele>
        <time>2015-07-27T20:22:20Z</time>
      </trkpt>
      <trkpt lat="48.87344" lon="2.3331">
        <ele>47.20000076294</ele>
        <time>2015-07-27T20:22:22Z</time>
      </trkpt>
      <trkpt lat="48.87329" lon="2.33319">
        <ele>47.20000076294</ele>
        <time>2015-07-27T20:22:25Z</time>
      </trkpt>
      <trkpt lat="48.87315" lon="2.33327">
        <ele>47.20000076294</ele>
        <time>2015-07-27T20:22:29Z</time>
      </trkpt>
      <trkpt lat="48.87312" lon="2.33328">
        <ele>47.20000076294</ele>
        <time>2015-07-27T20:22:31Z</time>
      </trkpt>
      <trkpt lat="48.87308" lon="2.3333">
        <ele>47.79999923706</ele>
        <time>2015-07-27T20:22:35Z</time>
      </trkpt>
      <trkpt lat="48.87298" lon="2.33343">
        <ele>48.400001525879</ele>
        <time>2015-07-27T20:22:41Z</time>
      </trkpt>
      <trkpt lat="48.87291" lon="2.33346">
        <ele>49</ele>
        <time>2015-07-27T20:22:43Z</time>
      </trkpt>
      <trkpt lat="48.87271" lon="2.33349">
        <ele>50.20000076294</ele>
        <time>2015-07-27T20:22:49Z</time>
      </trkpt>
      <trkpt lat="48.87256" lon="2.33354">
        <ele>50.79999923706</ele>
        <time>2015-07-27T20:22:53Z</time>
      </trkpt>
      <trkpt lat="48.87239" lon="2.33362">
        <ele>51</ele>
        <time>2015-07-27T20:22:57Z</time>
      </trkpt>
      <trkpt lat="48.87221" lon="2.3337">
        <ele>51.20000076294</ele>
        <time>2015-07-27T20:23:01Z</time>
      </trkpt>
      <trkpt lat="48.87216" lon="2.33372">
        <ele>51.20000076294</ele>
        <time>2015-07-27T20:23:02Z</time>
      </trkpt>
      <trkpt lat="48.87211" lon="2.33374">
        <ele>51.400001525879</ele>
        <time>2015-07-27T20:23:03Z</time>
      </trkpt>
      <trkpt lat="48.87186" lon="2.33382">
        <ele>51.400001525879</ele>
        <time>2015-07-27T20:23:08Z</time>
      </trkpt>
      <trkpt lat="48.87181" lon="2.33383">
        <ele>51.400001525879</ele>
        <time>2015-07-27T20:23:09Z</time>
      </trkpt>
      <trkpt lat="48.87155" lon="2.33391">
        <ele>51.599998474121</ele>
        <time>2015-07-27T20:23:14Z</time>
      </trkpt>
      <trkpt lat="48.87137" lon="2.33395">
        <ele>52.20000076294</ele>
        <time>2015-07-27T20:23:18Z</time>
      </trkpt>
      <trkpt lat="48.8712" lon="2.33401">
        <ele>52.599998474121</ele>
        <time>2015-07-27T20:23:22Z</time>
      </trkpt>
      <trkpt lat="48.871" lon="2.33409">
        <ele>53.79999923706</ele>
        <time>2015-07-27T20:23:28Z</time>
      </trkpt>
      <trkpt lat="48.87098" lon="2.3341">
        <ele>54</ele>
        <time>2015-07-27T20:23:29Z</time>
      </trkpt>
      <trkpt lat="48.87098" lon="2.33416">
        <ele>54.79999923706</ele>
        <time>2015-07-27T20:23:36Z</time>
      </trkpt>
      <trkpt lat="48.87093" lon="2.33424">
        <ele>55.20000076294</ele>
        <time>2015-07-27T20:23:40Z</time>
      </trkpt>
      <trkpt lat="48.8709" lon="2.33447">
        <ele>55.400001525879</ele>
        <time>2015-07-27T20:23:45Z</time>
      </trkpt>
      <trkpt lat="48.87092" lon="2.3345">
        <ele>55.400001525879</ele>
        <time>2015-07-27T20:23:48Z</time>
      </trkpt>
      <trkpt lat="48.87093" lon="2.3346">
        <ele>54.79999923706</ele>
        <time>2015-07-27T20:23:53Z</time>
      </trkpt>
      <trkpt lat="48.87092" lon="2.33464">
        <ele>54.599998474121</ele>
        <time>2015-07-27T20:23:54Z</time>
      </trkpt>
      <trkpt lat="48.87084" lon="2.3347">
        <ele>54.20000076294</ele>
        <time>2015-07-27T20:23:58Z</time>
      </trkpt>
      <trkpt lat="48.87068" lon="2.33473">
        <ele>54</ele>
        <time>2015-07-27T20:24:03Z</time>
      </trkpt>
      <trkpt lat="48.87048" lon="2.33475">
        <ele>53.79999923706</ele>
        <time>2015-07-27T20:24:08Z</time>
      </trkpt>
      <trkpt lat="48.87028" lon="2.33478">
        <ele>53.79999923706</ele>
        <time>2015-07-27T20:24:13Z</time>
      </trkpt>
      <trkpt lat="48.87013" lon="2.33482">
        <ele>53.79999923706</ele>
        <time>2015-07-27T20:24:17Z</time>
      </trkpt>
      <trkpt lat="48.86997" lon="2.3348">
        <ele>53.79999923706</ele>
        <time>2015-07-27T20:24:21Z</time>
      </trkpt>
      <trkpt lat="48.86984" lon="2.33481">
        <ele>53.599998474121</ele>
        <time>2015-07-27T20:24:25Z</time>
      </trkpt>
      <trkpt lat="48.8698" lon="2.3348">
        <ele>53.599998474121</ele>
        <time>2015-07-27T20:24:26Z</time>
      </trkpt>
      <trkpt lat="48.86964" lon="2.33475">
        <ele>53.20000076294</ele>
        <time>2015-07-27T20:24:30Z</time>
      </trkpt>
      <trkpt lat="48.86951" lon="2.33473">
        <ele>52.79999923706</ele>
        <time>2015-07-27T20:24:33Z</time>
      </trkpt>
      <trkpt lat="48.86947" lon="2.33474">
        <ele>52.599998474121</ele>
        <time>2015-07-27T20:24:34Z</time>
      </trkpt>
      <trkpt lat="48.86918" lon="2.33463">
        <ele>52</ele>
        <time>2015-07-27T20:24:41Z</time>
      </trkpt>
      <trkpt lat="48.86914" lon="2.33461">
        <ele>52</ele>
        <time>2015-07-27T20:24:42Z</time>
      </trkpt>
      <trkpt lat="48.86901" lon="2.33455">
        <ele>52</ele>
        <time>2015-07-27T20:24:45Z</time>
      </trkpt>
      <trkpt lat="48.86893" lon="2.33445">
        <ele>51.599998474121</ele>
        <time>2015-07-27T20:24:48Z</time>
      </trkpt>
      <trkpt lat="48.86893" lon="2.3347">
        <ele>50.79999923706</ele>
        <time>2015-07-27T20:24:53Z</time>
      </trkpt>
      <trkpt lat="48.86893" lon="2.33504">
        <ele>50</ele>
        <time>2015-07-27T20:24:57Z</time>
      </trkpt>
      <trkpt lat="48.86893" lon="2.33533">
        <ele>49.20000076294</ele>
        <time>2015-07-27T20:25:00Z</time>
      </trkpt>
      <trkpt lat="48.86894" lon="2.33559">
        <ele>48.79999923706</ele>
        <time>2015-07-27T20:25:03Z</time>
      </trkpt>
      <trkpt lat="48.86894" lon="2.33584">
        <ele>48.400001525879</ele>
        <time>2015-07-27T20:25:06Z</time>
      </trkpt>
      <trkpt lat="48.86894" lon="2.33616">
        <ele>48</ele>
        <time>2015-07-27T20:25:10Z</time>
      </trkpt>
      <trkpt lat="48.86894" lon="2.3365">
        <ele>47.79999923706</ele>
        <time>2015-07-27T20:25:15Z</time>
      </trkpt>
      <trkpt lat="48.86894" lon="2.33662">
        <ele>47.79999923706</ele>
        <time>2015-07-27T20:25:17Z</time>
      </trkpt>
      <trkpt lat="48.86894" lon="2.33678">
        <ele>47.599998474121</ele>
        <time>2015-07-27T20:25:20Z</time>
      </trkpt>
      <trkpt lat="48.86891" lon="2.33699">
        <ele>47.599998474121</ele>
        <time>2015-07-27T20:25:24Z</time>
      </trkpt>
      <trkpt lat="48.8689" lon="2.3373">
        <ele>47.400001525879</ele>
        <time>2015-07-27T20:25:29Z</time>
      </trkpt>
      <trkpt lat="48.86893" lon="2.33751">
        <ele>47.400001525879</ele>
        <time>2015-07-27T20:25:32Z</time>
      </trkpt>
      <trkpt lat="48.86893" lon="2.33765">
        <ele>47.400001525879</ele>
        <time>2015-07-27T20:25:34Z</time>
      </trkpt>
      <trkpt lat="48.86894" lon="2.33785">
        <ele>47.400001525879</ele>
        <time>2015-07-27T20:25:37Z</time>
      </trkpt>
      <trkpt lat="48.86893" lon="2.33826">
        <ele>47.400001525879</ele>
        <time>2015-07-27T20:25:42Z</time>
      </trkpt>
      <trkpt lat="48.86892" lon="2.3384">
        <ele>47.400001525879</ele>
        <time>2015-07-27T20:25:44Z</time>
      </trkpt>
      <trkpt lat="48.86892" lon="2.33862">
        <ele>47.400001525879</ele>
        <time>2015-07-27T20:25:48Z</time>
      </trkpt>
      <trkpt lat="48.86893" lon="2.33888">
        <ele>47.400001525879</ele>
        <time>2015-07-27T20:25:52Z</time>
      </trkpt>
      <trkpt lat="48.86892" lon="2.33924">
        <ele>47.400001525879</ele>
        <time>2015-07-27T20:25:57Z</time>
      </trkpt>
      <trkpt lat="48.86893" lon="2.33931">
        <ele>47.400001525879</ele>
        <time>2015-07-27T20:25:58Z</time>
      </trkpt>
      <trkpt lat="48.86903" lon="2.33968">
        <ele>47.400001525879</ele>
        <time>2015-07-27T20:26:03Z</time>
      </trkpt>
      <trkpt lat="48.86906" lon="2.33994">
        <ele>47.400001525879</ele>
        <time>2015-07-27T20:26:07Z</time>
      </trkpt>
      <trkpt lat="48.86896" lon="2.34012">
        <ele>47.400001525879</ele>
        <time>2015-07-27T20:26:11Z</time>
      </trkpt>
      <trkpt lat="48.86889" lon="2.34011">
        <ele>47.400001525879</ele>
        <time>2015-07-27T20:26:13Z</time>
      </trkpt>
      <trkpt lat="48.86871" lon="2.34002">
        <ele>47.400001525879</ele>
        <time>2015-07-27T20:26:18Z</time>
      </trkpt>
      <trkpt lat="48.86862" lon="2.33998">
        <ele>47.400001525879</ele>
        <time>2015-07-27T20:26:21Z</time>
      </trkpt>
      <trkpt lat="48.86852" lon="2.33992">
        <ele>47.400001525879</ele>
        <time>2015-07-27T20:26:24Z</time>
      </trkpt>
      <trkpt lat="48.86836" lon="2.33991">
        <ele>47.400001525879</ele>
        <time>2015-07-27T20:26:28Z</time>
      </trkpt>
      <trkpt lat="48.86823" lon="2.33986">
        <ele>47.400001525879</ele>
        <time>2015-07-27T20:26:31Z</time>
      </trkpt>
      <trkpt lat="48.86798" lon="2.33973">
        <ele>47.400001525879</ele>
        <time>2015-07-27T20:26:36Z</time>
      </trkpt>
      <trkpt lat="48.86788" lon="2.33968">
        <ele>47.400001525879</ele>
        <time>2015-07-27T20:26:38Z</time>
      </trkpt>
      <trkpt lat="48.86773" lon="2.3396">
        <ele>46.79999923706</ele>
        <time>2015-07-27T20:26:43Z</time>
      </trkpt>
      <trkpt lat="48.86771" lon="2.33959">
        <ele>46.599998474121</ele>
        <time>2015-07-27T20:26:44Z</time>
      </trkpt>
      <trkpt lat="48.86766" lon="2.33956">
        <ele>46.400001525879</ele>
        <time>2015-07-27T20:26:45Z</time>
      </trkpt>
      <trkpt lat="48.86751" lon="2.33944">
        <ele>46</ele>
        <time>2015-07-27T20:26:49Z</time>
      </trkpt>
      <trkpt lat="48.86736" lon="2.33933">
        <ele>45.79999923706</ele>
        <time>2015-07-27T20:26:53Z</time>
      </trkpt>
      <trkpt lat="48.86732" lon="2.3393">
        <ele>45.79999923706</ele>
        <time>2015-07-27T20:26:54Z</time>
      </trkpt>
      <trkpt lat="48.86715" lon="2.33918">
        <ele>45.599998474121</ele>
        <time>2015-07-27T20:26:57Z</time>
      </trkpt>
      <trkpt lat="48.86703" lon="2.3391">
        <ele>45.599998474121</ele>
        <time>2015-07-27T20:26:59Z</time>
      </trkpt>
      <trkpt lat="48.8668" lon="2.33891">
        <ele>45.599998474121</ele>
        <time>2015-07-27T20:27:03Z</time>
      </trkpt>
      <trkpt lat="48.86674" lon="2.33886">
        <ele>45.400001525879</ele>
        <time>2015-07-27T20:27:04Z</time>
      </trkpt>
      <trkpt lat="48.86649" lon="2.33875">
        <ele>45.400001525879</ele>
        <time>2015-07-27T20:27:10Z</time>
      </trkpt>
      <trkpt lat="48.86642" lon="2.33873">
        <ele>45.400001525879</ele>
        <time>2015-07-27T20:27:13Z</time>
      </trkpt>
      <trkpt lat="48.86638" lon="2.33874">
        <ele>45.400001525879</ele>
        <time>2015-07-27T20:27:15Z</time>
      </trkpt>
      <trkpt lat="48.86636" lon="2.33878">
        <ele>45.400001525879</ele>
        <time>2015-07-27T20:27:18Z</time>
      </trkpt>
      <trkpt lat="48.86634" lon="2.33875">
        <ele>45.400001525879</ele>
        <time>2015-07-27T20:27:28Z</time>
      </trkpt>
      <trkpt lat="48.86628" lon="2.33868">
        <ele>45.400001525879</ele>
        <time>2015-07-27T20:27:34Z</time>
      </trkpt>
      <trkpt lat="48.86626" lon="2.33867">
        <ele>45.400001525879</ele>
        <time>2015-07-27T20:27:35Z</time>
      </trkpt>
      <trkpt lat="48.86624" lon="2.33865">
        <ele>45.400001525879</ele>
        <time>2015-07-27T20:27:38Z</time>
      </trkpt>
      <trkpt lat="48.86621" lon="2.33866">
        <ele>45.400001525879</ele>
        <time>2015-07-27T20:27:40Z</time>
      </trkpt>
      <trkpt lat="48.86617" lon="2.33871">
        <ele>45.400001525879</ele>
        <time>2015-07-27T20:27:43Z</time>
      </trkpt>
      <trkpt lat="48.86612" lon="2.33893">
        <ele>45.400001525879</ele>
        <time>2015-07-27T20:27:50Z</time>
      </trkpt>
      <trkpt lat="48.86611" lon="2.33895">
        <ele>45.400001525879</ele>
        <time>2015-07-27T20:27:51Z</time>
      </trkpt>
      <trkpt lat="48.86609" lon="2.33903">
        <ele>45.400001525879</ele>
        <time>2015-07-27T20:27:54Z</time>
      </trkpt>
      <trkpt lat="48.86607" lon="2.33922">
        <ele>45.400001525879</ele>
        <time>2015-07-27T20:27:59Z</time>
      </trkpt>
      <trkpt lat="48.86605" lon="2.33924">
        <ele>45.400001525879</ele>
        <time>2015-07-27T20:28:00Z</time>
      </trkpt>
      <trkpt lat="48.86595" lon="2.33921">
        <ele>45.20000076294</ele>
        <time>2015-07-27T20:28:03Z</time>
      </trkpt>
      <trkpt lat="48.86574" lon="2.33908">
        <ele>44.400001525879</ele>
        <time>2015-07-27T20:28:07Z</time>
      </trkpt>
      <trkpt lat="48.86551" lon="2.3389">
        <ele>43.599998474121</ele>
        <time>2015-07-27T20:28:12Z</time>
      </trkpt>
      <trkpt lat="48.86548" lon="2.33887">
        <ele>43.400001525879</ele>
        <time>2015-07-27T20:28:13Z</time>
      </trkpt>
      <trkpt lat="48.86534" lon="2.33879">
        <ele>42.79999923706</ele>
        <time>2015-07-27T20:28:16Z</time>
      </trkpt>
      <trkpt lat="48.8651" lon="2.33875">
        <ele>42</ele>
        <time>2015-07-27T20:28:21Z</time>
      </trkpt>
      <trkpt lat="48.86499" lon="2.33874">
        <ele>41.79999923706</ele>
        <time>2015-07-27T20:28:23Z</time>
      </trkpt>
      <trkpt lat="48.86487" lon="2.33872">
        <ele>41.79999923706</ele>
        <time>2015-07-27T20:28:25Z</time>
      </trkpt>
      <trkpt lat="48.8647" lon="2.33869">
        <ele>41.599998474121</ele>
        <time>2015-07-27T20:28:28Z</time>
      </trkpt>
      <trkpt lat="48.86445" lon="2.33854">
        <ele>41.400001525879</ele>
        <time>2015-07-27T20:28:32Z</time>
      </trkpt>
      <trkpt lat="48.86439" lon="2.33852">
        <ele>41.400001525879</ele>
        <time>2015-07-27T20:28:33Z</time>
      </trkpt>
      <trkpt lat="48.86419" lon="2.33838">
        <ele>41.20000076294</ele>
        <time>2015-07-27T20:28:36Z</time>
      </trkpt>
      <trkpt lat="48.86402" lon="2.33827">
        <ele>41.20000076294</ele>
        <time>2015-07-27T20:28:39Z</time>
      </trkpt>
      <trkpt lat="48.86377" lon="2.33812">
        <ele>41.599998474121</ele>
        <time>2015-07-27T20:28:44Z</time>
      </trkpt>
      <trkpt lat="48.86373" lon="2.3381">
        <ele>41.79999923706</ele>
        <time>2015-07-27T20:28:45Z</time>
      </trkpt>
      <trkpt lat="48.86366" lon="2.33807">
        <ele>42</ele>
        <time>2015-07-27T20:28:47Z</time>
      </trkpt>
      <trkpt lat="48.86354" lon="2.33797">
        <ele>42.20000076294</ele>
        <time>2015-07-27T20:28:50Z</time>
      </trkpt>
      <trkpt lat="48.86347" lon="2.33794">
        <ele>42.400001525879</ele>
        <time>2015-07-27T20:28:52Z</time>
      </trkpt>
      <trkpt lat="48.86331" lon="2.33788">
        <ele>43.20000076294</ele>
        <time>2015-07-27T20:28:58Z</time>
      </trkpt>
      <trkpt lat="48.86328" lon="2.33787">
        <ele>43.400001525879</ele>
        <time>2015-07-27T20:28:59Z</time>
      </trkpt>
      <trkpt lat="48.86315" lon="2.3378">
        <ele>44.20000076294</ele>
        <time>2015-07-27T20:29:04Z</time>
      </trkpt>
      <trkpt lat="48.86312" lon="2.33779">
        <ele>44.20000076294</ele>
        <time>2015-07-27T20:29:05Z</time>
      </trkpt>
      <trkpt lat="48.863" lon="2.33774">
        <ele>44.79999923706</ele>
        <time>2015-07-27T20:29:09Z</time>
      </trkpt>
      <trkpt lat="48.86295" lon="2.33774">
        <ele>45.400001525879</ele>
        <time>2015-07-27T20:29:11Z</time>
      </trkpt>
      <trkpt lat="48.86277" lon="2.33764">
        <ele>46.20000076294</ele>
        <time>2015-07-27T20:29:17Z</time>
      </trkpt>
      <trkpt lat="48.86271" lon="2.3376">
        <ele>46.599998474121</ele>
        <time>2015-07-27T20:29:21Z</time>
      </trkpt>
      <trkpt lat="48.8627" lon="2.33756">
        <ele>47.599998474121</ele>
        <time>2015-07-27T20:29:26Z</time>
      </trkpt>
      <trkpt lat="48.86268" lon="2.33763">
        <ele>48.599998474121</ele>
        <time>2015-07-27T20:29:34Z</time>
      </trkpt>
      <trkpt lat="48.86263" lon="2.33788">
        <ele>49</ele>
        <time>2015-07-27T20:29:39Z</time>
      </trkpt>
      <trkpt lat="48.86256" lon="2.33818">
        <ele>49.20000076294</ele>
        <time>2015-07-27T20:29:43Z</time>
      </trkpt>
      <trkpt lat="48.86247" lon="2.33851">
        <ele>49.20000076294</ele>
        <time>2015-07-27T20:29:47Z</time>
      </trkpt>
      <trkpt lat="48.86238" lon="2.33884">
        <ele>49.400001525879</ele>
        <time>2015-07-27T20:29:51Z</time>
      </trkpt>
      <trkpt lat="48.8623" lon="2.33914">
        <ele>49.400001525879</ele>
        <time>2015-07-27T20:29:55Z</time>
      </trkpt>
      <trkpt lat="48.86223" lon="2.33933">
        <ele>49.400001525879</ele>
        <time>2015-07-27T20:29:58Z</time>
      </trkpt>
      <trkpt lat="48.86214" lon="2.33964">
        <ele>49.400001525879</ele>
        <time>2015-07-27T20:30:04Z</time>
      </trkpt>
      <trkpt lat="48.86213" lon="2.33967">
        <ele>49.400001525879</ele>
        <time>2015-07-27T20:30:05Z</time>
      </trkpt>
      <trkpt lat="48.86207" lon="2.33994">
        <ele>49.400001525879</ele>
        <time>2015-07-27T20:30:09Z</time>
      </trkpt>
      <trkpt lat="48.86199" lon="2.34029">
        <ele>49.599998474121</ele>
        <time>2015-07-27T20:30:13Z</time>
      </trkpt>
      <trkpt lat="48.86197" lon="2.34039">
        <ele>49.79999923706</ele>
        <time>2015-07-27T20:30:14Z</time>
      </trkpt>
      <trkpt lat="48.86195" lon="2.34048">
        <ele>50</ele>
        <time>2015-07-27T20:30:15Z</time>
      </trkpt>
      <trkpt lat="48.86189" lon="2.34089">
        <ele>50.599998474121</ele>
        <time>2015-07-27T20:30:20Z</time>
      </trkpt>
      <trkpt lat="48.86188" lon="2.34095">
        <ele>50.79999923706</ele>
        <time>2015-07-27T20:30:21Z</time>
      </trkpt>
      <trkpt lat="48.86186" lon="2.341">
        <ele>50.79999923706</ele>
        <time>2015-07-27T20:30:22Z</time>
      </trkpt>
      <trkpt lat="48.86181" lon="2.34111">
        <ele>51</ele>
        <time>2015-07-27T20:30:25Z</time>
      </trkpt>
      <trkpt lat="48.86177" lon="2.34116">
        <ele>51.20000076294</ele>
        <time>2015-07-27T20:30:27Z</time>
      </trkpt>
      <trkpt lat="48.86174" lon="2.34119">
        <ele>51.20000076294</ele>
        <time>2015-07-27T20:30:32Z</time>
      </trkpt>
      <trkpt lat="48.86171" lon="2.34124">
        <ele>51.400001525879</ele>
        <time>2015-07-27T20:30:36Z</time>
      </trkpt>
      <trkpt lat="48.86168" lon="2.34143">
        <ele>51.20000076294</ele>
        <time>2015-07-27T20:30:40Z</time>
      </trkpt>
      <trkpt lat="48.86161" lon="2.34174">
        <ele>50.599998474121</ele>
        <time>2015-07-27T20:30:45Z</time>
      </trkpt>
      <trkpt lat="48.86156" lon="2.34201">
        <ele>50.20000076294</ele>
        <time>2015-07-27T20:30:49Z</time>
      </trkpt>
      <trkpt lat="48.86155" lon="2.34208">
        <ele>50</ele>
        <time>2015-07-27T20:30:50Z</time>
      </trkpt>
      <trkpt lat="48.86153" lon="2.3422">
        <ele>50</ele>
        <time>2015-07-27T20:30:52Z</time>
      </trkpt>
      <trkpt lat="48.86148" lon="2.34248">
        <ele>49.79999923706</ele>
        <time>2015-07-27T20:30:57Z</time>
      </trkpt>
      <trkpt lat="48.86147" lon="2.34254">
        <ele>49.79999923706</ele>
        <time>2015-07-27T20:30:58Z</time>
      </trkpt>
      <trkpt lat="48.86145" lon="2.34267">
        <ele>49.79999923706</ele>
        <time>2015-07-27T20:31:00Z</time>
      </trkpt>
      <trkpt lat="48.8614" lon="2.34297">
        <ele>49.599998474121</ele>
        <time>2015-07-27T20:31:05Z</time>
      </trkpt>
      <trkpt lat="48.86139" lon="2.34311">
        <ele>49.599998474121</ele>
        <time>2015-07-27T20:31:07Z</time>
      </trkpt>
      <trkpt lat="48.86138" lon="2.34325">
        <ele>49.599998474121</ele>
        <time>2015-07-27T20:31:09Z</time>
      </trkpt>
      <trkpt lat="48.86133" lon="2.34363">
        <ele>49.599998474121</ele>
        <time>2015-07-27T20:31:14Z</time>
      </trkpt>
      <trkpt lat="48.8613" lon="2.34378">
        <ele>49.599998474121</ele>
        <time>2015-07-27T20:31:16Z</time>
      </trkpt>
      <trkpt lat="48.86124" lon="2.34402">
        <ele>49.599998474121</ele>
        <time>2015-07-27T20:31:20Z</time>
      </trkpt>
      <trkpt lat="48.86123" lon="2.34415">
        <ele>49.599998474121</ele>
        <time>2015-07-27T20:31:22Z</time>
      </trkpt>
      <trkpt lat="48.86123" lon="2.34421">
        <ele>49.599998474121</ele>
        <time>2015-07-27T20:31:23Z</time>
      </trkpt>
      <trkpt lat="48.86122" lon="2.34434">
        <ele>49.599998474121</ele>
        <time>2015-07-27T20:31:25Z</time>
      </trkpt>
      <trkpt lat="48.86117" lon="2.34472">
        <ele>49.599998474121</ele>
        <time>2015-07-27T20:31:30Z</time>
      </trkpt>
      <trkpt lat="48.86115" lon="2.34479">
        <ele>49.599998474121</ele>
        <time>2015-07-27T20:31:31Z</time>
      </trkpt>
      <trkpt lat="48.86112" lon="2.3449">
        <ele>49.599998474121</ele>
        <time>2015-07-27T20:31:33Z</time>
      </trkpt>
      <trkpt lat="48.86111" lon="2.34494">
        <ele>49.400001525879</ele>
        <time>2015-07-27T20:31:39Z</time>
      </trkpt>
      <trkpt lat="48.86107" lon="2.34493">
        <ele>49.400001525879</ele>
        <time>2015-07-27T20:31:54Z</time>
      </trkpt>
      <trkpt lat="48.86104" lon="2.34498">
        <ele>49.400001525879</ele>
        <time>2015-07-27T20:31:55Z</time>
      </trkpt>
      <trkpt lat="48.86096" lon="2.3454">
        <ele>49.79999923706</ele>
        <time>2015-07-27T20:32:00Z</time>
      </trkpt>
      <trkpt lat="48.86094" lon="2.34548">
        <ele>49.79999923706</ele>
        <time>2015-07-27T20:32:01Z</time>
      </trkpt>
      <trkpt lat="48.86083" lon="2.34574">
        <ele>50.400001525879</ele>
        <time>2015-07-27T20:32:05Z</time>
      </trkpt>
      <trkpt lat="48.8608" lon="2.34579">
        <ele>50.599998474121</ele>
        <time>2015-07-27T20:32:06Z</time>
      </trkpt>
      <trkpt lat="48.86076" lon="2.34585">
        <ele>50.599998474121</ele>
        <time>2015-07-27T20:32:07Z</time>
      </trkpt>
      <trkpt lat="48.86064" lon="2.34598">
        <ele>50.79999923706</ele>
        <time>2015-07-27T20:32:10Z</time>
      </trkpt>
      <trkpt lat="48.86043" lon="2.34616">
        <ele>51.20000076294</ele>
        <time>2015-07-27T20:32:15Z</time>
      </trkpt>
      <trkpt lat="48.86031" lon="2.34626">
        <ele>51.20000076294</ele>
        <time>2015-07-27T20:32:18Z</time>
      </trkpt>
      <trkpt lat="48.86009" lon="2.34644">
        <ele>51.400001525879</ele>
        <time>2015-07-27T20:32:24Z</time>
      </trkpt>
      <trkpt lat="48.86006" lon="2.34647">
        <ele>51.400001525879</ele>
        <time>2015-07-27T20:32:25Z</time>
      </trkpt>
      <trkpt lat="48.85993" lon="2.34662">
        <ele>51.400001525879</ele>
        <time>2015-07-27T20:32:29Z</time>
      </trkpt>
      <trkpt lat="48.85974" lon="2.34679">
        <ele>51.400001525879</ele>
        <time>2015-07-27T20:32:35Z</time>
      </trkpt>
      <trkpt lat="48.85959" lon="2.34691">
        <ele>51.599998474121</ele>
        <time>2015-07-27T20:32:42Z</time>
      </trkpt>
      <trkpt lat="48.85959" lon="2.34693">
        <ele>52.20000076294</ele>
        <time>2015-07-27T20:32:47Z</time>
      </trkpt>
      <trkpt lat="48.8596" lon="2.34694">
        <ele>53</ele>
        <time>2015-07-27T20:32:56Z</time>
      </trkpt>
      <trkpt lat="48.85961" lon="2.34687">
        <ele>59.79999923706</ele>
        <time>2015-07-27T20:33:59Z</time>
      </trkpt>
    </trkseg>
  </trk>
</gpx>